[[{"header":{"parameterUnit":"m.s-1","parameterCategory":1,"la1":30.6,"la2":29.2853,"lo1":-89.7004,"lo2":-87.6739,"dy":0.0162,"dx":0.0183,"nx":112,"ny":82,"refTime":"2024-04-29T18:00:00:Z","depth":0,"parameterNumber":2,"parameterNumberName":"U-component_of_WINDS"},"data":[0.0,0.0,0.0,0.0,0.0,0.0,0.0,0.0,0.0,0.0,0.0,0.0,0.0,0.0,0.0,0.0,0.0,0.0,0.0,0.0,0.0,0.0,0.0,0.0,0.0,0.0,0.0,0.0,0.0,0.0,0.0,0.0,0.0,0.0,0.0,0.0,0.0,0.0,0.0,0.0,0.0,0.0,0.0,0.0,0.0,0.0,0.0,0.0,0.0,0.0,0.0,0.0,0.0,0.0,0.0,0.0,0.0,0.0,0.0,0.0,0.0,0.0,0.0,0.0,0.0,0.0,0.0,0.0,0.0,0.0,0.0,0.0,0.0,0.0,0.0,0.0,0.0,0.0,0.0,0.0,0.0,0.0,0.0,0.0,0.0,0.0,0.0,0.0,0.0,0.0,0.0,-1.8084,-1.8084,-1.7881,-1.7379,-1.7257,-1.6726,-1.5604,0.0,0.0,0.0,0.0,0.0,0.0,0.0,0.0,0.0,0.0,0.0,0.0,0.0,0.0,0.0,0.0,0.0,0.0,0.0,0.0,0.0,0.0,0.0,0.0,0.0,0.0,0.0,0.0,0.0,0.0,0.0,0.0,0.0,0.0,0.0,0.0,0.0,0.0,0.0,0.0,0.0,0.0,0.0,0.0,0.0,0.0,0.0,0.0,0.0,0.0,0.0,0.0,0.0,0.0,0.0,0.0,0.0,0.0,0.0,0.0,0.0,0.0,0.0,0.0,0.0,0.0,0.0,0.0,0.0,0.0,0.0,0.0,0.0,0.0,0.0,0.0,0.0,0.0,0.0,0.0,0.0,0.0,0.0,0.0,0.0,0.0,0.0,0.0,0.0,0.0,0.0,0.0,0.0,0.0,0.0,0.0,0.0,0.0,0.0,0.0,0.0,0.0,0.0,0.0,-1.8084,-1.8084,-1.8084,-1.8057,-1.7963,-1.749,-1.6894,-1.6226,0.0,0.0,0.0,0.0,0.0,0.0,0.0,0.0,0.0,0.0,0.0,0.0,0.0,0.0,0.0,0.0,0.0,0.0,0.0,0.0,0.0,0.0,0.0,0.0,0.0,0.0,0.0,0.0,0.0,0.0,0.0,0.0,0.0,0.0,0.0,0.0,0.0,0.0,0.0,0.0,0.0,0.0,0.0,0.0,0.0,0.0,0.0,0.0,0.0,0.0,0.0,0.0,0.0,0.0,0.0,0.0,0.0,0.0,0.0,0.0,0.0,0.0,0.0,0.0,0.0,0.0,0.0,0.0,0.0,0.0,0.0,0.0,0.0,0.0,0.0,0.0,0.0,0.0,0.0,0.0,0.0,0.0,0.0,0.0,0.0,0.0,0.0,0.0,0.0,0.0,0.0,0.0,0.0,0.0,0.0,0.0,0.0,0.0,0.0,0.0,0.0,0.0,0.0,-1.8084,-1.8084,-1.8084,-1.8084,-1.8084,-1.8084,-1.7854,-1.7446,-1.6838,-1.6048,0.0,0.0,0.0,0.0,0.0,0.0,0.0,0.0,0.0,0.0,0.0,0.0,0.0,0.0,0.0,0.0,0.0,0.0,0.0,0.0,0.0,0.0,0.0,0.0,0.0,0.0,0.0,0.0,0.0,0.0,0.0,0.0,0.0,0.0,0.0,0.0,0.0,0.0,0.0,0.0,0.0,0.0,0.0,0.0,0.0,0.0,0.0,0.0,0.0,0.0,0.0,0.0,0.0,0.0,0.0,0.0,0.0,0.0,0.0,0.0,0.0,0.0,0.0,0.0,0.0,0.0,0.0,0.0,0.0,0.0,0.0,0.0,0.0,0.0,0.0,0.0,0.0,0.0,0.0,0.0,0.0,0.0,0.0,0.0,0.0,0.0,0.0,0.0,0.0,0.0,0.0,0.0,0.0,0.0,0.0,0.0,0.0,0.0,0.0,0.0,0.0,0.0,-1.8166,-1.8084,-1.8084,-1.8084,-1.8084,-1.8084,-1.8084,-1.7843,-1.723,-1.6641,0.0,0.0,0.0,0.0,0.0,0.0,0.0,0.0,0.0,0.0,0.0,0.0,0.0,0.0,0.0,0.0,0.0,0.0,0.0,0.0,0.0,0.0,0.0,0.0,0.0,0.0,0.0,0.0,0.0,0.0,0.0,0.0,0.0,0.0,0.0,0.0,0.0,0.0,0.0,0.0,0.0,0.0,0.0,0.0,0.0,0.0,0.0,0.0,0.0,0.0,0.0,0.0,0.0,0.0,0.0,0.0,0.0,0.0,0.0,0.0,0.0,0.0,0.0,0.0,0.0,0.0,0.0,0.0,0.0,0.0,0.0,0.0,0.0,0.0,0.0,0.0,0.0,0.0,0.0,0.0,0.0,0.0,0.0,0.0,0.0,0.0,0.0,0.0,0.0,0.0,0.0,0.0,0.0,0.0,0.0,0.0,0.0,0.0,0.0,0.0,0.0,0.0,-1.8367,-1.8084,-1.8084,-1.8084,-1.8084,-1.8084,-1.8084,-1.7843,-1.723,-1.6641,0.0,0.0,0.0,0.0,0.0,0.0,0.0,0.0,0.0,0.0,0.0,0.0,0.0,0.0,0.0,0.0,0.0,0.0,0.0,0.0,0.0,0.0,0.0,0.0,0.0,0.0,0.0,0.0,0.0,0.0,0.0,0.0,0.0,0.0,0.0,0.0,0.0,0.0,0.0,0.0,0.0,0.0,0.0,0.0,0.0,0.0,0.0,0.0,0.0,0.0,0.0,0.0,0.0,0.0,0.0,0.0,0.0,0.0,0.0,0.0,0.0,0.0,0.0,0.0,0.0,0.0,0.0,0.0,0.0,0.0,0.0,0.0,0.0,0.0,0.0,0.0,0.0,0.0,0.0,0.0,0.0,0.0,0.0,0.0,0.0,0.0,0.0,0.0,0.0,0.0,0.0,0.0,0.0,0.0,0.0,0.0,0.0,0.0,0.0,0.0,0.0,0.0,-1.8506,-1.8398,0.0,-1.8398,-1.8329,-1.8111,-1.7947,-1.7838,-1.776,0.0,0.0,0.0,0.0,0.0,0.0,0.0,0.0,0.0,0.0,0.0,0.0,0.0,0.0,0.0,0.0,0.0,0.0,0.0,0.0,0.0,0.0,0.0,0.0,0.0,0.0,0.0,0.0,0.0,0.0,0.0,0.0,0.0,0.0,0.0,0.0,0.0,0.0,0.0,0.0,0.0,0.0,0.0,0.0,0.0,0.0,0.0,0.0,0.0,0.0,0.0,0.0,0.0,0.0,0.0,0.0,0.0,0.0,0.0,0.0,0.0,0.0,0.0,0.0,0.0,0.0,0.0,0.0,0.0,0.0,0.0,0.0,0.0,0.0,0.0,0.0,0.0,0.0,0.0,0.0,0.0,0.0,0.0,0.0,0.0,0.0,0.0,0.0,0.0,0.0,0.0,0.0,0.0,0.0,0.0,0.0,0.0,0.0,0.0,0.0,0.0,0.0,-1.8975,-1.8815,-1.8667,0.0,-1.8441,-1.8278,-1.7854,-1.7645,-1.7645,-1.7947,0.0,0.0,0.0,0.0,0.0,0.0,0.0,0.0,0.0,0.0,0.0,0.0,0.0,0.0,0.0,0.0,0.0,0.0,0.0,0.0,0.0,0.0,0.0,0.0,0.0,0.0,0.0,0.0,0.0,0.0,0.0,0.0,0.0,0.0,0.0,0.0,0.0,0.0,0.0,0.0,0.0,0.0,0.0,0.0,0.0,0.0,0.0,0.0,0.0,0.0,0.0,0.0,0.0,0.0,0.0,0.0,0.0,0.0,0.0,0.0,0.0,0.0,0.0,0.0,0.0,0.0,0.0,0.0,0.0,0.0,0.0,0.0,0.0,0.0,0.0,0.0,0.0,0.0,0.0,0.0,0.0,0.0,0.0,0.0,0.0,0.0,0.0,0.0,0.0,0.0,0.0,0.0,0.0,0.0,0.0,0.0,0.0,0.0,0.0,0.0,0.0,0.0,-1.9772,-1.9342,-1.8813,-1.8197,-1.8143,-1.787,-1.7295,-1.7239,-1.7351,0.0,0.0,0.0,0.0,0.0,0.0,0.0,0.0,0.0,0.0,0.0,0.0,0.0,0.0,0.0,0.0,0.0,0.0,0.0,0.0,0.0,0.0,0.0,0.0,0.0,0.0,0.0,0.0,0.0,0.0,0.0,0.0,0.0,0.0,0.0,0.0,0.0,0.0,0.0,0.0,0.0,0.0,0.0,0.0,0.0,0.0,0.0,0.0,0.0,0.0,0.0,0.0,0.0,0.0,0.0,0.0,0.0,0.0,0.0,0.0,0.0,0.0,0.0,0.0,0.0,0.0,0.0,0.0,0.0,0.0,0.0,0.0,0.0,0.0,0.0,0.0,0.0,0.0,0.0,0.0,0.0,0.0,0.0,0.0,0.0,0.0,0.0,0.0,0.0,0.0,0.0,0.0,0.0,0.0,0.0,0.0,0.0,0.0,0.0,0.0,0.0,0.0,0.0,-2.0732,-2.0567,-2.04,-2.0221,-1.9783,-1.9356,-1.8941,-1.8291,-1.7994,-1.8175,0.0,0.0,0.0,0.0,0.0,0.0,0.0,0.0,0.0,0.0,0.0,0.0,0.0,0.0,0.0,0.0,0.0,0.0,0.0,0.0,0.0,0.0,0.0,0.0,0.0,0.0,0.0,0.0,0.0,0.0,0.0,0.0,0.0,0.0,0.0,0.0,0.0,0.0,0.0,0.0,0.0,0.0,0.0,0.0,0.0,0.0,0.0,0.0,0.0,0.0,0.0,0.0,0.0,0.0,0.0,0.0,0.0,0.0,0.0,0.0,0.0,0.0,0.0,0.0,0.0,0.0,0.0,0.0,0.0,0.0,0.0,0.0,0.0,0.0,0.0,0.0,0.0,0.0,0.0,0.0,0.0,0.0,0.0,0.0,0.0,0.0,0.0,0.0,0.0,0.0,0.0,0.0,0.0,0.0,0.0,0.0,0.0,0.0,0.0,0.0,0.0,0.0,-2.1356,-2.1285,-2.116,-2.0921,-2.0291,-1.9708,-1.9283,-1.8475,-1.8075,-1.8305,0.0,0.0,0.0,0.0,0.0,0.0,0.0,0.0,0.0,0.0,0.0,0.0,0.0,0.0,0.0,0.0,0.0,0.0,0.0,0.0,0.0,0.0,0.0,0.0,0.0,0.0,0.0,0.0,0.0,0.0,0.0,0.0,0.0,0.0,0.0,0.0,0.0,0.0,0.0,0.0,0.0,0.0,0.0,0.0,0.0,0.0,0.0,0.0,0.0,0.0,0.0,0.0,0.0,0.0,0.0,0.0,0.0,0.0,0.0,0.0,0.0,0.0,0.0,0.0,0.0,0.0,0.0,0.0,0.0,0.0,0.0,0.0,0.0,0.0,0.0,0.0,0.0,0.0,0.0,0.0,0.0,0.0,0.0,0.0,0.0,0.0,0.0,0.0,0.0,0.0,0.0,0.0,0.0,0.0,0.0,0.0,0.0,0.0,0.0,0.0,0.0,0.0,-2.1827,-2.1716,-2.1434,-2.09,-2.0235,-1.9627,-1.9077,-1.8348,-1.805,-1.8358,0.0,0.0,0.0,0.0,0.0,0.0,0.0,0.0,0.0,0.0,0.0,0.0,0.0,0.0,0.0,0.0,0.0,0.0,0.0,0.0,0.0,0.0,0.0,0.0,0.0,0.0,0.0,0.0,0.0,0.0,0.0,0.0,0.0,0.0,0.0,0.0,0.0,0.0,0.0,0.0,0.0,0.0,0.0,0.0,0.0,0.0,0.0,0.0,0.0,0.0,0.0,0.0,0.0,0.0,0.0,0.0,0.0,0.0,0.0,0.0,-2.5551,0.0,0.0,0.0,0.0,0.0,0.0,0.0,0.0,0.0,0.0,0.0,0.0,0.0,0.0,0.0,0.0,0.0,0.0,0.0,0.0,0.0,0.0,0.0,0.0,0.0,0.0,0.0,0.0,0.0,0.0,0.0,0.0,0.0,0.0,0.0,0.0,0.0,0.0,0.0,0.0,0.0,-2.2816,-2.2786,-2.2727,-2.2596,-2.1959,-2.1521,-2.1398,-2.0288,-1.9574,-1.9556,-1.9046,0.0,0.0,0.0,0.0,0.0,0.0,0.0,0.0,0.0,0.0,0.0,0.0,0.0,0.0,0.0,0.0,0.0,0.0,0.0,0.0,0.0,0.0,0.0,0.0,0.0,0.0,0.0,0.0,0.0,0.0,0.0,0.0,0.0,0.0,0.0,0.0,0.0,0.0,0.0,0.0,0.0,0.0,0.0,0.0,0.0,0.0,0.0,0.0,0.0,0.0,0.0,0.0,0.0,0.0,0.0,0.0,0.0,0.0,0.0,0.0,-2.6014,0.0,0.0,0.0,0.0,0.0,0.0,0.0,0.0,0.0,0.0,0.0,0.0,0.0,0.0,0.0,0.0,0.0,0.0,0.0,0.0,0.0,0.0,0.0,0.0,0.0,0.0,0.0,0.0,0.0,0.0,0.0,0.0,0.0,0.0,0.0,0.0,0.0,0.0,0.0,0.0,-2.3108,-2.3108,-2.3108,-2.3108,-2.2494,-2.1978,-2.1647,-2.0698,-1.9933,-1.9533,-1.9319,0.0,0.0,0.0,0.0,0.0,0.0,0.0,0.0,0.0,0.0,0.0,0.0,0.0,0.0,0.0,0.0,0.0,0.0,0.0,0.0,0.0,0.0,0.0,0.0,0.0,0.0,0.0,0.0,0.0,0.0,0.0,0.0,0.0,0.0,0.0,0.0,0.0,0.0,0.0,0.0,0.0,0.0,0.0,0.0,0.0,0.0,0.0,0.0,0.0,0.0,0.0,0.0,0.0,-2.9606,-2.9547,-2.9415,-2.9357,-2.9163,-2.8849,-2.7503,-2.6856,-2.6707,-2.6229,0.0,0.0,0.0,0.0,0.0,0.0,0.0,0.0,0.0,0.0,0.0,0.0,0.0,0.0,0.0,0.0,0.0,0.0,0.0,0.0,0.0,0.0,0.0,0.0,-2.342,-2.3018,0.0,0.0,0.0,0.0,0.0,0.0,0.0,0.0,0.0,0.0,0.0,0.0,-2.3108,-2.3108,-2.3108,-2.3108,-2.2586,-2.2051,-2.1502,-2.0826,-2.0161,-1.9495,-1.9594,-1.9326,0.0,0.0,0.0,0.0,0.0,0.0,0.0,0.0,0.0,0.0,0.0,0.0,0.0,0.0,0.0,0.0,0.0,0.0,0.0,0.0,0.0,0.0,0.0,0.0,0.0,0.0,0.0,0.0,0.0,0.0,0.0,0.0,-2.8167,-2.8834,0.0,0.0,0.0,0.0,0.0,0.0,0.0,0.0,0.0,0.0,0.0,0.0,0.0,-2.9633,-2.9633,-2.9633,-2.9606,-2.9606,-2.9606,-2.928,-2.8742,-2.9121,-2.8912,-2.8233,-2.8481,0.0,-2.8503,-2.7926,0.0,0.0,0.0,0.0,0.0,0.0,0.0,0.0,0.0,0.0,0.0,0.0,0.0,0.0,0.0,0.0,0.0,0.0,0.0,0.0,0.0,0.0,-2.3138,-2.3168,-2.3138,-2.31,0.0,-2.3106,-2.3259,-2.3085,-2.3088,0.0,0.0,0.0,0.0,0.0,0.0,0.0,-2.3108,-2.3108,-2.3108,-2.3108,-2.3005,-2.2944,-2.2854,-2.2206,-2.1542,-2.0869,-2.0323,-1.9716,-1.9048,-1.9048,0.0,0.0,0.0,0.0,0.0,0.0,0.0,0.0,0.0,0.0,0.0,0.0,0.0,0.0,0.0,0.0,0.0,0.0,0.0,0.0,0.0,0.0,0.0,0.0,0.0,0.0,0.0,0.0,0.0,-2.8465,-2.8619,-2.9376,-2.9452,-2.9584,0.0,0.0,0.0,0.0,0.0,0.0,0.0,0.0,0.0,-3.0201,-3.0131,-3.0103,-3.0103,-3.0103,-3.0298,-3.0687,-3.0687,-3.0494,-3.0225,-3.0284,-3.0127,-2.9777,-2.9842,-2.9638,-2.9246,-2.8712,-2.8553,-2.8539,0.0,0.0,0.0,0.0,-2.6909,-2.6818,-2.6451,-2.6298,0.0,-2.6005,0.0,0.0,0.0,0.0,0.0,0.0,0.0,0.0,0.0,0.0,-2.4048,-2.4048,-2.4048,-2.4048,-2.4048,-2.4123,-2.3966,0.0,-2.3108,-2.3108,-2.3108,0.0,0.0,0.0,0.0,-2.3108,-2.3108,-2.3108,-2.3108,-2.3108,-2.3108,-2.2944,-2.2555,-2.2267,-2.1803,-2.1123,-2.0805,-2.0355,-1.9682,-1.9649,-1.939,0.0,0.0,0.0,0.0,0.0,0.0,0.0,0.0,0.0,0.0,0.0,0.0,0.0,0.0,0.0,0.0,0.0,0.0,0.0,0.0,0.0,0.0,0.0,0.0,0.0,0.0,0.0,0.0,-2.8873,-2.9207,-3.0095,-3.0078,-3.0138,0.0,0.0,0.0,0.0,0.0,0.0,-3.198,-3.1945,-3.1722,-3.127,-3.1106,-3.1016,-3.1016,-3.0851,-3.1002,-3.1511,-3.1511,-3.1406,-3.1256,-3.1146,-3.0999,-3.0852,-3.0659,-3.0336,-2.9813,-2.9303,-2.9069,-2.9041,-2.8742,-2.8713,-2.8727,-2.8155,-2.7917,-2.7857,-2.7569,-2.7461,-2.7434,-2.7314,-2.7198,-2.7111,-2.7173,0.0,0.0,0.0,0.0,-2.5452,-2.537,-2.5192,-2.5065,-2.5065,-2.4904,-2.4788,-2.4788,-2.4788,-2.4537,0.0,-2.3534,-2.3534,-2.3534,0.0,0.0,0.0,0.0,-2.3534,-2.3534,-2.3534,-2.3484,-2.3333,-2.3333,-2.3076,-2.2414,-2.2359,-2.2082,-2.1408,-2.1345,-2.106,-2.0387,-2.0193,-1.9879,-1.9363,0.0,0.0,0.0,0.0,0.0,0.0,0.0,0.0,0.0,0.0,0.0,0.0,0.0,0.0,0.0,0.0,0.0,0.0,0.0,0.0,0.0,0.0,0.0,0.0,0.0,0.0,0.0,0.0,0.0,-3.1179,-3.0806,0.0,0.0,0.0,0.0,-3.2253,-3.1728,-3.19,-3.3218,-3.2652,-3.2599,-3.3335,-3.2736,-3.2407,-3.2407,-3.1765,-3.1466,-3.1511,-3.1511,-3.1167,-3.0554,-3.0923,-3.0748,-3.0174,-3.0469,-3.0583,-3.051,-2.9842,-2.9566,-2.9581,-2.9769,-3.0105,-3.0406,-2.9877,-2.9586,-2.9386,-2.8666,-2.8442,-2.8347,-2.7839,-2.7662,-2.7554,-2.7083,-2.7257,0.0,0.0,-2.6829,-2.6799,-2.6799,-2.6268,-2.5741,-2.5741,-2.5262,-2.4788,-2.4788,-2.4788,-2.4775,0.0,-2.47,-2.47,-2.47,0.0,-2.47,-2.47,-2.47,-2.47,-2.47,-2.47,-2.4512,-2.4017,-2.3954,-2.3697,-2.3085,-2.3047,-2.275,-2.2082,-2.2039,-2.1741,-2.1092,-2.0452,-2.0063,-2.0063,-1.9408,0.0,0.0,0.0,0.0,0.0,0.0,0.0,0.0,0.0,0.0,0.0,0.0,0.0,0.0,0.0,0.0,0.0,0.0,0.0,0.0,0.0,0.0,0.0,0.0,0.0,0.0,0.0,0.0,-3.1373,-3.1195,0.0,-3.2964,-3.2435,-3.2668,-3.4218,-3.3684,-3.3491,-3.3956,-3.3748,-3.315,-3.2183,-3.1911,-3.1622,-3.1225,-3.0986,-3.1062,-3.1511,-3.1511,-3.1347,-3.1022,-3.1072,-3.1146,-3.1174,-3.1182,-3.1177,-3.1134,-3.0495,-3.0234,-3.0234,-3.0323,-3.0438,-3.0568,-3.0387,-3.0282,-3.0221,-2.9948,-2.9856,-2.9813,-2.9631,-2.956,-2.9517,-2.9334,-2.9116,-2.8889,-2.868,-2.8302,-2.7944,-2.7944,-2.771,-2.7551,-2.7551,-2.7373,-2.7051,-2.6621,-2.6535,-2.6404,-2.5975,-2.531,-2.4788,-2.4788,-2.4788,-2.4788,-2.4788,-2.4788,-2.4788,-2.4788,-2.4788,-2.4713,-2.4556,-2.4519,-2.4412,-2.4211,-2.3891,-2.3585,-2.3325,-2.296,-2.2433,-2.1772,-2.151,-2.0974,-2.0139,-1.9879,-1.9518,0.0,0.0,0.0,0.0,0.0,0.0,0.0,0.0,0.0,0.0,0.0,0.0,0.0,0.0,0.0,0.0,0.0,0.0,0.0,0.0,0.0,0.0,0.0,0.0,0.0,0.0,-3.1232,-3.2307,-3.2003,-3.233,-3.3893,-3.3206,-3.3289,-3.4856,-3.4313,-3.4089,-3.451,-3.4314,-3.373,-3.2699,-3.2466,-3.2086,-3.1477,-3.125,-3.1274,-3.1511,-3.1511,-3.1438,-3.1292,-3.1161,-3.1367,-3.1787,-3.1587,-3.1625,-3.183,-3.1409,-3.1235,-3.1163,-3.051,-3.0409,-3.0598,-3.0598,-3.0598,-3.0598,-3.0598,-3.0598,-3.0598,-3.0598,-3.0598,-3.0598,-3.0598,-3.0282,-2.9931,-2.9931,-2.9608,-2.9205,-2.9205,-2.9048,-2.8857,-2.8857,-2.8698,-2.8363,-2.792,-2.7835,-2.7703,-2.7263,-2.6184,-2.5372,-2.5372,-2.5372,-2.5372,-2.5372,-2.5372,-2.5352,-2.5286,-2.5286,-2.5178,-2.4978,-2.4953,-2.4911,-2.48,-2.4481,-2.428,-2.428,-2.371,-2.32,-2.2775,-2.2333,-2.1667,-2.0697,-2.0215,-1.971,-1.9108,0.0,0.0,0.0,0.0,0.0,0.0,0.0,0.0,0.0,0.0,0.0,0.0,0.0,0.0,0.0,0.0,0.0,0.0,0.0,0.0,0.0,0.0,0.0,-3.0657,-3.1092,-3.2165,-3.4026,-3.3209,-3.3181,-3.4955,-3.4109,-3.3681,-3.4228,-3.3582,-3.3736,-3.5037,-3.4461,-3.4444,-3.5184,-3.4542,-3.3947,-3.337,-3.2752,-3.2122,-3.1511,-3.1524,-3.1438,-3.1292,-3.1161,-3.1352,-3.1816,-3.1616,-3.1915,-3.2539,-3.2556,-3.2542,-3.2336,-3.0422,-3.0074,-3.0641,-3.0641,-3.0627,-3.0598,-3.0598,-3.0598,-3.0598,-3.0598,-3.0598,-3.0598,-3.0598,-3.0598,-3.0598,-3.0598,-3.0598,-3.0598,-3.0598,-3.0129,-2.9623,-2.9623,-2.9093,-2.8556,-2.8524,-2.8524,-2.8524,-2.8492,-2.7451,-2.6555,-2.6555,-2.6555,-2.6555,-2.6521,-2.6521,0.0,-2.6236,-2.6201,-2.5968,-2.5409,-2.5347,-2.5203,-2.4888,-2.4825,-2.4813,-2.4813,-2.4299,-2.4017,-2.4017,-2.2824,-2.2033,-2.1825,-2.0468,-1.9554,-1.9131,0.0,0.0,0.0,0.0,0.0,0.0,0.0,0.0,0.0,0.0,0.0,0.0,0.0,0.0,0.0,0.0,0.0,0.0,0.0,0.0,0.0,0.0,-3.2153,-3.1988,-3.169,-3.188,-3.2862,-3.2521,-3.3036,-3.512,-3.4867,-3.5486,-3.7712,-3.7236,-3.6993,-3.7281,-3.6684,-3.6006,-3.5284,-3.46,-3.3773,-3.2778,-3.3001,-3.2579,-3.1511,-3.1938,-3.1796,-3.1161,-3.1102,-3.1541,-3.23,-3.2251,-3.2843,-3.3848,-3.3398,-3.3242,-3.3108,-3.2106,-3.154,-3.125,-3.125,-3.0974,-3.0598,-3.0598,-3.0598,-3.0598,-3.0598,-3.0598,-3.0598,-3.0598,-3.0598,-3.0598,-3.0598,-3.0598,-3.0598,-3.0598,-3.0447,-3.0312,-3.0312,-3.016,-2.9886,-2.9421,-2.9282,-2.9125,-2.8588,-2.8214,-2.7953,-2.7953,-2.7953,-2.7802,-2.7284,-2.7095,0.0,-2.627,-2.6062,-2.5965,-2.5955,-2.5943,-2.5915,-2.5834,-2.5402,-2.5099,-2.5012,-2.446,-2.4151,-2.4151,-2.3462,-2.2713,-2.1883,-2.0172,-1.9456,0.0,0.0,0.0,0.0,0.0,0.0,0.0,0.0,0.0,0.0,0.0,0.0,0.0,0.0,0.0,0.0,0.0,0.0,0.0,0.0,0.0,0.0,-3.2303,-3.2512,-3.2512,-3.2153,-3.2373,-3.3563,-3.333,-3.3986,-3.6346,-3.6174,-3.6586,-3.8252,-3.8038,-3.7761,-3.7739,-3.7656,-3.7286,-3.6535,-3.6446,-3.5804,-3.4571,-3.488,-3.4446,-3.32,-3.3244,-3.2975,-3.2389,-3.2046,-3.2289,-3.3001,-3.2937,-3.3485,-3.4385,-3.4008,-3.3862,0.0,0.0,0.0,0.0,0.0,-3.1293,-3.093,-3.0699,-3.0598,-3.0598,-3.0598,-3.0598,-3.0598,-3.0598,-3.0598,-3.0598,-3.0598,-3.0598,-3.0598,-3.0598,-3.0598,-3.0598,-3.0598,-3.0598,-3.0477,-3.0099,-3.0038,-2.9901,-2.947,-2.9362,0.0,-2.9362,-2.8889,-2.8363,-2.7986,-2.7571,-2.7162,-2.6692,-2.6292,-2.6062,-2.6179,-2.6131,-2.6097,-2.6201,-2.5787,0.0,0.0,0.0,-2.4464,-2.4198,-2.385,0.0,0.0,0.0,-1.9752,-1.9419,0.0,0.0,0.0,-1.8719,-1.8499,0.0,0.0,0.0,0.0,0.0,0.0,0.0,0.0,0.0,0.0,0.0,0.0,0.0,0.0,0.0,0.0,-3.2213,-3.2617,-3.2617,-3.2691,-3.3363,-3.5081,-3.4873,-3.5524,-3.7877,-3.7682,-3.7448,-3.7465,-3.7549,-3.7582,-3.7582,0.0,0.0,0.0,0.0,-3.8763,-3.7539,-3.7599,-3.6984,-3.5733,-3.5115,-3.4643,-3.4254,-3.3452,-3.3321,-3.3656,-3.3554,-3.3819,-3.4414,-3.4414,-3.4414,-3.4298,-3.3093,-3.2629,-3.2542,-3.1843,-3.1596,-3.1555,-3.0988,0.0,0.0,-3.0816,-3.0816,-3.0816,-3.0816,-3.0772,-3.0714,-3.0714,-3.0656,-3.0598,-3.0598,-3.0598,-3.0598,-3.0598,-3.0598,-3.0598,-3.0598,-3.0598,-3.0598,-3.0598,-3.0598,-3.0598,-3.0568,-2.9563,-2.8716,-2.8634,-2.8084,-2.7571,-2.7317,-2.6692,-2.6236,-2.6258,0.0,0.0,-2.6131,-2.598,-2.5875,-2.5875,-2.5455,-2.4906,-2.4308,-2.405,-2.3235,-2.1763,-2.1296,-2.0351,-1.8883,-1.8674,-1.8552,-1.8552,-1.8502,-1.8482,0.0,0.0,0.0,0.0,0.0,0.0,0.0,0.0,0.0,0.0,0.0,0.0,0.0,0.0,0.0,-3.3051,-3.3215,-3.3305,-3.3305,-3.3769,-3.4227,-3.456,-3.5336,-3.6282,-3.7367,-3.8329,-3.9131,-3.9719,-4.0266,-4.058,-4.058,-4.0246,-4.0053,-4.0053,-3.9663,-3.9095,-3.839,-3.8803,-3.8398,-3.7193,0.0,0.0,-3.4834,-3.4133,-3.3698,-3.3522,-3.3503,-3.3819,-3.4414,-3.4414,-3.4414,-3.4341,-3.3572,-3.3314,-3.3242,-3.2556,-3.2292,-3.2278,-3.2179,-3.2135,-3.2135,-3.2135,-3.2135,-3.2135,-3.2135,-3.1758,0.0,-3.1337,-3.0974,-3.0598,-3.0598,-3.0598,-3.0598,-3.0598,-3.0598,-3.0598,-3.0598,-3.0598,-3.0598,-3.0598,-3.0598,-3.0538,-3.0387,-3.0282,-3.0023,-2.9484,-2.9016,-2.8492,-2.792,-2.6981,-2.6427,-2.6586,-2.6047,-2.5676,-2.5711,-2.5688,-2.5641,-2.5641,-2.5695,-2.5436,-2.4703,-2.4287,-2.3946,-2.3736,-2.1932,-2.1126,-2.1313,-1.963,-1.882,-1.881,-1.8608,-1.8448,0.0,0.0,0.0,0.0,0.0,0.0,0.0,0.0,0.0,0.0,0.0,-3.3006,-3.3006,0.0,-3.2617,-3.2961,-3.3275,-3.3607,-3.3909,-3.4834,-3.5455,-3.5406,-3.5931,-3.6846,-3.8166,-3.9236,-4.0011,-4.0376,-4.1011,-4.1409,-4.1409,-4.1453,-4.1504,-4.1504,-4.1534,-4.1247,-4.0617,-4.0861,-4.0516,-3.9549,-3.8795,-3.8041,-3.7223,-3.5989,-3.5192,-3.4668,-3.4515,-3.4414,-3.4414,-3.4414,-3.4414,-3.4385,-3.4066,-3.3935,-3.3862,-3.3224,-3.2991,-3.2948,-3.2629,-3.2481,-3.2481,-3.2481,-3.2481,-3.2481,-3.2481,-3.2249,-3.1988,-3.1988,-3.1555,-3.1047,-3.1047,-3.0814,-3.0598,-3.0598,-3.0598,-3.0598,-3.0598,-3.0598,-3.0598,-3.0598,-3.0598,-3.0538,-3.0312,-3.0387,-3.019,-2.9407,-2.8857,-2.8233,-2.7557,-2.6676,-2.6198,-2.6289,-2.5886,-2.5606,-2.5606,-2.55,-2.5453,-2.5453,-2.5535,-2.5414,-2.5078,-2.4845,-2.4455,-2.3897,-2.2798,-2.1932,-2.1261,-2.0207,-1.948,-1.9098,-1.8952,-1.8626,0.0,0.0,0.0,0.0,0.0,0.0,0.0,0.0,-3.3844,-3.3709,-3.326,-3.2856,-3.2721,-3.2706,-3.2706,-3.2706,-3.326,-3.3909,-3.4509,-3.5656,-3.6503,-3.6734,-3.6876,-3.7568,-3.9152,-4.0094,-4.058,-4.058,-4.1359,-4.1839,-4.1839,-4.2373,-4.2704,-4.2704,-4.3284,-4.3325,-4.2803,-4.2772,-4.2506,-4.1868,-4.0678,-4.002,-3.9798,-3.8065,-3.6912,-3.624,-3.5643,-3.5009,-3.4414,-3.4414,-3.4414,-3.4414,-3.4414,-3.4414,-3.4356,-3.3833,-3.3678,-3.3605,-3.3064,-3.2858,-3.2858,-3.2858,-3.2858,-3.2858,-3.2858,-3.2803,-3.2701,-3.2701,-3.2135,-3.1495,-3.1495,-3.1047,-3.0598,-3.0598,-3.0598,-3.0598,-3.0538,-3.0538,-3.0538,-3.0522,-3.0492,-3.0462,-3.0251,-3.0099,-2.9839,-2.93,-2.8602,-2.7953,-2.7358,-2.6517,-2.6002,-2.6002,-2.5711,-2.5535,-2.5535,-2.5418,-2.5347,-2.5312,-2.5382,-2.5382,-2.5347,-2.5347,-2.4885,-2.3933,-2.357,-2.2611,-2.0993,-2.0586,-2.004,-1.9404,-1.9326,-1.8877,-3.4471,-3.5158,-3.5547,-3.4738,-3.4961,-3.5183,0.0,0.0,-3.5115,-3.4518,-3.4339,-3.4083,-3.3499,-3.338,-3.338,-3.338,-3.3933,-3.4587,-3.52,-3.5922,-3.6811,-3.7967,-3.8603,-3.9065,-3.9299,-4.0498,-4.1293,-4.1293,-4.2555,-4.335,-4.335,-4.3416,-4.3466,-4.3466,-4.3549,-4.3552,-4.3492,-4.3492,-4.3462,-4.3372,-4.2598,-4.185,-4.1051,-3.9408,-3.8266,-3.7413,-3.5991,-3.5009,-3.4414,-3.4414,-3.4414,-3.4414,-3.4414,-3.4414,-3.4399,-3.4327,-3.4312,-3.4298,-3.4225,-3.4196,-3.4196,-3.4196,-3.4196,-3.4196,-3.4196,-3.3804,-3.3402,-3.3402,-3.2469,-3.1495,-3.1495,-3.1047,-3.0598,-3.0598,-3.0598,-3.0538,-3.0387,-3.0312,-3.0296,-3.0172,-3.0172,-3.0097,-2.9884,-2.9373,-2.9184,-2.9882,-2.9247,-2.8661,-2.8597,-2.7271,-2.6358,-2.6358,-2.5734,-2.5347,-2.5347,-2.55,-2.5488,-2.5312,-2.5653,-2.5758,-2.5571,-2.5571,-2.5499,-2.5368,-2.3822,-2.2959,-2.272,-2.0873,-1.9919,-1.9834,-1.9463,-1.9023,-3.5106,-3.5672,-3.6072,0.0,-3.5587,-3.5507,-3.4796,-3.4776,-3.4726,-3.4038,-3.3934,-3.3829,-3.3544,-3.3499,-3.3619,0.0,-3.4605,-3.5385,-3.6421,-3.7105,-3.7867,-3.8772,-3.9121,-3.9299,-3.9299,-4.0227,-4.0978,-4.1375,-4.2357,-4.3135,-4.3582,-4.3598,-4.3598,-4.3598,-4.3598,-4.3598,-4.3598,-4.3204,-4.3005,-4.3005,-4.1884,-4.117,-4.0772,-3.9569,-3.8501,-3.7564,-3.6038,-3.5247,-3.4936,-3.4559,-3.4414,-3.4414,-3.4414,-3.4414,-3.4414,-3.4414,-3.4414,-3.4414,-3.4414,-3.4414,-3.4414,-3.4414,-3.4414,-3.4414,-3.4414,-3.4225,-3.4008,-3.4008,-3.3369,-3.2571,-3.2193,-3.1613,-3.1032,-3.0685,-3.0598,-3.0568,-3.0477,-3.0387,-3.0282,-3.0249,-3.0158,-3.0036,-2.9822,-2.956,-2.9328,-2.9202,-2.8163,-2.7237,-2.682,-2.6195,-2.5756,-2.5756,-2.5476,-2.5312,-2.5312,-2.5382,-2.5382,-2.5312,-2.5453,-2.55,-2.5418,-2.543,-2.543,-2.543,-2.4719,-2.4131,-2.3647,-2.2776,-2.1866,-2.0987,-2.0842,-2.0269,-3.5608,-3.5943,0.0,-3.5809,-3.5558,-3.5235,-3.4525,-3.4281,-3.4099,-3.3589,-3.3499,-3.3499,-3.3499,-3.3649,-3.398,-3.4649,-3.5248,-3.6133,-3.7467,-3.8023,-3.8562,-3.9202,-3.9299,-3.9381,-3.958,-4.026,-4.0878,-4.1375,-4.2258,-4.3118,-4.3876,-4.388,-4.4009,-4.4208,-4.4026,-4.388,-4.388,-4.3225,-4.2772,-4.2585,-4.1574,-4.0974,-4.0737,-3.9814,-3.8733,-3.7557,-3.6464,-3.5796,-3.5363,-3.4864,-3.4574,-3.4414,-3.4414,-3.4414,-3.4414,-3.4414,-3.4414,-3.4414,-3.4414,-3.4414,-3.4414,-3.4414,-3.4414,-3.4414,-3.4414,-3.4414,-3.4414,-3.4414,-3.3964,-3.3402,-3.2904,-3.2295,-3.1642,-3.0988,-3.0843,-3.0785,-3.0581,-3.0357,-3.0235,-3.016,-3.0052,-2.9927,-2.9775,-2.9591,-2.9156,-2.8344,-2.717,-2.6208,-2.5652,-2.5418,-2.5312,-2.5312,-2.5312,-2.5312,-2.5312,-2.5312,-2.5312,-2.5312,-2.5312,-2.5312,-2.5312,-2.5312,-2.5312,-2.5312,-2.5087,-2.4671,-2.4108,-2.3902,-2.3231,-2.2134,-2.2134,-2.1504,-3.632,0.0,-3.6011,-3.5231,-3.4878,-3.4526,-3.3726,-3.3529,-3.3514,-3.3499,-3.3499,-3.3499,-3.3499,-3.4023,-3.4678,-3.5277,-3.5922,-3.6814,-3.808,-3.8294,-3.8562,-3.9202,-3.9299,-3.958,0.0,-4.0961,-4.1392,-4.1409,-4.2738,-4.388,-4.4622,-4.4655,-4.4986,-4.5698,-4.5036,-4.4655,-4.4655,-4.3946,-4.3235,-4.2617,-4.2554,-4.2158,-4.1459,-4.0566,-3.9219,-3.7601,-3.7557,-3.6718,-3.5392,-3.5378,-3.5,-3.4414,-3.4414,-3.4414,-3.4414,-3.4414,-3.4414,-3.4414,-3.4414,-3.4414,-3.4414,-3.4414,-3.4414,-3.4414,-3.4414,-3.4414,-3.4414,-3.4414,-3.3964,-3.3503,-3.3474,-3.2962,-3.2292,-3.1625,-3.1451,-3.1261,-3.0486,-3.0189,-3.0036,-2.9853,-2.9713,-2.9602,-2.9602,-2.9012,-2.8298,-2.7637,-2.6879,-2.638,-2.638,-2.5721,-2.5312,-2.5312,-2.5312,-2.5312,-2.5312,-2.5312,-2.5312,-2.5312,-2.5312,-2.5312,-2.5312,-2.5312,-2.5312,-2.5312,-2.4528,-2.4108,-2.4108,-2.339,-2.3032,-2.2947,-2.2947,-2.2537,-3.646,0.0,-3.6198,-3.5339,-3.5415,-3.5321,-3.3939,-3.3968,-3.4132,-3.362,-3.3844,-3.4174,-3.4174,-3.4696,-3.5354,-3.5968,-3.6628,-3.7354,-3.8165,-3.8673,-3.9232,-3.9934,-4.0028,0.0,0.0,0.0,0.0,-4.2738,-4.3317,-4.4158,-4.5351,-4.5417,-4.5533,-4.5781,-4.5549,-4.5185,-4.4688,-4.401,-4.3323,-4.2585,-4.1656,-4.1075,-4.0805,-3.9743,-3.8956,-3.8348,-3.7682,-3.7128,-3.662,-3.617,-3.5619,-3.5072,-3.5072,-3.4777,-3.4414,-3.4414,-3.4414,-3.4414,-3.4414,-3.4414,-3.4414,-3.4414,-3.4414,-3.4414,-3.4414,-3.4414,-3.4414,-3.4414,-3.4254,-3.3993,-3.3605,-3.3344,-3.2977,-3.2338,-3.2147,-3.1942,-3.1149,-3.085,-3.0566,-2.9924,-2.9682,-2.9432,-2.8949,-2.8666,-2.8103,-2.6947,-2.6139,-2.5652,-2.5652,-2.5441,-2.5312,-2.5312,-2.5312,-2.5312,-2.5312,-2.5312,-2.5312,-2.5312,-2.5312,-2.5312,-2.5312,-2.5312,-2.5312,-2.5312,-2.5052,-2.4898,-2.4898,-2.4647,-2.424,-2.372,-2.372,-2.3316,-3.6414,-3.646,-3.6291,-3.5401,-3.5492,-3.5414,-3.4046,-3.4014,-3.4177,-3.3904,-3.4219,-3.4578,-3.4801,-3.5383,-3.6022,-3.6677,-3.731,-3.7937,-3.8562,-3.9254,-3.9879,-4.0343,-4.0829,-4.1425,0.0,0.0,0.0,-4.3515,-4.4078,-4.492,-4.6129,-4.6179,-4.6311,-4.6576,-4.6328,-4.5963,-4.5483,-4.4534,-4.3408,-4.219,-4.1042,-4.0339,-4.0076,-3.9343,-3.8943,-3.8767,-3.8113,-3.7652,-3.7273,-3.6838,-3.6286,-3.5712,-3.5479,-3.5145,-3.4719,-3.4501,-3.4414,-3.4414,-3.4414,-3.4414,-3.4414,-3.4414,-3.4414,-3.4414,-3.4414,-3.4414,-3.4414,-3.4414,-3.4414,-3.4312,-3.3906,-3.3804,-3.3645,-3.3006,-3.2861,-3.2655,-3.1876,-3.1588,-3.1182,-3.037,-3.0069,-2.9698,-2.9022,-2.8487,-2.7756,-2.6586,-2.5756,-2.5312,-2.5312,-2.5312,-2.5312,-2.5312,-2.5312,-2.5312,-2.5312,-2.5312,-2.5312,-2.5312,-2.5312,-2.5312,-2.5312,-2.5312,-2.5312,-2.5312,-2.5312,-2.5312,-2.5312,-2.5312,-2.5052,-2.4528,-2.4528,-2.412,-3.6242,-3.6352,-3.6291,-3.5431,-3.5156,-3.4865,-3.4061,-3.3742,-3.38,-3.4429,-3.4563,-3.4758,0.0,0.0,-3.6616,-3.7328,-3.7911,-3.8507,-3.9197,-3.9934,-4.0442,0.0,0.0,0.0,0.0,0.0,0.0,-4.3813,0.0,-4.6179,-4.6924,-4.6957,-4.7272,-4.7984,-4.7322,-4.6941,-4.6891,-4.5433,-4.3645,-4.1606,-4.0888,-4.0181,-3.9445,-3.9424,-3.9177,-3.8782,-3.8782,-3.8238,-3.736,-3.736,-3.6954,-3.6301,-3.5741,-3.545,-3.5319,-3.469,-3.4443,-3.4414,-3.4414,-3.4414,-3.4414,-3.4414,-3.4414,-3.4414,-3.4414,-3.4414,-3.4414,-3.4414,-3.4414,-3.4414,-3.4414,-3.4414,-3.4269,-3.3692,-3.3547,-3.3373,-3.2669,-3.2299,-3.1872,-3.1168,-3.0722,-3.0255,-2.9652,-2.8384,-2.7217,-2.6517,-2.5756,-2.5312,-2.5312,-2.5312,-2.5312,-2.5312,-2.5312,-2.5312,-2.5312,-2.5312,-2.5312,-2.5312,-2.5312,-2.5312,-2.5312,-2.5312,-2.5312,-2.5312,-2.5312,-2.5312,-2.5312,-2.5312,-2.5312,-2.5312,-2.5312,-2.4898,-3.6211,-3.6352,-3.6322,-3.5615,-3.5769,-3.5891,-3.5019,-3.5093,-3.5392,-3.5369,-3.5399,-3.5555,0.0,0.0,0.0,-3.7899,-3.7866,0.0,-3.9141,-3.9928,0.0,-4.1839,0.0,-4.3843,-4.5119,-4.5914,0.0,0.0,-4.6411,-4.6941,-4.7686,-4.7719,-4.7819,-4.8001,-4.7819,-4.7454,-4.6908,-4.5433,-4.4173,-4.3106,-4.1844,-4.0873,-4.0216,-3.9487,-3.9031,-3.8782,-3.8649,-3.8339,-3.797,-3.797,-3.7607,-3.7041,-3.6881,-3.6249,-3.5378,-3.5218,-3.482,-3.4414,-3.4414,-3.4414,-3.4414,-3.4414,-3.4414,-3.4414,-3.4414,-3.4414,-3.4414,-3.4414,-3.4414,-3.4414,-3.4414,-3.4414,-3.437,-3.4211,-3.4167,-3.396,-3.319,-3.2947,-3.2629,-3.171,-3.0583,-2.9534,-2.8871,-2.7591,-2.662,-2.6414,-2.5756,-2.5312,-2.5312,-2.5312,-2.5312,-2.5312,-2.5312,-2.5312,-2.5312,-2.5312,-2.5312,-2.5312,-2.5312,-2.5312,-2.5312,-2.5312,-2.5312,-2.5312,-2.5312,-2.5312,-2.5312,-2.5312,-2.5312,-2.5312,-2.5312,-2.5194,-3.6116,-3.6289,-3.6399,-3.6014,-3.6168,-3.6244,-3.5753,-3.5826,-3.5973,-3.5863,-3.5752,0.0,-3.6023,0.0,0.0,0.0,0.0,0.0,-4.0087,-4.1148,-4.2104,0.0,-4.4194,0.0,-4.6195,-4.6941,-4.7388,0.0,-4.7388,-4.7554,-4.7984,-4.8001,-4.8001,-4.8001,-4.8001,-4.7653,-4.6908,-4.5748,-4.4677,-4.3686,-4.2186,-4.116,-4.0478,-3.9631,-3.9068,-3.8782,0.0,-3.8464,-3.8202,-3.8202,-3.7999,-3.768,-3.7404,-3.6867,-3.6191,-3.561,-3.5174,-3.4791,-3.4501,-3.4414,-3.4414,-3.4414,-3.4414,-3.4414,-3.4414,-3.4414,-3.4414,-3.4414,-3.4414,-3.4414,-3.4414,-3.4414,-3.4414,-3.4414,-3.4414,-3.4279,-3.3816,-3.3609,-3.312,-3.1732,-3.0317,-2.909,-2.8392,-2.7438,-2.6639,-2.6323,-2.5739,-2.5312,-2.5312,-2.5312,-2.5312,-2.5312,-2.5312,-2.5312,-2.5312,-2.5312,-2.5312,-2.5312,-2.5312,-2.5312,-2.5312,-2.5312,-2.5312,-2.5312,-2.5312,-2.5312,-2.5312,-2.5312,-2.5312,-2.5312,-2.5312,-2.5312,-3.6037,-3.6226,-3.6492,-3.6492,-3.6352,-3.6211,-3.6242,-3.6132,-3.6005,-3.6005,0.0,-3.5752,-3.5784,-3.6615,-3.7577,-3.8362,0.0,-4.0486,-4.1168,-4.2596,-4.3631,-4.3714,-4.5616,-4.6941,-4.704,-4.762,-4.8001,-4.8001,-4.8001,-4.8001,-4.8001,-4.8001,-4.8001,-4.8001,-4.8001,-4.7686,-4.7057,-4.6311,-4.5236,-4.3832,-4.2362,-4.1254,-4.0478,-3.9753,-3.9177,-3.8782,-3.8782,-3.8575,-3.8202,-3.8202,-3.8202,-3.8144,-3.7622,-3.7375,-3.7172,-3.6075,-3.561,-3.5436,-3.4762,-3.4545,-3.453,-3.4443,-3.4414,-3.4414,-3.4414,-3.4414,-3.4414,-3.4414,-3.4414,-3.4414,-3.4414,-3.4414,-3.438,-3.438,-3.4346,-3.4346,-3.4346,-3.4088,-3.3338,-3.1574,-3.0246,-2.9132,-2.829,-2.767,-2.7094,-2.6457,-2.5877,-2.5492,-2.5432,-2.5348,-2.5312,-2.5312,-2.5312,-2.5312,-2.5312,-2.5312,-2.5312,-2.5312,-2.5312,-2.5312,-2.5312,-2.5312,-2.5312,-2.5312,-2.5312,-2.5312,-2.5312,-2.5312,-2.5312,-2.5312,-2.5312,-2.5312,-3.6005,-3.6226,-3.6492,-3.6492,-3.6352,-3.6242,-3.6414,-3.6241,0.0,0.0,-3.5973,-3.6022,-3.6258,-3.6585,-3.717,-3.8226,0.0,0.0,0.0,0.0,-4.3843,0.0,0.0,0.0,0.0,0.0,0.0,0.0,0.0,-4.8001,-4.8001,-4.8001,-4.8001,-4.8001,-4.8001,-4.7934,-4.7819,-4.7073,-4.6009,-4.4577,-4.3113,-4.1727,-4.0478,-3.9753,-3.9177,-3.8782,-3.8782,0.0,-3.8202,-3.8202,-3.8202,-3.8188,-3.8086,-3.7738,-3.7273,-3.7056,-3.662,-3.6054,-3.545,-3.5232,-3.5145,-3.4588,-3.4414,-3.4414,-3.4414,-3.4414,-3.4414,-3.4414,-3.4414,-3.4414,-3.4414,-3.4414,-3.4346,-3.4196,-3.4162,-3.4128,-3.402,-3.3813,-3.3199,-3.1742,-3.1124,-3.0423,-2.9132,-2.8333,-2.7812,-2.7703,-2.7066,-2.6453,-2.6021,-2.5576,-2.5312,-2.5312,-2.5312,-2.5312,-2.5312,-2.5312,-2.5312,-2.5312,-2.5312,-2.5312,-2.5312,-2.5312,-2.5312,-2.5312,-2.5312,-2.5312,-2.5312,-2.5312,-2.5312,-2.5312,-2.5312,-2.5312,-3.5831,-3.6085,-3.632,-3.6273,-3.6226,-3.6211,-3.6226,0.0,0.0,0.0,-3.6005,-3.6005,-3.6023,-3.6305,0.0,0.0,0.0,0.0,0.0,0.0,0.0,0.0,0.0,0.0,0.0,0.0,0.0,0.0,0.0,-4.8001,-4.8001,-4.8001,-4.8001,-4.8001,-4.8001,-4.8001,-4.8001,-4.7272,-4.619,-4.4772,-4.3288,-4.187,-4.0478,-3.9753,-3.9177,-3.8782,-3.8782,0.0,-3.8202,-3.8202,-3.8202,-3.8202,-3.8202,-3.8028,-3.7738,-3.7418,-3.7114,-3.6736,-3.6083,-3.5668,-3.5348,-3.5009,-3.4675,-3.4414,-3.4414,-3.4414,-3.4414,-3.4414,-3.4414,-3.4414,-3.4414,-3.4312,-3.423,-3.4128,-3.404,-3.3951,-3.3779,-3.3333,-3.2629,-3.1433,-3.0784,-3.0065,-2.8963,-2.8249,-2.7838,-2.7838,-2.733,-2.6801,-2.6562,-2.6273,-2.5937,-2.5372,-2.5312,-2.5312,-2.5312,-2.5312,-2.5312,-2.5312,-2.5312,-2.5312,-2.5312,-2.5312,-2.5312,-2.5312,-2.5312,-2.5312,-2.5312,-2.5312,-2.5312,-2.5312,-2.5312,-2.5312,-3.5688,-3.5911,-3.6148,-3.6037,-3.6053,-3.6085,-3.6005,-3.6053,0.0,-3.5958,-3.5941,-3.5863,-3.5703,0.0,-3.6817,0.0,-3.951,0.0,0.0,0.0,0.0,0.0,0.0,0.0,0.0,0.0,0.0,0.0,0.0,0.0,-4.8001,-4.8001,-4.8001,-4.8001,-4.782,-4.7737,-4.7737,-4.7029,-4.6011,-4.475,-4.3276,-4.1919,-4.0678,-3.9813,-3.9177,-3.8782,-3.8782,0.0,0.0,-3.8202,-3.8202,-3.8202,-3.8202,-3.8202,-3.8144,-3.768,-3.7491,-3.7404,-3.6751,-3.6199,-3.5784,-3.5639,-3.5038,-3.4414,-3.4414,-3.4414,-3.4414,-3.4414,-3.4414,-3.4414,-3.4414,-3.4264,-3.4128,-3.4059,-3.3785,-3.3486,-3.3297,-3.2654,-3.1806,-3.082,-3.0152,-2.9433,-2.8657,-2.8162,-2.7885,-2.7885,-2.7498,-2.7198,-2.7078,-2.7066,-2.6693,-2.5757,-2.5661,-2.5661,-2.5661,-2.5661,-2.56,-2.548,-2.548,-2.5432,-2.5312,-2.5312,-2.5312,-2.5312,-2.5312,-2.5312,-2.5312,-2.5312,-2.5312,-2.5312,-2.5312,-2.5312,-3.5688,-3.5863,-3.6005,-3.6005,-3.5863,-3.5784,-3.5973,0.0,-3.5752,-3.572,-3.572,-3.5671,-3.5554,-3.599,-3.6662,-3.7389,0.0,-4.073,0.0,0.0,0.0,0.0,0.0,0.0,0.0,0.0,0.0,0.0,0.0,0.0,-4.8001,-4.8001,-4.8001,-4.8001,-4.7287,-4.6931,-4.6931,-4.617,-4.5433,-4.4614,-4.3183,-4.2109,-4.1289,-3.9973,-3.9177,-3.8782,-3.8782,0.0,0.0,-3.8202,-3.8202,-3.8202,-3.8202,-3.8202,-3.8188,-3.8144,-3.813,-3.8028,-3.7433,-3.7172,-3.7027,-3.6417,-3.5401,-3.4414,-3.4414,-3.4414,-3.4414,-3.4414,-3.4414,-3.4414,-3.4414,-3.438,-3.4312,-3.3985,-3.3058,-3.2268,-3.2232,-3.1599,-3.0769,-2.9961,-2.9742,-2.9433,-2.8657,-2.8474,-2.8438,-2.8438,-2.8402,-2.8198,-2.7678,-2.7618,-2.739,-2.6813,-2.6741,-2.6741,-2.6741,-2.6741,-2.6562,-2.6057,-2.6021,-2.5817,-2.5336,-2.5312,-2.5312,-2.5312,-2.5312,-2.5312,-2.5312,-2.5312,-2.5312,-2.5312,-2.5312,-2.5312,-3.5572,-3.5718,-3.5799,-3.5701,-3.5782,-3.5846,-3.5748,0.0,-3.5799,-3.5636,-3.5638,-3.5671,-3.5522,-3.5716,-3.6053,-3.6692,-3.82,0.0,0.0,0.0,0.0,0.0,0.0,0.0,0.0,0.0,0.0,0.0,0.0,0.0,-4.7303,-4.7303,-4.7303,-4.7303,-4.655,-4.6147,-4.6147,-4.5841,-4.5096,-4.392,-4.2968,-4.1893,-4.0761,-3.9854,-3.9177,-3.8782,-3.8782,0.0,0.0,-3.8202,-3.8202,-3.8202,-3.8202,-3.8202,-3.8202,-3.8202,-3.8202,-3.8173,-3.7941,-3.7607,-3.7259,-3.6997,-3.6301,-3.5488,-3.5096,-3.4719,-3.4414,-3.4414,-3.4414,-3.4414,-3.4414,-3.4244,-3.402,-3.3779,-3.2881,-3.211,-3.211,-3.1489,-3.067,-2.9858,-2.9704,-2.9433,-2.8657,-2.851,-2.851,-2.851,-2.851,-2.8426,-2.8222,-2.8198,-2.8114,-2.7909,-2.7282,-2.6898,-2.6898,-2.6898,-2.6801,-2.661,-2.6561,-2.6358,-2.5805,-2.5781,-2.5636,-2.5312,-2.5312,-2.5312,-2.5312,-2.5312,-2.5312,-2.5312,-2.5312,-2.5312,-3.5504,-3.5572,-3.5621,-3.5522,-3.5683,-3.5797,0.0,-3.5683,-3.5797,-3.5569,-3.5572,-3.5621,-3.5537,-3.5504,-3.5701,-3.6305,-3.7569,-3.8965,-4.0312,0.0,0.0,0.0,0.0,0.0,0.0,0.0,0.0,0.0,0.0,0.0,-4.6846,-4.6604,-4.6569,-4.6777,-4.5861,-4.5369,-4.5369,-4.511,-4.4467,-4.3426,-4.2777,-4.1863,-4.0666,-4.0008,-3.9371,-3.8782,-3.8782,0.0,0.0,-3.8202,-3.8202,-3.8202,-3.8202,-3.8202,-3.8202,-3.8202,-3.8202,-3.8202,-3.8202,-3.7926,-3.7578,-3.7578,-3.7128,-3.6519,-3.6069,-3.5357,-3.4704,-3.4704,-3.4559,-3.438,-3.4346,-3.3922,-3.3556,-3.3605,-3.2475,-3.1452,-3.1709,-3.0932,-3.0037,-2.9445,-2.9328,-2.9184,-2.859,-2.851,-2.851,-2.851,-2.851,-2.851,-2.851,-2.851,-2.851,-2.851,-2.781,-2.7366,-2.7366,-2.7366,-2.7294,-2.7138,-2.7138,-2.6885,-2.637,-2.6346,-2.6093,-2.5552,-2.554,-2.5468,-2.5312,-2.5312,-2.5312,-2.5312,-2.5312,-2.5312,-3.5504,-3.5504,-3.5504,-3.5504,-3.5504,-3.5504,-3.5504,-3.5504,-3.5504,-3.5504,-3.5504,-3.5504,-3.5504,-3.5504,-3.5701,-3.6305,-3.7569,-3.8965,-4.0312,0.0,0.0,0.0,0.0,0.0,0.0,0.0,0.0,0.0,0.0,0.0,-4.6846,-4.6127,-4.6056,-4.6777,-4.53,-4.451,-4.451,-4.3732,-4.3329,-4.3275,-4.2695,-4.2051,-4.1392,-4.0696,-3.9787,-3.8782,0.0,0.0,0.0,-3.8202,-3.8202,-3.8202,-3.8202,-3.8202,-3.8202,-3.8202,-3.8202,-3.8202,-3.8202,-3.8202,-3.8188,-3.8188,-3.7781,-3.7302,-3.7288,-3.6373,-3.5392,-3.5392,-3.4893,-3.4346,-3.4162,-3.3409,-3.2846,-3.3466,-3.1613,-2.9922,-3.0745,-2.9665,-2.851,-2.851,-2.851,-2.851,-2.851,-2.851,-2.851,-2.851,-2.851,-2.851,-2.851,-2.851,-2.851,-2.851,-2.8498,-2.8498,-2.8498,-2.8498,-2.827,-2.7753,-2.7678,-2.7438,-2.691,-2.6885,-2.6621,-2.6093,-2.6093,-2.5829,-2.5312,-2.5312,-2.5312,-2.5312,-2.5312,-2.5312,-3.5504,-3.5504,-3.5504,-3.5504,-3.5572,-3.5621,-3.5537,-3.5572,-3.5621,-3.5537,-3.5504,-3.5504,-3.5504,-3.5504,-3.5554,-3.5765,-3.6884,-3.8233,0.0,0.0,0.0,0.0,0.0,0.0,0.0,0.0,0.0,0.0,0.0,0.0,-4.6092,-4.5316,-4.4999,-4.5243,-4.422,-4.3669,-4.3669,-4.3448,-4.329,-4.329,-4.2671,-4.2051,-4.1392,-4.0696,-3.9802,0.0,0.0,0.0,0.0,-3.8202,-3.8202,-3.8202,-3.8202,-3.8202,-3.8202,-3.8202,-3.8202,-3.8202,-3.8202,-3.8202,-3.8202,-3.8202,-3.8072,-3.7926,-3.7926,-3.7027,-3.5923,-3.5523,-3.5261,-3.4848,-3.3772,-3.3101,-3.2618,-3.2259,-3.0908,-2.9781,-3.0037,-2.925,-2.851,-2.851,-2.851,-2.851,-2.851,-2.851,-2.851,-2.851,-2.851,-2.851,-2.851,-2.851,-2.851,-2.851,-2.851,-2.851,-2.851,-2.851,-2.8438,-2.827,-2.8258,-2.8029,-2.745,-2.7438,-2.7186,-2.6645,-2.6633,-2.6549,-2.6381,-2.6381,-2.6381,-2.6381,-2.6381,-2.6381,-3.5504,-3.5504,-3.5504,-3.5504,-3.5572,-3.5589,-3.5537,-3.5572,-3.5589,-3.5537,-3.5504,-3.5504,-3.5504,-3.5504,-3.5504,-3.5504,-3.68,-3.8116,0.0,0.0,0.0,0.0,0.0,0.0,0.0,0.0,0.0,0.0,0.0,0.0,-4.5295,-4.4774,-4.4373,-4.4066,-4.3551,-4.329,-4.329,-4.329,-4.329,-4.329,-4.2925,-4.2252,-4.1407,-4.095,-4.0114,0.0,0.0,0.0,0.0,-3.824,-3.8202,-3.8202,-3.8202,-3.8202,-3.8202,-3.8202,-3.8202,-3.8202,-3.8202,-3.8202,-3.8202,-3.8202,-3.8202,-3.8202,-3.8202,-3.7491,-3.6548,-3.5909,-3.5581,-3.5082,-3.3712,-3.2792,-3.2087,-3.1429,-3.0228,-2.9328,-2.9626,-2.9067,-2.851,-2.851,-2.851,-2.851,-2.851,-2.851,-2.851,-2.851,-2.851,-2.851,-2.851,-2.851,-2.851,-2.851,-2.851,-2.851,-2.851,-2.851,-2.851,-2.851,-2.851,-2.8366,-2.8029,-2.7978,-2.7726,-2.7198,-2.7198,-2.709,-2.6898,-2.6898,-2.6898,-2.6898,-2.6898,-2.6898,0.0,-3.5504,-3.5504,-3.5504,-3.5504,-3.5504,-3.5504,-3.5504,0.0,-3.5504,-3.5504,-3.5504,-3.5504,-3.5504,-3.5519,-3.5564,-3.7177,0.0,0.0,0.0,0.0,0.0,0.0,0.0,0.0,0.0,0.0,0.0,0.0,0.0,-4.4548,-4.445,-4.4066,-4.3329,-4.329,-4.329,-4.329,-4.329,-4.329,-4.329,-4.329,-4.2641,-4.1422,-4.1422,-4.0577,0.0,0.0,0.0,0.0,-3.8277,-3.8202,-3.8202,-3.8202,-3.8202,-3.8202,-3.8202,-3.8202,-3.8202,-3.8202,-3.8202,-3.8202,-3.8202,-3.8202,-3.8202,-3.8202,-3.781,-3.723,-3.6562,-3.5923,-3.5156,-3.3865,-3.2494,-3.1352,-3.0882,-2.9588,-2.8697,-2.9445,-2.904,-2.851,-2.851,-2.851,-2.851,-2.851,-2.851,-2.851,-2.851,-2.851,-2.851,-2.851,-2.851,-2.851,-2.851,-2.851,-2.851,-2.851,-2.851,-2.851,-2.851,-2.851,-2.851,-2.851,-2.851,-2.8282,-2.7789,-2.7777,-2.7498,-2.7006,-2.7006,-2.7006,-2.7006,-2.7006,-2.7006,-3.5504,0.0,-3.5504,-3.5504,-3.5504,-3.5504,0.0,-3.5504,-3.5504,-3.5504,0.0,-3.5504,-3.5504,-3.5504,-3.5669,-3.6178,-3.7064,0.0,0.0,0.0,0.0,0.0,0.0,0.0,0.0,0.0,0.0,0.0,0.0,-4.4699,-4.451,-4.3927,-4.3488,-4.329,-4.329,-4.329,-4.329,-4.329,-4.329,-4.329,-4.329,-4.2641,-4.1422,-4.1422,-4.0577,0.0,0.0,0.0,-3.8478,-3.8277,-3.8202,-3.8202,-3.8202,-3.8202,-3.8202,-3.8202,-3.8202,-3.8202,-3.8202,-3.8202,-3.8202,-3.8202,-3.8202,-3.8202,-3.8202,-3.8101,-3.7868,-3.7244,-3.6483,-3.5389,-3.3422,-3.2088,-3.0957,-2.9614,-2.8882,-2.855,-2.8736,-2.8618,-2.851,-2.851,-2.851,-2.851,-2.851,-2.851,-2.851,-2.851,-2.851,-2.851,-2.851,-2.851,-2.851,-2.851,-2.851,-2.851,-2.851,-2.851,-2.851,-2.851,-2.851,-2.851,-2.851,-2.851,-2.845,-2.833,-2.8318,-2.827,-2.8138,-2.8138,-2.8138,-2.8138,-2.8138,-2.8138,-3.5504,-3.5504,-3.5504,-3.5504,-3.5504,-3.5504,-3.5504,-3.5504,-3.5504,0.0,0.0,-3.5504,-3.5504,-3.5504,-3.5729,-3.6372,-3.7303,0.0,0.0,0.0,0.0,0.0,0.0,0.0,0.0,0.0,0.0,0.0,0.0,-4.3966,-4.3966,-4.3551,-4.329,-4.329,-4.329,-4.329,-4.329,-4.329,-4.329,-4.329,-4.329,-4.2641,-4.1422,-4.1422,-4.0614,0.0,0.0,0.0,-3.8612,-3.8315,-3.8202,-3.8202,-3.8202,-3.8202,-3.8202,-3.8202,-3.8202,-3.8202,-3.8202,-3.8202,-3.8202,-3.8202,-3.8202,-3.8202,-3.8202,-3.7924,-3.7625,-3.7684,-3.681,-3.5386,-3.3512,-3.1998,-3.0612,-2.9049,-2.8578,-2.851,-2.851,-2.851,-2.851,-2.851,-2.851,-2.851,-2.851,-2.851,-2.851,-2.851,-2.851,-2.851,-2.851,-2.851,-2.851,-2.851,-2.851,-2.851,-2.851,-2.851,-2.851,-2.851,-2.851,-2.851,-2.851,-2.851,-2.851,-2.851,-2.851,-2.851,-2.851,-2.851,-2.851,-2.851,-2.851,-2.851,-3.5504,-3.5504,-3.5504,-3.5504,-3.5504,-3.5504,-3.5504,0.0,0.0,0.0,0.0,0.0,0.0,-3.5594,0.0,0.0,0.0,0.0,0.0,0.0,0.0,0.0,0.0,0.0,0.0,0.0,0.0,0.0,0.0,-4.329,-4.329,-4.329,-4.329,-4.329,-4.329,-4.329,-4.329,-4.329,-4.329,-4.329,-4.329,-4.2641,-4.1422,-4.1422,-4.0666,-3.9388,0.0,0.0,-3.8745,-3.8352,-3.8202,-3.8202,-3.8202,-3.8202,-3.8202,-3.8202,-3.8202,-3.8202,-3.8202,-3.8202,-3.8202,-3.8202,-3.8202,-3.8202,-3.8202,-3.7606,-3.7053,-3.781,-3.6741,-3.5038,-3.3696,-3.2045,-3.0394,-2.8955,-2.857,-2.851,-2.851,-2.851,-2.851,-2.851,-2.851,-2.851,-2.851,-2.851,-2.851,-2.851,-2.851,-2.851,-2.851,-2.851,-2.851,-2.851,-2.851,-2.851,-2.851,-2.851,-2.851,-2.851,-2.851,-2.851,-2.851,-2.851,-2.851,-2.851,-2.851,-2.851,-2.851,-2.851,-2.851,-2.851,-2.851,-2.851,-3.5504,-3.5504,-3.5504,-3.5504,-3.5504,-3.5504,-3.5504,-3.5504,0.0,0.0,0.0,0.0,0.0,0.0,0.0,0.0,0.0,0.0,0.0,0.0,0.0,0.0,0.0,0.0,0.0,0.0,0.0,0.0,0.0,-4.329,-4.329,-4.329,-4.329,-4.329,-4.329,-4.329,-4.329,-4.329,-4.329,-4.329,-4.329,-4.2641,-4.1422,-4.1422,-4.0666,-3.9388,0.0,-3.8782,-3.8745,-3.8352,-3.8202,-3.8202,-3.8202,-3.8202,-3.8202,-3.8202,-3.8202,-3.8202,-3.8202,-3.8202,-3.8202,-3.8202,-3.8202,-3.8202,-3.8202,-3.7606,-3.6936,-3.7053,-3.576,-3.4126,-3.3203,-3.1758,-3.0308,-2.9387,-2.8835,-2.851,-2.851,-2.851,-2.851,-2.851,-2.851,-2.851,-2.851,-2.851,-2.851,-2.851,-2.851,-2.851,-2.851,-2.851,-2.851,-2.851,-2.851,-2.851,-2.851,-2.851,-2.851,-2.851,-2.851,-2.851,-2.851,-2.851,-2.851,-2.851,-2.851,-2.851,-2.851,-2.851,-2.851,-2.851,-2.851,-2.851,-3.5504,-3.5504,-3.5504,-3.5504,-3.5504,-3.5504,-3.5504,-3.5504,0.0,0.0,0.0,0.0,0.0,0.0,0.0,0.0,0.0,0.0,0.0,0.0,0.0,0.0,0.0,0.0,0.0,0.0,0.0,0.0,0.0,0.0,-4.329,-4.329,-4.329,-4.329,-4.329,-4.329,-4.329,-4.329,-4.329,-4.329,-4.329,-4.2641,-4.1422,-4.1422,-4.0666,-3.9388,0.0,-3.8782,-3.8745,-3.8352,-3.8202,-3.8202,-3.8202,-3.8202,-3.8202,-3.8202,-3.8202,-3.8202,-3.8202,-3.8202,-3.8202,-3.8202,-3.8202,-3.8202,-3.8202,-3.7271,-3.6148,-3.6082,-3.4982,-3.3738,-3.307,-3.18,-3.0477,-2.9506,-2.9112,-2.8859,-2.857,-2.851,-2.851,-2.851,-2.851,-2.851,-2.851,-2.851,-2.851,-2.851,-2.851,-2.851,-2.851,-2.851,-2.851,-2.851,-2.851,-2.851,-2.851,-2.851,-2.851,-2.851,-2.851,-2.851,-2.851,-2.851,-2.851,-2.851,-2.851,-2.851,-2.851,-2.851,-2.851,-2.851,-2.851,-2.851,-3.5504,-3.5504,-3.5504,-3.5504,-3.5504,-3.5504,-3.5504,-3.5504,0.0,0.0,0.0,0.0,0.0,0.0,0.0,0.0,0.0,0.0,0.0,0.0,0.0,0.0,0.0,0.0,0.0,0.0,0.0,0.0,0.0,0.0,-4.329,-4.329,-4.329,-4.329,-4.329,-4.329,-4.329,-4.329,-4.329,-4.329,-4.329,-4.2641,-4.1422,-4.1422,-4.0629,-3.9301,-3.8943,-3.8745,-3.8686,-3.8352,-3.8202,-3.8202,-3.8202,-3.8202,-3.8202,-3.8202,-3.8202,-3.8202,-3.8202,-3.8202,-3.8202,-3.8202,-3.8037,-3.7924,-3.8127,-3.683,-3.5305,-3.5305,-3.4361,-3.3289,-3.2815,-3.1783,-3.0639,-2.9701,-2.9388,-2.916,-2.8619,-2.851,-2.851,-2.851,-2.851,-2.851,-2.851,-2.851,-2.851,-2.851,-2.851,-2.851,-2.851,-2.851,-2.851,-2.851,-2.851,-2.851,-2.851,-2.851,-2.851,-2.851,-2.851,-2.851,-2.851,-2.851,-2.851,-2.851,-2.851,-2.851,-2.851,-2.851,-2.851,-2.851,-2.851,-2.851,-3.5504,-3.5504,-3.5504,-3.5504,-3.5504,-3.5504,-3.5504,-3.5504,0.0,-3.6297,0.0,0.0,0.0,0.0,0.0,0.0,0.0,0.0,0.0,0.0,0.0,0.0,0.0,0.0,0.0,0.0,0.0,0.0,0.0,0.0,-4.329,-4.329,-4.329,-4.329,-4.329,-4.329,-4.329,-4.329,-4.329,-4.329,-4.329,-4.2641,-4.1422,-4.1422,-4.0577,-3.9104,-3.8907,-3.8686,-3.8516,-3.8277,-3.8202,-3.8202,-3.8202,-3.8202,-3.8202,-3.8202,-3.8202,-3.8202,-3.8202,-3.8202,-3.8202,-3.8202,-3.7644,-3.713,-3.7962,-3.6452,-3.4592,-3.5156,-3.3927,-3.2419,-3.2152,-3.1513,-3.0778,-3.017,-2.9653,-2.916,-2.8619,-2.851,-2.851,-2.851,-2.851,-2.851,-2.851,-2.851,-2.851,-2.851,-2.851,-2.851,-2.851,-2.851,-2.851,-2.851,-2.851,-2.851,-2.851,-2.851,-2.851,-2.851,-2.851,-2.851,-2.851,-2.851,-2.851,-2.851,-2.851,-2.851,-2.851,-2.851,-2.851,-2.851,-2.851,-2.851,-3.5504,-3.5504,-3.5504,-3.5504,-3.5504,0.0,0.0,-3.5818,-3.6193,-3.6432,-3.6791,0.0,0.0,0.0,0.0,0.0,0.0,0.0,0.0,0.0,0.0,0.0,0.0,0.0,0.0,0.0,0.0,0.0,0.0,0.0,-4.329,-4.329,-4.329,-4.329,-4.329,-4.329,-4.329,-4.329,-4.329,-4.329,-4.329,-4.2641,-4.1422,-4.1422,-4.0577,-3.9104,-3.8907,-3.8686,-3.8478,-3.8277,-3.8202,-3.8202,-3.8202,-3.8202,-3.8202,-3.8202,-3.8202,-3.8202,-3.8202,-3.8202,-3.8202,-3.8202,-3.7606,-3.6975,-3.7285,-3.5976,-3.4384,-3.4332,-3.3403,-3.2356,-3.2081,-3.1704,-3.1199,-3.029,-2.9941,-2.9556,-2.8691,-2.851,-2.851,-2.851,-2.851,-2.851,-2.851,-2.851,-2.851,-2.851,-2.851,-2.851,-2.851,-2.851,-2.851,-2.851,-2.851,-2.851,-2.851,-2.851,-2.851,-2.851,-2.851,-2.851,-2.851,-2.851,-2.851,-2.851,-2.851,-2.851,-2.851,-2.851,-2.851,-2.851,-2.851,-2.851,-3.5326,-3.5326,-3.5326,-3.5392,0.0,0.0,-3.5818,-3.6163,-3.6596,-3.7015,-3.7599,0.0,0.0,0.0,0.0,0.0,0.0,0.0,0.0,0.0,0.0,0.0,0.0,0.0,0.0,0.0,0.0,0.0,0.0,0.0,0.0,-4.329,-4.329,-4.329,-4.329,-4.329,-4.329,-4.329,-4.329,-4.329,-4.329,-4.2641,-4.1422,-4.1422,-4.0539,-3.898,-3.887,-3.8649,-3.8404,-3.824,-3.8202,-3.8202,-3.8202,-3.8202,-3.8202,-3.8202,-3.8202,-3.8202,-3.8202,-3.8202,-3.8165,-3.7886,-3.7208,-3.6478,-3.6478,-3.5332,-3.3937,-3.3759,-3.3074,-3.23,-3.1981,-3.1805,-3.1488,-3.0585,-3.0206,-2.9845,-2.8955,-2.8631,-2.851,-2.851,-2.851,-2.851,-2.851,-2.851,-2.851,-2.851,-2.851,-2.851,-2.851,-2.851,-2.851,-2.851,-2.851,-2.851,-2.851,-2.851,-2.851,-2.851,-2.851,-2.851,-2.851,-2.851,-2.851,-2.851,-2.851,-2.851,-2.851,-2.851,-2.851,-2.851,-2.851,-2.851,-3.4902,-3.4902,-3.4935,0.0,0.0,0.0,-3.6458,-3.6492,-3.6866,-3.8138,0.0,-3.9388,-3.9388,0.0,0.0,0.0,0.0,0.0,0.0,0.0,0.0,0.0,0.0,0.0,0.0,0.0,0.0,0.0,0.0,0.0,0.0,-4.329,-4.329,-4.329,-4.329,-4.329,-4.329,-4.329,-4.329,-4.329,-4.329,-4.2641,-4.1422,-4.1422,-4.045,-3.8782,-3.8782,-3.8575,-3.8202,-3.8202,-3.8202,-3.8202,-3.8202,-3.8202,-3.8202,-3.8202,-3.8202,-3.8202,-3.8202,-3.8202,-3.8037,-3.7169,-3.632,-3.5615,-3.5615,-3.4428,-3.3197,-3.3602,-3.3074,-3.23,-3.1793,-3.1705,-3.1573,-3.1043,-3.047,-2.9941,-2.9412,-2.8883,-2.851,-2.851,-2.851,-2.851,-2.851,-2.851,-2.851,-2.851,-2.851,-2.851,-2.851,-2.851,-2.851,-2.851,-2.851,-2.851,-2.851,-2.851,-2.851,-2.851,-2.851,-2.851,-2.851,-2.851,-2.851,-2.851,-2.851,-2.851,-2.851,-2.851,-2.851,-2.851,-2.851,-2.851,-3.4902,-3.4902,0.0,-3.4968,0.0,0.0,0.0,-3.744,0.0,0.0,-3.9239,-3.9388,-3.9388,0.0,0.0,0.0,0.0,0.0,0.0,0.0,0.0,0.0,0.0,0.0,0.0,0.0,0.0,0.0,0.0,0.0,0.0,-4.329,-4.329,-4.329,-4.329,-4.329,-4.329,-4.3155,-4.3155,-4.329,-4.2693,-4.2037,-4.1422,-4.1422,-4.045,-3.8782,-3.8782,-3.8575,-3.8202,-3.8202,-3.8202,-3.8202,-3.8202,-3.8202,-3.8202,-3.8202,-3.8202,-3.8202,-3.8202,-3.8202,-3.8165,-3.7886,-3.683,-3.5615,-3.5615,-3.429,-3.2797,-3.2797,-3.2463,-3.2038,-3.1749,-3.1705,-3.1573,-3.1043,-3.047,-2.9941,-2.9412,-2.8883,-2.851,-2.851,-2.851,-2.851,-2.851,-2.851,-2.851,-2.851,-2.851,-2.851,-2.851,-2.851,-2.851,-2.851,-2.851,-2.851,-2.851,-2.851,-2.851,-2.851,-2.851,-2.851,-2.851,-2.851,-2.851,-2.851,-2.851,-2.851,-2.851,-2.851,-2.851,-2.851,-2.851,-2.851,-3.4702,-3.4702,0.0,-3.511,-3.5668,-3.6492,-3.7688,0.0,0.0,0.0,0.0,0.0,0.0,0.0,0.0,0.0,0.0,0.0,0.0,0.0,0.0,0.0,0.0,0.0,0.0,0.0,0.0,0.0,0.0,0.0,0.0,-4.329,-4.329,-4.329,-4.321,-4.321,-4.329,-4.3115,-4.2981,-4.294,-4.2419,-4.1709,-4.0868,-4.0868,-4.0137,-3.8782,-3.8634,-3.8427,-3.8202,-3.8202,-3.8202,-3.8202,-3.8202,-3.8202,-3.8202,-3.8202,-3.8202,-3.8202,-3.8202,-3.8202,-3.8089,-3.74,-3.6464,-3.5453,-3.4692,-3.3645,-3.2636,-3.2344,-3.2125,-3.1937,-3.1761,-3.1705,-3.1633,-3.1308,-3.0669,-3.0001,-2.9677,-2.9027,-2.851,-2.851,-2.851,-2.851,-2.851,-2.851,-2.851,-2.851,-2.851,-2.851,-2.851,-2.851,-2.851,-2.851,-2.851,-2.851,-2.851,-2.851,-2.851,-2.851,-2.851,-2.851,-2.851,-2.851,-2.851,-2.851,-2.851,-2.851,-2.851,-2.851,-2.851,-2.851,-2.851,-2.851,-3.4414,0.0,0.0,-3.5375,-3.6146,0.0,0.0,0.0,0.0,0.0,0.0,0.0,0.0,0.0,0.0,0.0,0.0,0.0,0.0,0.0,0.0,0.0,0.0,0.0,0.0,0.0,0.0,0.0,0.0,0.0,0.0,-4.325,-4.325,-4.325,-4.3076,-4.3076,-4.325,-4.3036,-4.2748,-4.2318,-4.2258,-4.1441,-4.0085,-4.007,-3.9602,-3.8745,-3.8352,-3.8202,-3.8202,-3.8202,-3.8202,-3.8202,-3.8202,-3.8202,-3.8202,-3.8202,-3.8202,-3.8202,-3.8202,-3.8165,-3.7796,-3.6227,-3.5628,-3.5142,-3.336,-3.2754,-3.2593,-3.2113,-3.1994,-3.195,-3.1761,-3.1705,-3.1705,-3.1705,-3.0898,-3.0086,-3.0086,-2.9256,-2.851,-2.851,-2.851,-2.851,-2.851,-2.851,-2.851,-2.851,-2.851,-2.851,-2.851,-2.851,-2.851,-2.851,-2.851,-2.851,-2.851,-2.851,-2.851,-2.851,-2.851,-2.851,-2.851,-2.851,-2.851,-2.851,-2.851,-2.851,-2.851,-2.851,-2.851,-2.851,-2.851,-2.8471,-3.4414,-3.4414,0.0,0.0,-3.6426,0.0,0.0,0.0,0.0,0.0,0.0,0.0,0.0,0.0,0.0,0.0,0.0,0.0,0.0,0.0,0.0,0.0,0.0,0.0,0.0,0.0,0.0,0.0,0.0,0.0,-4.329,-4.301,-4.289,-4.3076,-4.2875,-4.2809,-4.2809,-4.2622,-4.2298,0.0,-4.116,-4.0512,-3.9874,-4.0047,-3.9528,-3.8553,-3.8315,-3.8202,-3.8202,-3.8202,-3.8202,-3.8202,-3.8202,-3.8202,-3.8202,-3.8202,-3.8202,-3.8202,-3.8202,-3.7758,-3.713,-3.6727,-3.5736,-3.4538,-3.3927,-3.3116,-3.2388,-3.2081,-3.1893,-3.1749,-3.1705,-3.1705,-3.1705,-3.1705,-3.0898,-3.0086,-3.0086,-2.9256,-2.851,-2.851,-2.851,-2.851,-2.851,-2.851,-2.851,-2.851,-2.851,-2.851,-2.851,-2.851,-2.851,-2.851,-2.851,-2.851,-2.851,-2.851,-2.851,-2.851,-2.851,-2.851,-2.851,-2.851,-2.851,-2.851,-2.851,-2.851,-2.851,-2.851,-2.851,-2.851,-2.851,-2.8139,-3.3825,0.0,0.0,-3.5575,0.0,0.0,0.0,0.0,0.0,0.0,0.0,0.0,0.0,0.0,0.0,0.0,0.0,0.0,0.0,0.0,0.0,0.0,0.0,0.0,0.0,0.0,0.0,0.0,0.0,-4.289,-4.301,-4.2809,-4.2729,-4.2835,-4.2648,-4.2622,-4.2688,-4.2177,-4.1708,-4.1258,-4.0479,-3.9795,-3.9178,-3.929,-3.8987,-3.8366,-3.824,-3.8202,-3.8202,-3.8202,-3.8202,-3.8202,-3.8202,-3.8202,-3.8202,-3.8202,-3.8202,-3.8127,-3.772,-3.7285,-3.678,-3.595,-3.5114,-3.4259,-3.3488,-3.2828,-3.23,-3.1937,-3.1761,-3.1705,-3.1705,-3.1705,-3.1705,-3.1705,-3.0898,-3.0086,-3.0086,-2.9256,-2.851,-2.851,-2.851,-2.851,-2.851,-2.851,-2.851,-2.851,-2.851,-2.851,-2.851,-2.851,-2.851,-2.851,-2.851,-2.851,-2.851,-2.851,-2.851,-2.851,-2.851,-2.851,-2.851,-2.851,-2.851,-2.851,-2.851,-2.851,-2.851,-2.851,-2.851,-2.851,-2.851,-2.8259,-3.3178,0.0,-3.4994,-3.604,-3.7259,0.0,0.0,0.0,0.0,0.0,0.0,0.0,0.0,0.0,0.0,0.0,0.0,0.0,0.0,0.0,0.0,0.0,0.0,0.0,0.0,0.0,0.0,0.0,0.0,-4.2648,-4.2688,-4.2607,-4.2622,-4.2662,-4.2474,-4.2374,-4.2405,-4.1701,-4.1056,-4.0518,-3.9818,-3.9155,-3.8441,-3.8441,-3.8366,-3.8202,-3.8202,-3.8202,-3.8202,-3.8202,-3.8202,-3.8202,-3.8202,-3.8202,-3.8202,-3.8202,-3.8202,-3.8089,-3.7208,-3.6805,-3.6413,-3.4909,-3.4314,-3.3937,-3.2779,-3.24,-3.23,-3.1849,-3.1705,-3.1705,-3.1705,-3.1705,-3.1705,-3.1705,-3.097,-3.0194,-3.011,-2.9328,-2.8619,-2.8522,-2.851,-2.851,-2.851,-2.851,-2.851,-2.851,-2.851,-2.851,-2.851,-2.851,-2.851,-2.851,-2.851,-2.851,-2.851,-2.851,-2.851,-2.851,-2.851,-2.851,-2.851,-2.851,-2.851,-2.851,-2.851,-2.851,-2.851,-2.851,-2.851,-2.851,-2.851,-2.8431,0.0,0.0,-3.6098,0.0,-3.7259,0.0,0.0,0.0,0.0,0.0,0.0,0.0,0.0,0.0,0.0,0.0,0.0,0.0,0.0,0.0,0.0,0.0,0.0,0.0,0.0,0.0,0.0,0.0,-4.2433,-4.2514,-4.2688,-4.2351,-4.2242,-4.2433,-4.2242,-4.1857,-4.1302,-4.1215,-4.0575,-3.9397,-3.8728,-3.8364,-3.824,-3.824,-3.824,-3.8202,-3.8202,-3.8202,-3.8202,-3.8202,-3.8202,-3.8202,-3.8202,-3.8202,-3.8202,-3.8202,-3.8202,-3.8089,-3.7208,-3.6399,-3.5628,-3.4703,-3.3907,-3.3154,-3.2562,-3.24,-3.23,-3.1849,-3.1705,-3.1705,-3.1705,-3.1705,-3.1705,-3.1705,-3.1247,-3.0694,-3.0194,-2.9617,-2.9051,-2.8595,-2.851,-2.851,-2.851,-2.851,-2.851,-2.851,-2.851,-2.851,-2.851,-2.851,-2.851,-2.851,-2.851,-2.851,-2.851,-2.851,-2.851,-2.851,-2.851,-2.851,-2.851,-2.851,-2.851,-2.851,-2.851,-2.851,-2.851,-2.851,-2.851,-2.851,-2.851,-2.8099,-3.2897,-3.4468,-3.5865,0.0,-3.7012,0.0,0.0,0.0,0.0,0.0,0.0,0.0,0.0,0.0,0.0,0.0,0.0,0.0,0.0,0.0,0.0,0.0,0.0,0.0,0.0,0.0,0.0,0.0,-4.2242,-4.2284,-4.2351,-4.2216,-4.1959,-4.1689,-4.1567,-4.1221,-4.0539,-4.0205,-3.9567,-3.8638,-3.8347,-3.8202,-3.8202,-3.8202,-3.8202,-3.8202,-3.8202,-3.8202,-3.8202,-3.8202,-3.8202,-3.8202,-3.8202,-3.8202,-3.8202,-3.8202,-3.8202,-3.8,-3.6635,-3.5909,-3.5386,-3.4092,-3.3411,-3.2995,-3.2519,-3.24,-3.23,-3.1849,-3.1705,-3.1705,-3.1705,-3.1705,-3.1705,-3.1705,-3.1524,-3.1211,-3.0639,-3.011,-2.9677,-2.9436,-2.916,-2.8955,-2.8955,-2.8703,-2.851,-2.851,-2.851,-2.851,-2.851,-2.851,-2.851,-2.851,-2.851,-2.851,-2.851,-2.851,-2.851,-2.851,-2.851,-2.851,-2.851,-2.851,-2.851,-2.851,-2.851,-2.851,-2.851,-2.851,-2.851,-2.851,-2.851,-2.8299,0.0,0.0,-3.4982,-3.5806,0.0,0.0,0.0,0.0,0.0,0.0,0.0,0.0,0.0,0.0,0.0,0.0,0.0,0.0,0.0,0.0,0.0,0.0,0.0,0.0,0.0,0.0,0.0,0.0,-4.199,-4.202,-4.1845,-4.1845,-4.1541,-4.0858,-4.0844,-4.0525,-3.9871,-3.9262,-3.8696,-3.8202,-3.8202,-3.8202,-3.8202,-3.8202,-3.8202,-3.8202,-3.8202,-3.8202,-3.8202,-3.8202,-3.8202,-3.8202,-3.8202,-3.8202,-3.8202,-3.8202,-3.8202,-3.7962,-3.6188,-3.5615,-3.5305,-3.3641,-3.3124,-3.3038,-3.2605,-3.2431,-3.23,-3.1893,-3.1749,-3.1705,-3.1705,-3.1705,-3.1705,-3.1705,-3.1705,-3.156,-3.1031,-3.0458,-3.0086,-3.0086,-2.9773,-2.9496,-2.9496,-2.9063,-2.8703,-2.8703,-2.8595,-2.851,-2.851,-2.851,-2.851,-2.851,-2.851,-2.851,-2.851,-2.851,-2.851,-2.851,-2.851,-2.851,-2.851,-2.851,-2.851,-2.851,-2.851,-2.851,-2.851,-2.851,-2.851,-2.851,-2.8259,-2.8179,0.0,-3.2064,0.0,-3.4904,0.0,0.0,0.0,0.0,0.0,0.0,0.0,0.0,0.0,0.0,0.0,0.0,0.0,0.0,0.0,0.0,0.0,0.0,0.0,0.0,0.0,0.0,0.0,0.0,-4.1744,-4.1816,-4.1192,-4.1149,-4.0844,-4.0176,-4.0147,-3.9857,-3.9247,-3.8594,-3.8231,-3.8202,-3.8202,-3.8202,-3.8202,-3.8202,-3.8202,-3.8202,-3.8202,-3.8202,-3.8202,-3.8202,-3.8202,-3.8202,-3.8202,-3.8202,-3.8202,-3.8202,-3.8202,-3.7962,-3.6188,-3.5615,-3.5305,-3.3641,-3.3124,-3.3038,-3.2766,-3.255,-3.2344,-3.2081,-3.1849,-3.1705,-3.1705,-3.1705,-3.1705,-3.1705,-3.1705,-3.156,-3.1031,-3.0458,-3.0086,-3.0086,-3.0062,-3.005,-3.005,-2.9605,-2.9256,-2.9256,-2.8835,-2.851,-2.851,-2.851,-2.851,-2.851,-2.851,-2.851,-2.851,-2.851,-2.851,-2.851,-2.851,-2.851,-2.851,-2.851,-2.851,-2.851,-2.851,-2.851,-2.851,-2.851,-2.851,-2.8471,-2.7644,-2.7267,0.0,0.0,0.0,-3.3555,0.0,0.0,0.0,0.0,0.0,0.0,0.0,0.0,0.0,0.0,0.0,0.0,0.0,0.0,0.0,0.0,0.0,0.0,0.0,0.0,0.0,0.0,0.0,0.0,0.0,-4.0713,-4.0466,-4.0452,-4.0176,-3.9538,-3.9523,-3.9218,-3.8565,-3.8318,-3.8202,-3.8202,-3.8202,-3.8202,-3.8202,-3.8202,-3.8202,-3.8202,-3.8202,-3.8202,-3.8202,-3.8202,-3.8202,-3.8202,-3.8202,-3.8202,-3.8202,-3.8202,-3.8202,-3.7962,-3.6188,-3.5615,-3.5305,-3.3641,-3.3124,-3.3038,-3.2649,-3.2475,-3.23,-3.1937,-3.1761,-3.1705,-3.1705,-3.1705,-3.1705,-3.1705,-3.1705,-3.1657,-3.1464,-3.1271,-3.1139,-3.1139,-3.0874,-3.0591,-3.0591,-3.0158,-2.9797,-2.9797,-2.9352,-2.9015,-2.9015,-2.8727,-2.851,-2.851,-2.851,-2.851,-2.851,-2.851,-2.851,-2.851,-2.851,-2.851,-2.851,-2.851,-2.851,-2.851,-2.851,-2.851,-2.851,-2.7926,-2.7684,-2.7632,-2.6712,-2.6287,-3.0507,0.0,0.0,0.0,0.0,0.0,0.0,0.0,0.0,0.0,0.0,0.0,0.0,0.0,0.0,0.0,0.0,0.0,0.0,0.0,0.0,0.0,0.0,0.0,0.0,0.0,0.0,0.0,0.0,0.0,-3.9813,-3.9799,-3.9509,-3.8884,-3.887,-3.8652,-3.8202,-3.8202,-3.8202,-3.8202,-3.8202,-3.8202,-3.8202,-3.8202,-3.8202,-3.8202,-3.8202,-3.8202,-3.8202,-3.8202,-3.8202,-3.8165,-3.7886,-3.7772,-3.772,-3.7438,-3.7309,-3.7116,-3.5682,-3.5196,-3.4965,-3.3556,-3.3124,-3.3038,-3.2605,-3.2431,-3.23,-3.1893,-3.1761,-3.1705,-3.1705,-3.1705,-3.1705,-3.1705,-3.1705,-3.1705,-3.1705,-3.1705,-3.1705,-3.1705,-3.1428,-3.1187,-3.1187,-3.0699,-3.035,-3.035,-2.9905,-2.9496,-2.9316,-2.8991,-2.8703,-2.8522,-2.851,-2.851,-2.851,-2.851,-2.851,-2.851,-2.851,-2.851,-2.851,-2.851,-2.851,-2.851,-2.851,-2.851,-2.851,-2.7926,-2.7644,-2.7603,-2.637,-2.5484,0.0,0.0,0.0,0.0,0.0,0.0,-3.4618,0.0,0.0,0.0,0.0,0.0,0.0,0.0,0.0,0.0,0.0,0.0,0.0,0.0,0.0,0.0,0.0,0.0,0.0,0.0,0.0,0.0,-3.9712,-3.9784,-3.9204,-3.9175,-3.887,-3.8217,-3.8202,-3.8202,-3.8202,-3.8202,-3.8202,-3.8202,-3.8202,-3.8202,-3.8202,-3.8202,-3.8202,-3.8202,-3.8202,-3.8202,-3.8202,-3.8202,-3.8202,-3.8127,-3.7246,-3.6936,-3.6805,-3.5949,-3.5615,-3.5494,-3.4662,-3.4397,-3.4272,-3.3368,-3.3124,-3.3038,-3.2766,-3.255,-3.2344,-3.2081,-3.1849,-3.1705,-3.1705,-3.1705,-3.1705,-3.1705,-3.1705,-3.1705,-3.1705,-3.1705,-3.1705,-3.1705,-3.1705,-3.1705,-3.1705,-3.1284,-3.0946,-3.0946,-3.0446,-2.9929,-2.9412,-2.9316,-2.91,-2.8595,-2.8522,-2.851,-2.851,-2.851,-2.851,-2.851,-2.851,-2.851,-2.851,-2.851,-2.851,-2.851,-2.851,-2.851,-2.851,-2.8471,-2.8471,-2.8431,-2.6618,-2.4861,-2.9792,0.0,0.0,0.0,0.0,0.0,-3.2564,-3.3812,-3.4868,0.0,0.0,0.0,0.0,0.0,0.0,0.0,0.0,0.0,0.0,0.0,0.0,0.0,0.0,0.0,0.0,0.0,0.0,0.0,-3.8638,-3.8652,-3.8492,-3.8478,-3.8391,-3.8217,-3.8202,-3.8202,-3.8202,-3.8202,-3.8202,-3.8202,-3.8202,-3.8202,-3.8202,-3.8202,-3.8202,-3.8202,-3.8202,-3.8202,-3.8202,-3.8202,-3.8202,-3.8165,-3.7924,-3.7453,-3.6858,-3.6649,-3.6148,-3.5494,-3.4662,-3.4397,-3.4272,-3.3368,-3.3124,-3.3025,-3.2605,-3.2431,-3.23,-3.1893,-3.1749,-3.1705,-3.1705,-3.1705,-3.1705,-3.1705,-3.1705,-3.1705,-3.1705,-3.1705,-3.1705,-3.1705,-3.1705,-3.1705,-3.1705,-3.1585,-3.1488,-3.1488,-3.1043,-3.0645,-3.0458,-2.9773,-2.9244,-2.9088,-2.8739,-2.851,-2.851,-2.851,-2.851,-2.851,-2.851,-2.851,-2.851,-2.851,-2.851,-2.851,-2.851,-2.851,-2.851,-2.7886,-2.7551,-2.751,-2.6329,-2.5526,-2.9792,0.0,0.0,0.0,0.0,0.0,-3.1339,-3.2383,-3.3397,0.0,0.0,0.0,0.0,0.0,0.0,0.0,0.0,0.0,0.0,0.0,0.0,0.0,0.0,0.0,0.0,-3.8202,-3.8202,-3.8202,-3.8202,-3.8202,-3.8202,-3.8202,-3.8202,-3.8202,-3.8202,-3.8202,-3.8202,-3.8202,-3.8202,-3.8202,-3.8202,-3.8202,-3.8202,-3.8202,-3.8202,-3.8202,-3.8202,-3.8202,-3.8202,-3.8202,-3.8202,-3.8165,-3.781,-3.7376,-3.6819,-3.6096,-3.5534,-3.4965,-3.4134,-3.3865,-3.3781,-3.3283,-3.3124,-3.3038,-3.2649,-3.2475,-3.23,-3.1937,-3.1761,-3.1705,-3.1705,-3.1705,-3.1705,-3.1705,-3.1705,-3.1705,-3.1705,-3.1705,-3.1705,-3.1705,-3.1705,-3.1705,-3.1705,-3.1705,-3.1705,-3.1705,-3.144,-3.1163,-3.0946,-3.0338,-2.9785,-2.9352,-2.9027,-2.8751,-2.8522,-2.851,-2.851,-2.851,-2.851,-2.851,-2.851,-2.851,-2.851,-2.851,-2.851,-2.851,-2.851,-2.8007,-2.7551,-2.7185,-2.6629,-2.6163,0.0,0.0,0.0,0.0,-2.9792,0.0,-3.062,-3.1313,-3.1973,-3.2581,0.0,0.0,0.0,0.0,0.0,0.0,0.0,0.0,0.0,0.0,0.0,0.0,0.0,0.0,-3.8202,-3.8202,-3.8202,-3.8202,-3.8202,-3.8202,-3.8202,-3.8202,-3.8202,-3.8202,-3.8202,-3.8202,-3.8202,-3.8202,-3.8202,-3.8202,-3.8202,-3.8202,-3.8202,-3.8202,-3.8202,-3.8202,-3.8202,-3.8165,-3.8037,-3.8037,-3.8127,-3.8127,-3.7376,-3.6936,-3.657,-3.5073,-3.4439,-3.4147,-3.3368,-3.3124,-3.3124,-3.3124,-3.3124,-3.3038,-3.2766,-3.255,-3.2356,-3.2038,-3.1849,-3.1705,-3.1705,-3.1705,-3.1705,-3.1705,-3.1705,-3.1705,-3.1705,-3.1705,-3.1705,-3.1705,-3.1705,-3.1705,-3.1705,-3.1705,-3.1705,-3.1705,-3.1705,-3.1536,-3.1067,-3.0958,-3.0506,-2.9581,-2.9424,-2.9172,-2.8643,-2.8595,-2.857,-2.851,-2.851,-2.851,-2.851,-2.851,-2.851,-2.851,-2.851,-2.851,-2.851,-2.851,-2.8099,-2.7348,-2.7348,-2.6887,0.0,0.0,0.0,0.0,0.0,0.0,-2.996,-3.0572,-3.1095,0.0,0.0,0.0,0.0,0.0,0.0,0.0,0.0,0.0,0.0,0.0,0.0,0.0,0.0,0.0,-3.8202,-3.8202,-3.8202,-3.8202,-3.8202,-3.8202,-3.8202,-3.8202,-3.8202,-3.8202,-3.8202,-3.8202,-3.8202,-3.8202,-3.8202,-3.8202,-3.8202,-3.8202,-3.8202,-3.8202,-3.8202,-3.8202,-3.8202,-3.781,-3.713,-3.713,-3.7567,-3.8165,-3.8,-3.7078,-3.5829,-3.5507,-3.4524,-3.3326,-3.3167,-3.3124,-3.3124,-3.3124,-3.3124,-3.3038,-3.2766,-3.255,-3.23,-3.1893,-3.1705,-3.1705,-3.1705,-3.1705,-3.1705,-3.1705,-3.1705,-3.1705,-3.1705,-3.1705,-3.1705,-3.1705,-3.1705,-3.1705,-3.1705,-3.1705,-3.1705,-3.1705,-3.1705,-3.1669,-3.1573,-3.1187,-3.0838,-3.0591,-3.0194,-2.9725,-2.9184,-2.9136,-2.8967,-2.8534,-2.851,-2.851,-2.851,-2.851,-2.851,-2.851,-2.851,-2.851,-2.851,-2.851,-2.8431,-2.8259,-2.8259,-2.8139,0.0,0.0,0.0,-3.0269,0.0,0.0,0.0,-3.0113,-3.0394,0.0,0.0,0.0,0.0,0.0,0.0,0.0,0.0,0.0,0.0,0.0,0.0,0.0,0.0,0.0,-3.8202,-3.8202,-3.8202,-3.8202,-3.8202,-3.8202,-3.8202,-3.8202,-3.8202,-3.8202,-3.8202,-3.8202,-3.8202,-3.8202,-3.8202,-3.8202,-3.8202,-3.8202,-3.8202,-3.8202,-3.8202,-3.8202,-3.8202,-3.7962,-3.7529,-3.7092,-3.7169,-3.7529,-3.7078,-3.6385,-3.5534,-3.5156,-3.4454,-3.3696,-3.324,-3.3124,-3.3124,-3.3124,-3.3124,-3.3068,-3.2939,-3.2723,-3.2463,-3.1981,-3.1849,-3.1849,-3.1705,-3.1705,-3.1705,-3.1705,-3.1705,-3.1705,-3.1705,-3.1705,-3.1705,-3.1705,-3.1705,-3.1705,-3.1705,-3.1705,-3.1705,-3.1705,-3.1705,-3.1705,-3.1705,-3.1476,-3.1211,-3.0946,-3.0639,-3.0266,-2.9737,-2.9689,-2.9581,-2.9316,-2.9051,-2.8907,-2.8907,-2.8655,-2.851,-2.851,-2.851,-2.851,-2.851,-2.851,-2.851,-2.851,-2.851,-2.851,0.0,0.0,0.0,0.0,0.0,-3.0645,0.0,0.0,0.0,0.0,0.0,0.0,0.0,0.0,0.0,0.0,0.0,0.0,0.0,0.0,0.0,0.0,0.0,0.0,-3.8202,-3.8202,-3.8202,-3.8202,-3.8202,-3.8202,-3.8202,-3.8202,-3.8202,-3.8202,-3.8202,-3.8202,-3.8202,-3.8202,-3.8202,-3.8202,-3.8202,-3.8202,-3.8202,-3.8202,-3.8202,-3.8202,-3.8202,-3.8089,-3.7886,-3.7014,-3.657,-3.6373,-3.5829,-3.5507,-3.5278,-3.462,-3.4272,-3.4063,-3.3326,-3.3124,-3.3124,-3.3124,-3.3124,-3.3081,-3.3038,-3.2853,-3.2581,-3.2113,-3.1994,-3.1937,-3.1761,-3.1705,-3.1705,-3.1705,-3.1705,-3.1705,-3.1705,-3.1705,-3.1705,-3.1705,-3.1705,-3.1705,-3.1705,-3.1705,-3.1705,-3.1705,-3.1705,-3.1705,-3.1705,-3.1705,-3.1536,-3.1115,-3.1067,-3.0862,-3.029,-3.0242,-3.0194,-3.0098,-2.9689,-2.9448,-2.9448,-2.9039,-2.8763,-2.8667,-2.8655,-2.8607,-2.851,-2.851,-2.851,-2.851,-2.851,-2.851,0.0,0.0,0.0,0.0,-3.1298,0.0,0.0,0.0,-3.1235,-3.1286,0.0,0.0,0.0,0.0,0.0,0.0,0.0,0.0,0.0,0.0,0.0,0.0,0.0,0.0,0.0,-3.8202,-3.8202,-3.8202,-3.8202,-3.8202,-3.8202,-3.8202,-3.8202,-3.8202,-3.8202,-3.8202,-3.8202,-3.8202,-3.8202,-3.8202,-3.8202,-3.8202,-3.8202,-3.8202,-3.8202,-3.8202,-3.8202,-3.7772,-3.6975,-3.6108,-3.5318,-3.4744,-3.5359,-3.5156,-3.4509,-3.4439,-3.3907,-3.324,-3.3111,-3.3124,-3.3124,-3.3124,-3.3124,-3.3081,-3.281,-3.2711,-3.2581,-3.2113,-3.1994,-3.1937,-3.1761,-3.1705,-3.1705,-3.1705,-3.1705,-3.1705,-3.1705,-3.1705,-3.1705,-3.1705,-3.1705,-3.1705,-3.1705,-3.1705,-3.1705,-3.1705,-3.1705,-3.1705,-3.1705,-3.1705,-3.1681,-3.1621,-3.1621,-3.1404,-3.0874,-3.0826,-3.0633,-3.0122,-3.0025,-3.0001,-3.0001,-2.9941,-2.9689,-2.922,-2.9208,-2.8979,-2.851,-2.851,-2.851,-2.851,-2.851,-2.851,0.0,0.0,0.0,0.0,0.0,0.0,-3.1461,0.0,-3.1486,0.0,0.0,0.0,0.0,0.0,0.0,0.0,-3.3334,0.0,0.0,0.0,0.0,0.0,0.0,0.0,0.0,0.0,0.0,0.0,-3.8202,-3.8202,-3.8202,-3.8202,-3.8202,-3.8202,-3.8202,-3.8202,-3.8202,-3.8202,-3.8202,-3.8202,-3.8202,-3.8202,-3.8202,-3.8202,-3.8202,-3.8202,-3.8202,-3.772,-3.6844,-3.5949,-3.5128,-3.4397,-3.4204,-3.3953,-3.3654,-3.3654,-3.3411,-3.3124,-3.3124,-3.3124,-3.3124,-3.3124,-3.3124,-3.3081,-3.2982,-3.2939,-3.2853,-3.2506,-3.2419,-3.2332,-3.1981,-3.1893,-3.1849,-3.1705,-3.1705,-3.1705,-3.1705,-3.1705,-3.1705,-3.1705,-3.1705,-3.1705,-3.1705,-3.1705,-3.1705,-3.1705,-3.1705,-3.1705,-3.1705,-3.1705,-3.1705,-3.1705,-3.1705,-3.1621,-3.1392,-3.138,-3.1284,-3.1055,-3.0766,-3.041,-3.0098,-3.0086,-2.9977,-2.9761,-2.9749,-2.9641,-2.9424,-2.9124,-2.8967,-2.8955,-2.8108,-2.8007,-3.367,0.0,0.0,0.0,0.0,0.0,0.0,0.0,0.0,0.0,0.0,0.0,0.0,0.0,0.0,0.0,0.0,-3.3212,0.0,0.0,0.0,0.0,0.0,0.0,0.0,0.0,0.0,0.0,0.0,-3.8089,-3.7848,-3.7848,-3.7962,-3.8202,-3.7962,-3.7962,-3.8202,-3.8202,-3.8089,-3.7848,-3.7848,-3.772,-3.7477,-3.7477,-3.7477,-3.7477,-3.7477,-3.7116,-3.6478,-3.5642,-3.4937,-3.4314,-3.3454,-3.3124,-3.3124,-3.3124,-3.3124,-3.3124,-3.3124,-3.3124,-3.3124,-3.3124,-3.3124,-3.3124,-3.3124,-3.3124,-3.3025,-3.2766,-3.2711,-3.2581,-3.2125,-3.1994,-3.1937,-3.1761,-3.1705,-3.1705,-3.1705,-3.1705,-3.1705,-3.1705,-3.1705,-3.1705,-3.1705,-3.1705,-3.1705,-3.1705,-3.1705,-3.1705,-3.1705,-3.1705,-3.1705,-3.1705,-3.1705,-3.1705,-3.1705,-3.1705,-3.1705,-3.1705,-3.1344,-3.0915,-3.053,-3.0518,-3.0446,-3.0302,-3.0302,-3.023,-3.0086,-2.9701,-2.9508,-2.9496,-2.8151,-2.7886,0.0,0.0,0.0,-3.3645,0.0,0.0,0.0,0.0,-3.3348,0.0,0.0,0.0,0.0,0.0,-3.2717,-3.1625,0.0,0.0,0.0,0.0,0.0,0.0,0.0,0.0,0.0,0.0,0.0,0.0,-3.7232,-3.7848,-3.6975,-3.6936,-3.7323,-3.8165,-3.7376,-3.7376,-3.8202,-3.8202,-3.7772,-3.6936,-3.6936,-3.6478,-3.5695,-3.5695,-3.5695,-3.5695,-3.5695,-3.5655,-3.5588,-3.4786,-3.4439,-3.4314,-3.3454,-3.3124,-3.3124,-3.3124,-3.3124,-3.3124,-3.3124,-3.3124,-3.3124,-3.3124,-3.3124,-3.3124,-3.3124,-3.3124,-3.3025,-3.2766,-3.2711,-3.2581,-3.2125,-3.1994,-3.1937,-3.1761,-3.1705,-3.1705,-3.1705,-3.1705,-3.1705,-3.1705,-3.1705,-3.1705,-3.1705,-3.1705,-3.1705,-3.1705,-3.1705,-3.1705,-3.1705,-3.1705,-3.1705,-3.1705,-3.1705,-3.1705,-3.1705,-3.1705,-3.1705,-3.1705,-3.1693,-3.1681,-3.1657,-3.1657,-3.1416,-3.0898,-3.0855,-3.0603,-3.0086,-3.0074,-3.0062,-3.0037,-2.8951,-2.8471,0.0,0.0,-3.3755,-3.3937,0.0,0.0,0.0,0.0,0.0,0.0,0.0,0.0,0.0,0.0,-3.3114,-3.2608,-3.2872,0.0,0.0,0.0,0.0,0.0,0.0,0.0,0.0,0.0,0.0,0.0,-3.6148,0.0,-3.6883,-3.636,-3.6439,-3.7323,-3.7053,-3.7053,-3.7323,-3.7323,-3.7169,-3.6897,-3.632,-3.5909,-3.5615,-3.5615,-3.5615,-3.5615,-3.5615,-3.5318,-3.4772,-3.4509,-3.4063,-3.3484,-3.3197,-3.3124,-3.3124,-3.3124,-3.3124,-3.3124,-3.3124,-3.3124,-3.3124,-3.3124,-3.3124,-3.3124,-3.3124,-3.3124,-3.3068,-3.2982,-3.2939,-3.2853,-3.2388,-3.2257,-3.2169,-3.1805,-3.1705,-3.1705,-3.1705,-3.1705,-3.1705,-3.1705,-3.1705,-3.1705,-3.1705,-3.1705,-3.1705,-3.1705,-3.1705,-3.1705,-3.1705,-3.1705,-3.1705,-3.1705,-3.1705,-3.1705,-3.1705,-3.1705,-3.1705,-3.1705,-3.1705,-3.1705,-3.1705,-3.1705,-3.1621,-3.144,-3.144,-3.1356,-3.1175,-3.0783,-3.0645,-3.0591,-2.9881,-2.9556,-3.4826,-3.45,0.0,-3.4212,-3.4063,0.0,-3.3937,0.0,0.0,0.0,0.0,0.0,0.0,0.0,-3.3356,-3.324,-3.3154,-3.3124,0.0,-3.3124,0.0,0.0,0.0,0.0,0.0,0.0,0.0,-3.4746,-3.5264,-3.5709,0.0,-3.5494,-3.5561,-3.6399,-3.6439,-3.6439,-3.6439,-3.6727,-3.661,-3.5976,-3.544,-3.4992,-3.4705,-3.4705,-3.4705,-3.4705,-3.4705,-3.44,-3.3949,-3.3949,-3.3611,-3.3124,-3.3124,-3.3124,-3.3124,-3.3124,-3.3124,-3.3124,-3.3124,-3.3124,-3.3124,-3.3124,-3.3124,-3.3124,-3.3124,-3.3124,-3.3124,-3.3124,-3.3124,-3.2995,-3.2519,-3.24,-3.23,-3.1805,-3.1705,-3.1705,-3.1705,-3.1705,-3.1705,-3.1705,-3.1705,-3.1705,-3.1705,-3.1705,-3.1705,-3.1705,-3.1705,-3.1705,-3.1705,-3.1705,-3.1705,-3.1705,-3.1705,-3.1705,-3.1705,-3.1705,-3.1705,-3.1705,-3.1705,-3.1705,-3.1705,-3.1705,-3.1705,-3.1705,-3.1705,-3.1705,-3.1705,-3.1368,-3.1199,-3.1199,-3.085,-3.0467]},{"header":{"parameterUnit":"m.s-1","parameterCategory":1,"la1":30.6,"la2":29.2853,"lo1":-89.7004,"lo2":-87.6739,"dy":0.0162,"dx":0.0183,"nx":112,"ny":82,"refTime":"2024-04-29T18:00:00:Z","depth":0,"parameterNumber":3,"parameterNumberName":"V-component_of_WINDS"},"data":[0.0,0.0,0.0,0.0,0.0,0.0,0.0,0.0,0.0,0.0,0.0,0.0,0.0,0.0,0.0,0.0,0.0,0.0,0.0,0.0,0.0,0.0,0.0,0.0,0.0,0.0,0.0,0.0,0.0,0.0,0.0,0.0,0.0,0.0,0.0,0.0,0.0,0.0,0.0,0.0,0.0,0.0,0.0,0.0,0.0,0.0,0.0,0.0,0.0,0.0,0.0,0.0,0.0,0.0,0.0,0.0,0.0,0.0,0.0,0.0,0.0,0.0,0.0,0.0,0.0,0.0,0.0,0.0,0.0,0.0,0.0,0.0,0.0,0.0,0.0,0.0,0.0,0.0,0.0,0.0,0.0,0.0,0.0,0.0,0.0,0.0,0.0,0.0,0.0,0.0,0.0,2.5005,2.5005,2.5127,2.5406,2.5465,2.5817,2.6556,0.0,0.0,0.0,0.0,0.0,0.0,0.0,0.0,0.0,0.0,0.0,0.0,0.0,0.0,0.0,0.0,0.0,0.0,0.0,0.0,0.0,0.0,0.0,0.0,0.0,0.0,0.0,0.0,0.0,0.0,0.0,0.0,0.0,0.0,0.0,0.0,0.0,0.0,0.0,0.0,0.0,0.0,0.0,0.0,0.0,0.0,0.0,0.0,0.0,0.0,0.0,0.0,0.0,0.0,0.0,0.0,0.0,0.0,0.0,0.0,0.0,0.0,0.0,0.0,0.0,0.0,0.0,0.0,0.0,0.0,0.0,0.0,0.0,0.0,0.0,0.0,0.0,0.0,0.0,0.0,0.0,0.0,0.0,0.0,0.0,0.0,0.0,0.0,0.0,0.0,0.0,0.0,0.0,0.0,0.0,0.0,0.0,0.0,0.0,0.0,0.0,0.0,0.0,0.0,2.5005,2.5005,2.5005,2.5025,2.5068,2.5329,2.5707,2.6157,0.0,0.0,0.0,0.0,0.0,0.0,0.0,0.0,0.0,0.0,0.0,0.0,0.0,0.0,0.0,0.0,0.0,0.0,0.0,0.0,0.0,0.0,0.0,0.0,0.0,0.0,0.0,0.0,0.0,0.0,0.0,0.0,0.0,0.0,0.0,0.0,0.0,0.0,0.0,0.0,0.0,0.0,0.0,0.0,0.0,0.0,0.0,0.0,0.0,0.0,0.0,0.0,0.0,0.0,0.0,0.0,0.0,0.0,0.0,0.0,0.0,0.0,0.0,0.0,0.0,0.0,0.0,0.0,0.0,0.0,0.0,0.0,0.0,0.0,0.0,0.0,0.0,0.0,0.0,0.0,0.0,0.0,0.0,0.0,0.0,0.0,0.0,0.0,0.0,0.0,0.0,0.0,0.0,0.0,0.0,0.0,0.0,0.0,0.0,0.0,0.0,0.0,0.0,2.5005,2.5005,2.5005,2.5005,2.5005,2.5005,2.5146,2.5384,2.5744,2.5808,0.0,0.0,0.0,0.0,0.0,0.0,0.0,0.0,0.0,0.0,0.0,0.0,0.0,0.0,0.0,0.0,0.0,0.0,0.0,0.0,0.0,0.0,0.0,0.0,0.0,0.0,0.0,0.0,0.0,0.0,0.0,0.0,0.0,0.0,0.0,0.0,0.0,0.0,0.0,0.0,0.0,0.0,0.0,0.0,0.0,0.0,0.0,0.0,0.0,0.0,0.0,0.0,0.0,0.0,0.0,0.0,0.0,0.0,0.0,0.0,0.0,0.0,0.0,0.0,0.0,0.0,0.0,0.0,0.0,0.0,0.0,0.0,0.0,0.0,0.0,0.0,0.0,0.0,0.0,0.0,0.0,0.0,0.0,0.0,0.0,0.0,0.0,0.0,0.0,0.0,0.0,0.0,0.0,0.0,0.0,0.0,0.0,0.0,0.0,0.0,0.0,0.0,2.4946,2.5005,2.5005,2.5005,2.5005,2.5005,2.5005,2.513,2.5484,2.5872,0.0,0.0,0.0,0.0,0.0,0.0,0.0,0.0,0.0,0.0,0.0,0.0,0.0,0.0,0.0,0.0,0.0,0.0,0.0,0.0,0.0,0.0,0.0,0.0,0.0,0.0,0.0,0.0,0.0,0.0,0.0,0.0,0.0,0.0,0.0,0.0,0.0,0.0,0.0,0.0,0.0,0.0,0.0,0.0,0.0,0.0,0.0,0.0,0.0,0.0,0.0,0.0,0.0,0.0,0.0,0.0,0.0,0.0,0.0,0.0,0.0,0.0,0.0,0.0,0.0,0.0,0.0,0.0,0.0,0.0,0.0,0.0,0.0,0.0,0.0,0.0,0.0,0.0,0.0,0.0,0.0,0.0,0.0,0.0,0.0,0.0,0.0,0.0,0.0,0.0,0.0,0.0,0.0,0.0,0.0,0.0,0.0,0.0,0.0,0.0,0.0,0.0,2.4822,2.5005,2.5005,2.5005,2.5005,2.5005,2.5005,2.513,2.5484,2.5872,0.0,0.0,0.0,0.0,0.0,0.0,0.0,0.0,0.0,0.0,0.0,0.0,0.0,0.0,0.0,0.0,0.0,0.0,0.0,0.0,0.0,0.0,0.0,0.0,0.0,0.0,0.0,0.0,0.0,0.0,0.0,0.0,0.0,0.0,0.0,0.0,0.0,0.0,0.0,0.0,0.0,0.0,0.0,0.0,0.0,0.0,0.0,0.0,0.0,0.0,0.0,0.0,0.0,0.0,0.0,0.0,0.0,0.0,0.0,0.0,0.0,0.0,0.0,0.0,0.0,0.0,0.0,0.0,0.0,0.0,0.0,0.0,0.0,0.0,0.0,0.0,0.0,0.0,0.0,0.0,0.0,0.0,0.0,0.0,0.0,0.0,0.0,0.0,0.0,0.0,0.0,0.0,0.0,0.0,0.0,0.0,0.0,0.0,0.0,0.0,0.0,0.0,2.467,2.4751,0.0,2.4751,2.4826,2.4985,2.5103,2.5182,2.5188,0.0,0.0,0.0,0.0,0.0,0.0,0.0,0.0,0.0,0.0,0.0,0.0,0.0,0.0,0.0,0.0,0.0,0.0,0.0,0.0,0.0,0.0,0.0,0.0,0.0,0.0,0.0,0.0,0.0,0.0,0.0,0.0,0.0,0.0,0.0,0.0,0.0,0.0,0.0,0.0,0.0,0.0,0.0,0.0,0.0,0.0,0.0,0.0,0.0,0.0,0.0,0.0,0.0,0.0,0.0,0.0,0.0,0.0,0.0,0.0,0.0,0.0,0.0,0.0,0.0,0.0,0.0,0.0,0.0,0.0,0.0,0.0,0.0,0.0,0.0,0.0,0.0,0.0,0.0,0.0,0.0,0.0,0.0,0.0,0.0,0.0,0.0,0.0,0.0,0.0,0.0,0.0,0.0,0.0,0.0,0.0,0.0,0.0,0.0,0.0,0.0,0.0,2.4287,2.441,2.4549,0.0,2.4695,2.4815,2.5146,2.5317,2.5317,2.5103,0.0,0.0,0.0,0.0,0.0,0.0,0.0,0.0,0.0,0.0,0.0,0.0,0.0,0.0,0.0,0.0,0.0,0.0,0.0,0.0,0.0,0.0,0.0,0.0,0.0,0.0,0.0,0.0,0.0,0.0,0.0,0.0,0.0,0.0,0.0,0.0,0.0,0.0,0.0,0.0,0.0,0.0,0.0,0.0,0.0,0.0,0.0,0.0,0.0,0.0,0.0,0.0,0.0,0.0,0.0,0.0,0.0,0.0,0.0,0.0,0.0,0.0,0.0,0.0,0.0,0.0,0.0,0.0,0.0,0.0,0.0,0.0,0.0,0.0,0.0,0.0,0.0,0.0,0.0,0.0,0.0,0.0,0.0,0.0,0.0,0.0,0.0,0.0,0.0,0.0,0.0,0.0,0.0,0.0,0.0,0.0,0.0,0.0,0.0,0.0,0.0,0.0,2.3668,2.4046,2.4462,2.4875,2.4914,2.5111,2.5581,2.5619,2.5543,0.0,0.0,0.0,0.0,0.0,0.0,0.0,0.0,0.0,0.0,0.0,0.0,0.0,0.0,0.0,0.0,0.0,0.0,0.0,0.0,0.0,0.0,0.0,0.0,0.0,0.0,0.0,0.0,0.0,0.0,0.0,0.0,0.0,0.0,0.0,0.0,0.0,0.0,0.0,0.0,0.0,0.0,0.0,0.0,0.0,0.0,0.0,0.0,0.0,0.0,0.0,0.0,0.0,0.0,0.0,0.0,0.0,0.0,0.0,0.0,0.0,0.0,0.0,0.0,0.0,0.0,0.0,0.0,0.0,0.0,0.0,0.0,0.0,0.0,0.0,0.0,0.0,0.0,0.0,0.0,0.0,0.0,0.0,0.0,0.0,0.0,0.0,0.0,0.0,0.0,0.0,0.0,0.0,0.0,0.0,0.0,0.0,0.0,0.0,0.0,0.0,0.0,0.0,2.5206,2.5341,2.5475,2.5593,2.5957,2.6277,2.6554,2.7053,2.6994,2.6138,0.0,0.0,0.0,0.0,0.0,0.0,0.0,0.0,0.0,0.0,0.0,0.0,0.0,0.0,0.0,0.0,0.0,0.0,0.0,0.0,0.0,0.0,0.0,0.0,0.0,0.0,0.0,0.0,0.0,0.0,0.0,0.0,0.0,0.0,0.0,0.0,0.0,0.0,0.0,0.0,0.0,0.0,0.0,0.0,0.0,0.0,0.0,0.0,0.0,0.0,0.0,0.0,0.0,0.0,0.0,0.0,0.0,0.0,0.0,0.0,0.0,0.0,0.0,0.0,0.0,0.0,0.0,0.0,0.0,0.0,0.0,0.0,0.0,0.0,0.0,0.0,0.0,0.0,0.0,0.0,0.0,0.0,0.0,0.0,0.0,0.0,0.0,0.0,0.0,0.0,0.0,0.0,0.0,0.0,0.0,0.0,0.0,0.0,0.0,0.0,0.0,0.0,2.5678,2.5763,2.584,2.6009,2.6503,2.694,2.7222,2.7847,2.7899,2.7138,0.0,0.0,0.0,0.0,0.0,0.0,0.0,0.0,0.0,0.0,0.0,0.0,0.0,0.0,0.0,0.0,0.0,0.0,0.0,0.0,0.0,0.0,0.0,0.0,0.0,0.0,0.0,0.0,0.0,0.0,0.0,0.0,0.0,0.0,0.0,0.0,0.0,0.0,0.0,0.0,0.0,0.0,0.0,0.0,0.0,0.0,0.0,0.0,0.0,0.0,0.0,0.0,0.0,0.0,0.0,0.0,0.0,0.0,0.0,0.0,0.0,0.0,0.0,0.0,0.0,0.0,0.0,0.0,0.0,0.0,0.0,0.0,0.0,0.0,0.0,0.0,0.0,0.0,0.0,0.0,0.0,0.0,0.0,0.0,0.0,0.0,0.0,0.0,0.0,0.0,0.0,0.0,0.0,0.0,0.0,0.0,0.0,0.0,0.0,0.0,0.0,0.0,2.5613,2.5708,2.5944,2.6275,2.6791,2.7264,2.7628,2.8187,2.8402,2.8134,0.0,0.0,0.0,0.0,0.0,0.0,0.0,0.0,0.0,0.0,0.0,0.0,0.0,0.0,0.0,0.0,0.0,0.0,0.0,0.0,0.0,0.0,0.0,0.0,0.0,0.0,0.0,0.0,0.0,0.0,0.0,0.0,0.0,0.0,0.0,0.0,0.0,0.0,0.0,0.0,0.0,0.0,0.0,0.0,0.0,0.0,0.0,0.0,0.0,0.0,0.0,0.0,0.0,0.0,0.0,0.0,0.0,0.0,0.0,0.0,2.446,0.0,0.0,0.0,0.0,0.0,0.0,0.0,0.0,0.0,0.0,0.0,0.0,0.0,0.0,0.0,0.0,0.0,0.0,0.0,0.0,0.0,0.0,0.0,0.0,0.0,0.0,0.0,0.0,0.0,0.0,0.0,0.0,0.0,0.0,0.0,0.0,0.0,0.0,0.0,0.0,0.0,2.7131,2.7156,2.7205,2.7289,2.773,2.8046,2.814,2.8974,2.9156,2.8388,2.864,0.0,0.0,0.0,0.0,0.0,0.0,0.0,0.0,0.0,0.0,0.0,0.0,0.0,0.0,0.0,0.0,0.0,0.0,0.0,0.0,0.0,0.0,0.0,0.0,0.0,0.0,0.0,0.0,0.0,0.0,0.0,0.0,0.0,0.0,0.0,0.0,0.0,0.0,0.0,0.0,0.0,0.0,0.0,0.0,0.0,0.0,0.0,0.0,0.0,0.0,0.0,0.0,0.0,0.0,0.0,0.0,0.0,0.0,0.0,0.0,2.4794,0.0,0.0,0.0,0.0,0.0,0.0,0.0,0.0,0.0,0.0,0.0,0.0,0.0,0.0,0.0,0.0,0.0,0.0,0.0,0.0,0.0,0.0,0.0,0.0,0.0,0.0,0.0,0.0,0.0,0.0,0.0,0.0,0.0,0.0,0.0,0.0,0.0,0.0,0.0,0.0,2.76,2.76,2.76,2.76,2.8027,2.8384,2.8662,2.9355,2.9691,2.9442,2.9536,0.0,0.0,0.0,0.0,0.0,0.0,0.0,0.0,0.0,0.0,0.0,0.0,0.0,0.0,0.0,0.0,0.0,0.0,0.0,0.0,0.0,0.0,0.0,0.0,0.0,0.0,0.0,0.0,0.0,0.0,0.0,0.0,0.0,0.0,0.0,0.0,0.0,0.0,0.0,0.0,0.0,0.0,0.0,0.0,0.0,0.0,0.0,0.0,0.0,0.0,0.0,0.0,0.0,2.4788,2.4738,2.4682,2.4963,2.5129,2.5133,2.4709,2.4609,2.4742,2.5219,0.0,0.0,0.0,0.0,0.0,0.0,0.0,0.0,0.0,0.0,0.0,0.0,0.0,0.0,0.0,0.0,0.0,0.0,0.0,0.0,0.0,0.0,0.0,0.0,2.7361,2.719,0.0,0.0,0.0,0.0,0.0,0.0,0.0,0.0,0.0,0.0,0.0,0.0,2.76,2.76,2.76,2.76,2.7953,2.8352,2.8795,2.9264,2.975,3.0236,3.0172,2.9974,0.0,0.0,0.0,0.0,0.0,0.0,0.0,0.0,0.0,0.0,0.0,0.0,0.0,0.0,0.0,0.0,0.0,0.0,0.0,0.0,0.0,0.0,0.0,0.0,0.0,0.0,0.0,0.0,0.0,0.0,0.0,0.0,2.2911,2.3298,0.0,0.0,0.0,0.0,0.0,0.0,0.0,0.0,0.0,0.0,0.0,0.0,0.0,2.4755,2.4755,2.4755,2.4788,2.4788,2.4788,2.4569,2.4117,2.4817,2.4912,2.4651,2.5198,0.0,2.5496,2.6098,0.0,0.0,0.0,0.0,0.0,0.0,0.0,0.0,0.0,0.0,0.0,0.0,0.0,0.0,0.0,0.0,0.0,0.0,0.0,0.0,0.0,0.0,2.7575,2.7549,2.7575,2.753,0.0,2.7294,2.7293,2.739,2.7515,0.0,0.0,0.0,0.0,0.0,0.0,0.0,2.76,2.76,2.76,2.76,2.766,2.771,2.7785,2.8231,2.8717,2.9257,2.9639,3.0,3.0336,3.0336,0.0,0.0,0.0,0.0,0.0,0.0,0.0,0.0,0.0,0.0,0.0,0.0,0.0,0.0,0.0,0.0,0.0,0.0,0.0,0.0,0.0,0.0,0.0,0.0,0.0,0.0,0.0,0.0,0.0,2.3257,2.3592,2.4055,2.4117,2.4171,0.0,0.0,0.0,0.0,0.0,0.0,0.0,0.0,0.0,2.5173,2.5227,2.5259,2.5259,2.5259,2.5423,2.5749,2.5749,2.5644,2.5418,2.5922,2.6074,2.5942,2.646,2.6511,2.6218,2.608,2.5936,2.5923,0.0,0.0,0.0,0.0,2.7502,2.759,2.7996,2.814,0.0,2.7826,0.0,0.0,0.0,0.0,0.0,0.0,0.0,0.0,0.0,0.0,2.8723,2.8723,2.8723,2.8723,2.8723,2.8685,2.8435,0.0,2.76,2.76,2.76,0.0,0.0,0.0,0.0,2.76,2.76,2.76,2.76,2.76,2.76,2.771,2.7978,2.8183,2.8543,2.9074,2.9303,2.9617,3.0092,3.0113,3.0072,0.0,0.0,0.0,0.0,0.0,0.0,0.0,0.0,0.0,0.0,0.0,0.0,0.0,0.0,0.0,0.0,0.0,0.0,0.0,0.0,0.0,0.0,0.0,0.0,0.0,0.0,0.0,0.0,2.396,2.4291,2.4534,2.4739,2.4789,0.0,0.0,0.0,0.0,0.0,0.0,2.6362,2.6159,2.6092,2.6239,2.6101,2.6025,2.6025,2.5887,2.6072,2.6499,2.6499,2.6411,2.6285,2.6778,2.6947,2.6819,2.7304,2.7255,2.6844,2.6154,2.5888,2.592,2.6164,2.6369,2.6613,2.7189,2.7434,2.7495,2.7811,2.7945,2.7917,2.7734,2.7738,2.7769,2.7351,0.0,0.0,0.0,0.0,2.8959,2.9057,2.9237,2.9347,2.9347,2.9483,2.9606,2.9606,2.9606,2.9307,0.0,2.8109,2.8109,2.8109,0.0,0.0,0.0,0.0,2.8109,2.8109,2.8109,2.8049,2.7869,2.7869,2.7931,2.8116,2.811,2.8328,2.8865,2.8912,2.912,2.9595,2.9728,2.9962,3.0321,0.0,0.0,0.0,0.0,0.0,0.0,0.0,0.0,0.0,0.0,0.0,0.0,0.0,0.0,0.0,0.0,0.0,0.0,0.0,0.0,0.0,0.0,0.0,0.0,0.0,0.0,0.0,0.0,0.0,2.4524,2.5114,0.0,0.0,0.0,0.0,2.5369,2.49,2.5092,2.607,2.5683,2.6222,2.791,2.7469,2.7193,2.7193,2.6713,2.6461,2.6499,2.6499,2.621,2.5695,2.6587,2.6729,2.6288,2.7135,2.7477,2.7411,2.687,2.6621,2.6634,2.6453,2.681,2.7498,2.8044,2.8322,2.8502,2.9171,2.9389,2.9291,2.864,2.8458,2.8346,2.7741,2.798,0.0,0.0,2.7661,2.7691,2.7691,2.8168,2.8651,2.8651,2.9125,2.9606,2.9606,2.9606,2.9592,0.0,2.9502,2.9502,2.9502,0.0,2.9502,2.9502,2.9502,2.9502,2.9502,2.9502,2.9277,2.8622,2.8547,2.8304,2.7695,2.765,2.7845,2.8328,2.8336,2.8591,2.9097,2.955,2.9815,2.9815,3.0246,0.0,0.0,0.0,0.0,0.0,0.0,0.0,0.0,0.0,0.0,0.0,0.0,0.0,0.0,0.0,0.0,0.0,0.0,0.0,0.0,0.0,0.0,0.0,0.0,0.0,0.0,0.0,0.0,2.5747,2.5317,0.0,2.5697,2.58,2.5695,2.5436,2.5788,2.5815,2.5298,2.5086,2.5265,2.5772,2.5611,2.5721,2.6201,2.6,2.6122,2.6499,2.6499,2.642,2.632,2.6773,2.7135,2.7459,2.7892,2.8072,2.8033,2.7458,2.7223,2.7223,2.7123,2.7287,2.7523,2.7723,2.7809,2.7875,2.8111,2.8208,2.8168,2.7935,2.7868,2.7828,2.7595,2.7994,2.8451,2.8246,2.8487,2.8811,2.8811,2.9009,2.916,2.916,2.9354,2.9651,3.009,3.0191,3.0307,3.0751,3.0163,2.9606,2.9606,2.9606,2.9606,2.9606,2.9606,2.9606,2.9606,2.9606,2.9517,2.9265,2.922,2.9157,2.8918,2.8472,2.8295,2.8485,2.8102,2.8076,2.8567,2.874,2.9134,2.9788,2.9962,3.0199,0.0,0.0,0.0,0.0,0.0,0.0,0.0,0.0,0.0,0.0,0.0,0.0,0.0,0.0,0.0,0.0,0.0,0.0,0.0,0.0,0.0,0.0,0.0,0.0,0.0,0.0,2.5918,2.5929,2.5685,2.543,2.5252,2.548,2.5371,2.4691,2.5044,2.5052,2.4503,2.4307,2.445,2.4921,2.4744,2.5012,2.5775,2.5589,2.5837,2.6499,2.6499,2.6555,2.6726,2.6909,2.7387,2.8122,2.8317,2.8538,2.866,2.8281,2.8124,2.8059,2.7471,2.732,2.749,2.749,2.749,2.749,2.749,2.749,2.749,2.749,2.749,2.749,2.749,2.7809,2.8157,2.8157,2.8468,2.8826,2.8826,2.8985,2.9174,2.9174,2.9331,2.9628,3.0072,3.0178,3.0299,3.0748,3.0522,3.0238,3.0238,3.0238,3.0238,3.0238,3.0238,3.028,3.0336,3.0336,3.0273,3.0033,3.0003,2.9886,2.9621,2.9175,2.8936,2.8936,2.8319,2.8082,2.8377,2.833,2.8818,2.9904,3.0254,3.0423,3.0506,0.0,0.0,0.0,0.0,0.0,0.0,0.0,0.0,0.0,0.0,0.0,0.0,0.0,0.0,0.0,0.0,0.0,0.0,0.0,0.0,0.0,0.0,0.0,2.5724,2.6147,2.6105,2.5006,2.6239,2.6275,2.3968,2.5124,2.5208,2.3196,2.2652,2.2809,2.3744,2.3409,2.3951,2.5739,2.5327,2.5407,2.613,2.5588,2.5723,2.6499,2.6452,2.6555,2.6726,2.6909,2.7434,2.8148,2.8343,2.88,2.9362,2.9314,2.9301,2.9179,2.7452,2.7079,2.7529,2.7529,2.7516,2.749,2.749,2.749,2.749,2.749,2.749,2.749,2.749,2.749,2.749,2.749,2.749,2.749,2.749,2.7973,2.8481,2.8481,2.8967,2.9442,2.9473,2.9473,2.9473,2.9504,3.0554,3.1438,3.1438,3.1438,3.1438,3.1467,3.1467,0.0,3.1756,3.1784,3.1571,3.0893,3.0817,3.0506,2.9726,2.9651,2.9636,2.9636,2.9022,2.8622,2.8622,2.8438,2.8909,3.0109,3.1071,3.1217,3.0468,0.0,0.0,0.0,0.0,0.0,0.0,0.0,0.0,0.0,0.0,0.0,0.0,0.0,0.0,0.0,0.0,0.0,0.0,0.0,0.0,0.0,0.0,2.704,2.6841,2.665,2.6514,2.6611,2.5408,2.4669,2.4993,2.4641,2.4332,2.4083,2.453,2.4543,2.3923,2.4338,2.492,2.5635,2.6132,2.6565,2.696,2.625,2.6089,2.6499,2.5921,2.6094,2.6909,2.6977,2.7722,2.8956,2.9039,2.9637,3.0477,3.0072,2.9865,2.981,2.8908,2.8399,2.8137,2.8137,2.7889,2.749,2.749,2.749,2.749,2.749,2.749,2.749,2.749,2.749,2.749,2.749,2.749,2.749,2.749,2.7656,2.7776,2.7776,2.7941,2.8176,2.8661,2.8776,2.8935,2.9411,2.9797,3.0042,3.0042,3.0042,3.0208,3.0703,3.0896,0.0,3.1727,3.1898,3.1851,3.1556,3.1541,3.1438,3.12,3.0747,3.0516,3.0613,3.0004,2.9626,2.9626,2.9103,2.8876,2.8973,3.0189,3.054,0.0,0.0,0.0,0.0,0.0,0.0,0.0,0.0,0.0,0.0,0.0,0.0,0.0,0.0,0.0,0.0,0.0,0.0,0.0,0.0,0.0,0.0,2.7165,2.7281,2.7281,2.704,2.6746,2.6578,2.5575,2.4863,2.4805,2.4572,2.4273,2.3961,2.4408,2.4405,2.3639,2.4279,2.4738,2.4875,2.552,2.6313,2.7193,2.6764,2.6973,2.7858,2.7162,2.7182,2.7908,2.7796,2.8379,2.9519,2.9591,3.015,3.096,3.062,3.049,0.0,0.0,0.0,0.0,0.0,2.8177,2.785,2.7581,2.749,2.749,2.749,2.749,2.749,2.749,2.749,2.749,2.749,2.749,2.749,2.749,2.749,2.749,2.749,2.749,2.7623,2.8006,2.8072,2.8189,2.8583,2.8666,0.0,2.8666,2.9142,2.9628,3.0011,3.0419,3.0837,3.1322,3.1683,3.1898,3.1828,3.1841,3.187,3.1784,3.1492,0.0,0.0,0.0,3.0278,3.0015,3.0118,0.0,0.0,0.0,3.093,3.0262,0.0,0.0,0.0,3.0471,3.0262,0.0,0.0,0.0,0.0,0.0,0.0,0.0,0.0,0.0,0.0,0.0,0.0,0.0,0.0,0.0,0.0,2.709,2.7369,2.7369,2.7431,2.7016,2.5781,2.6159,2.5869,2.4188,2.4705,2.4669,2.3524,2.3463,2.3484,2.3484,0.0,0.0,0.0,0.0,2.5656,2.7149,2.7067,2.7869,2.9456,2.8946,2.8812,2.9062,2.8888,2.9158,2.9842,3.0014,3.0451,3.0986,3.0986,3.0986,3.0882,2.9797,2.9379,2.9301,2.8734,2.8512,2.8412,2.7902,0.0,0.0,2.7686,2.7686,2.7686,2.7686,2.7646,2.7594,2.7594,2.7542,2.749,2.749,2.749,2.749,2.749,2.749,2.749,2.749,2.749,2.749,2.749,2.749,2.749,2.7523,2.8487,2.9286,2.9393,2.9919,3.0419,3.0673,3.1322,3.1756,3.1712,0.0,0.0,3.1841,3.194,3.2025,3.2025,3.1435,3.0825,3.0152,3.1201,3.1328,3.0371,3.1646,3.1868,3.0966,3.1002,3.1029,3.1029,3.0945,3.0912,0.0,0.0,0.0,0.0,0.0,0.0,0.0,0.0,0.0,0.0,0.0,0.0,0.0,0.0,0.0,2.7733,2.7871,2.7946,2.7946,2.8335,2.8089,2.6699,2.5497,2.4761,2.4792,2.4713,2.469,2.4819,2.5161,2.5357,2.5357,2.6136,2.6573,2.6573,2.7324,2.7694,2.7573,2.6919,2.6886,2.7458,0.0,0.0,2.8334,2.9024,2.9617,3.0051,3.01,3.0451,3.0986,3.0986,3.0986,3.0921,3.0228,2.9931,2.9865,2.9314,2.914,2.9127,2.8974,2.8935,2.8935,2.8935,2.8935,2.8935,2.8935,2.8595,0.0,2.8216,2.7889,2.749,2.749,2.749,2.749,2.749,2.749,2.749,2.749,2.749,2.749,2.749,2.749,2.7556,2.7723,2.7809,2.8059,2.8597,2.9016,2.9504,3.0072,3.097,3.1495,3.1335,3.1809,3.2135,3.2107,3.215,3.2163,3.2163,3.1944,3.1551,3.0987,3.1438,3.1207,3.0109,3.1542,3.1994,3.1375,3.1722,3.187,3.1853,3.12,3.0932,0.0,0.0,0.0,0.0,0.0,0.0,0.0,0.0,0.0,0.0,0.0,2.7695,2.7695,0.0,2.7369,2.7657,2.7921,2.795,2.7521,2.7522,2.7329,2.662,2.5807,2.5147,2.4785,2.4816,2.4941,2.5168,2.5627,2.5875,2.5875,2.6536,2.6889,2.6889,2.7556,2.8018,2.8177,2.7821,2.7911,2.8537,2.8838,2.9124,2.9476,3.0399,3.0727,3.0672,3.0874,3.0986,3.0986,3.0986,3.0986,3.096,3.0673,3.0555,3.049,2.9915,2.9706,2.9666,2.9379,2.931,2.931,2.931,2.931,2.931,2.931,2.91,2.8865,2.8865,2.8412,2.7954,2.7954,2.7745,2.749,2.749,2.749,2.749,2.749,2.749,2.749,2.749,2.749,2.7556,2.7776,2.7723,2.7908,2.8648,2.9174,2.9752,3.0405,3.1233,3.171,3.161,3.1966,3.2191,3.2191,3.2274,3.2287,3.2287,3.2247,3.2093,3.1811,3.1944,3.1727,3.1073,3.1815,3.2136,3.2046,3.226,3.25,3.2748,3.2336,3.178,0.0,0.0,0.0,0.0,0.0,0.0,0.0,0.0,2.8398,2.8285,2.7908,2.757,2.7457,2.7444,2.7444,2.7444,2.7908,2.7953,2.7083,2.6808,2.6582,2.6262,2.6062,2.5579,2.4584,2.4993,2.5357,2.5357,2.5844,2.6144,2.6144,2.6542,2.675,2.675,2.7112,2.7668,2.8398,2.8445,2.8806,2.9658,3.0169,3.0363,3.0332,3.1448,3.1665,3.1158,3.1604,3.1522,3.0986,3.0986,3.0986,3.0986,3.0986,3.0986,3.0934,3.0464,3.0257,3.0192,2.9771,2.965,2.965,2.965,2.965,2.965,2.965,2.9536,2.9444,2.9444,2.8935,2.842,2.842,2.7954,2.749,2.749,2.749,2.749,2.7556,2.7556,2.7556,2.7603,2.7636,2.7669,2.7842,2.8006,2.8254,2.873,2.9425,3.0042,3.0585,3.1393,3.1896,3.1896,3.2107,3.2247,3.2247,3.2315,3.237,3.2398,3.2342,3.2342,3.237,3.237,3.2284,3.2123,3.2367,3.2593,3.2873,3.2945,3.3188,3.3609,3.3474,3.2696,3.0364,2.9566,2.885,2.8636,2.8948,2.9262,0.0,0.0,2.9465,2.89,2.875,2.8599,2.8109,2.8009,2.8009,2.8009,2.8473,2.8512,2.7625,2.7939,2.7676,2.6033,2.5189,2.4648,2.4497,2.5306,2.5802,2.5802,2.6656,2.7154,2.7154,2.7195,2.7226,2.7226,2.7278,2.7347,2.7441,2.7441,2.7489,2.7631,2.853,2.8763,2.8545,3.0582,3.1264,3.0979,3.1564,3.1522,3.0986,3.0986,3.0986,3.0986,3.0986,3.0986,3.0973,3.0908,3.0895,3.0882,3.0817,3.079,3.079,3.079,3.079,3.079,3.079,3.0438,3.0009,3.0009,2.9235,2.842,2.842,2.7954,2.749,2.749,2.749,2.7556,2.7723,2.7776,2.7822,2.8013,2.8013,2.8066,2.8235,2.8739,2.8931,2.8295,2.8867,2.9421,2.9484,3.0689,3.1552,3.1552,3.2064,3.237,3.237,3.2274,3.2259,3.2398,3.2178,3.2094,3.2219,3.2219,3.2201,3.218,3.3244,3.3799,3.3843,3.4145,3.4327,3.4353,3.3711,3.2949,3.005,2.9406,2.8821,0.0,2.9141,2.9269,2.8811,2.8987,2.9139,2.8561,2.8411,2.8386,2.8147,2.8109,2.821,0.0,2.8336,2.7958,2.7383,2.7082,2.6453,2.5179,2.4743,2.4497,2.4497,2.5075,2.5606,2.5854,2.6532,2.7019,2.7299,2.7309,2.7309,2.7309,2.7309,2.7309,2.7309,2.7857,2.8128,2.8128,2.9669,3.0325,3.0239,3.1828,3.2449,3.2225,3.1954,3.1667,3.1457,3.1117,3.0986,3.0986,3.0986,3.0986,3.0986,3.0986,3.0986,3.0986,3.0986,3.0986,3.0986,3.0986,3.0986,3.0986,3.0986,3.0817,3.062,3.062,3.0045,2.9327,2.8987,2.8464,2.7941,2.7568,2.749,2.7523,2.7623,2.7723,2.7809,2.7901,2.8,2.8131,2.83,2.8546,2.8757,2.8885,2.9872,3.0718,3.1057,3.1637,3.202,3.202,3.2244,3.2398,3.2398,3.2342,3.2342,3.2398,3.2287,3.2274,3.2315,3.233,3.233,3.233,3.2803,3.3214,3.3537,3.3687,3.4076,3.467,3.4347,3.3985,2.9484,2.9106,0.0,2.8868,2.9052,2.9046,2.8587,2.8575,2.8549,2.8185,2.8109,2.8109,2.8109,2.8235,2.8387,2.8499,2.8163,2.7601,2.6849,2.6193,2.5463,2.4615,2.4497,2.4549,2.4673,2.5096,2.5544,2.5854,2.647,2.7009,2.7417,2.7486,2.75,2.7624,2.751,2.7486,2.7486,2.8004,2.8445,2.8724,3.0136,3.0946,3.1258,3.2457,3.3081,3.3155,3.2474,3.202,3.1771,3.1392,3.113,3.0986,3.0986,3.0986,3.0986,3.0986,3.0986,3.0986,3.0986,3.0986,3.0986,3.0986,3.0986,3.0986,3.0986,3.0986,3.0986,3.0986,3.0581,3.0009,2.9627,2.9078,2.849,2.7902,2.7771,2.7719,2.7596,2.7756,2.7888,2.7941,2.8085,2.8276,2.8379,2.8514,2.8903,2.9673,3.0778,3.1652,3.2104,3.2315,3.2398,3.2398,3.2398,3.2398,3.2398,3.2398,3.2398,3.2398,3.2398,3.2398,3.2398,3.2398,3.2398,3.2398,3.2547,3.2815,3.3182,3.3355,3.3802,3.4577,3.4577,3.4582,2.8697,0.0,2.8709,2.8402,2.8496,2.8524,2.8174,2.8134,2.8122,2.8109,2.8109,2.8109,2.8109,2.8549,2.8586,2.7748,2.8129,2.7867,2.611,2.583,2.5463,2.4615,2.4497,2.4673,0.0,2.5595,2.5865,2.5875,2.677,2.7486,2.7883,2.7903,2.811,2.8556,2.8142,2.7903,2.7903,2.7527,2.7809,2.8678,2.8771,2.9314,3.026,3.148,3.2473,3.3193,3.3155,3.2629,3.1797,3.1784,3.1445,3.0986,3.0986,3.0986,3.0986,3.0986,3.0986,3.0986,3.0986,3.0986,3.0986,3.0986,3.0986,3.0986,3.0986,3.0986,3.0986,3.0986,3.0581,3.01,3.0074,2.968,2.914,2.8538,2.8381,2.8271,2.7874,2.7967,2.8131,2.8268,2.8444,2.8587,2.8587,2.9075,2.969,3.0359,3.1058,3.1508,3.1508,3.2048,3.2398,3.2398,3.2398,3.2398,3.2398,3.2398,3.2398,3.2398,3.2398,3.2398,3.2398,3.2398,3.2398,3.2398,3.2922,3.3182,3.3182,3.3716,3.3986,3.402,3.402,3.4292,2.855,0.0,2.8536,2.8173,2.8423,2.8602,2.8039,2.8188,2.8388,2.8148,2.8398,2.8612,2.8612,2.9114,2.9209,2.8355,2.7853,2.7139,2.5986,2.5295,2.4933,2.4954,2.4952,0.0,0.0,0.0,0.0,2.677,2.7133,2.7593,2.8338,2.838,2.8452,2.8607,2.8462,2.8235,2.7924,2.8444,2.8675,2.8724,2.9988,3.0812,3.1169,3.2544,3.3271,3.3556,3.3485,3.3284,3.2973,3.2568,3.2071,3.151,3.151,3.1313,3.0986,3.0986,3.0986,3.0986,3.0986,3.0986,3.0986,3.0986,3.0986,3.0986,3.0986,3.0986,3.0986,3.0986,3.0843,3.0607,3.0192,2.9957,2.9693,2.9118,2.9009,2.8887,2.8481,2.8518,2.8565,2.8335,2.8476,2.8734,2.9139,2.9362,2.9875,3.0999,3.1709,3.2104,3.2104,3.2272,3.2398,3.2398,3.2398,3.2398,3.2398,3.2398,3.2398,3.2398,3.2398,3.2398,3.2398,3.2398,3.2398,3.2398,3.2574,3.2668,3.2668,3.2857,3.3135,3.3485,3.3485,3.3767,2.8578,2.855,2.8418,2.8096,2.8295,2.8486,2.794,2.8102,2.8425,2.8386,2.865,2.895,2.9202,2.9297,2.904,2.8143,2.7232,2.6318,2.5463,2.5007,2.4859,2.5148,2.5513,2.5885,0.0,0.0,0.0,2.7258,2.761,2.8069,2.8825,2.8856,2.8938,2.9104,2.8949,2.8721,2.8421,2.8714,2.9005,2.9268,3.0857,3.1801,3.2164,3.3086,3.3556,3.37,3.3646,3.3606,3.3561,3.3169,3.2672,3.2084,3.1876,3.1575,3.1261,3.1065,3.0986,3.0986,3.0986,3.0986,3.0986,3.0986,3.0986,3.0986,3.0986,3.0986,3.0986,3.0986,3.0986,3.0895,3.0529,3.0438,3.0294,2.9719,2.9588,2.9467,2.9017,2.9072,2.9078,2.8631,2.8722,2.8993,2.9149,2.9563,3.0224,3.1335,3.202,3.2398,3.2398,3.2398,3.2398,3.2398,3.2398,3.2398,3.2398,3.2398,3.2398,3.2398,3.2398,3.2398,3.2398,3.2398,3.2398,3.2398,3.2398,3.2398,3.2398,3.2398,3.2574,3.2922,3.2922,3.3198,2.8764,2.8657,2.8418,2.8057,2.8153,2.8233,2.7891,2.8001,2.8298,2.8825,2.8938,2.9101,0.0,0.0,2.8223,2.7307,2.6423,2.5547,2.4732,2.4954,2.521,0.0,0.0,0.0,0.0,0.0,0.0,2.7444,0.0,2.8856,2.9321,2.9342,2.9539,2.9984,2.957,2.9332,2.9301,2.839,2.8683,3.0159,3.1092,3.2033,3.3025,3.3081,3.3313,3.3713,3.3713,3.3682,3.3639,3.3639,3.3273,3.2685,3.2111,3.185,3.1732,3.1235,3.1013,3.0986,3.0986,3.0986,3.0986,3.0986,3.0986,3.0986,3.0986,3.0986,3.0986,3.0986,3.0986,3.0986,3.0986,3.0986,3.0856,3.027,3.014,2.9983,2.948,2.9597,2.9656,2.9065,2.9282,2.9345,2.876,2.9716,3.0763,3.1393,3.202,3.2398,3.2398,3.2398,3.2398,3.2398,3.2398,3.2398,3.2398,3.2398,3.2398,3.2398,3.2398,3.2398,3.2398,3.2398,3.2398,3.2398,3.2398,3.2398,3.2398,3.2398,3.2398,3.2398,3.2398,3.2668,2.8803,2.8657,2.8378,2.7888,2.8135,2.8358,2.8043,2.8418,2.8917,2.9221,2.9246,2.918,0.0,0.0,0.0,2.7916,2.7197,0.0,2.6215,2.5621,0.0,2.6144,0.0,2.7396,2.8193,2.869,0.0,0.0,2.9001,2.9332,2.9798,2.9818,2.988,2.9994,2.988,2.9653,2.9311,2.839,2.8481,2.9626,3.0262,3.108,3.1989,3.2914,3.3484,3.3713,3.3894,3.4069,3.4188,3.4188,3.3862,3.3352,3.3208,3.2567,3.1784,3.1641,3.1352,3.0986,3.0986,3.0986,3.0986,3.0986,3.0986,3.0986,3.0986,3.0986,3.0986,3.0986,3.0986,3.0986,3.0986,3.0986,3.0947,3.0803,3.0764,3.0644,3.0214,3.019,3.0161,2.9829,2.9988,2.9988,2.938,3.0375,3.1306,3.148,3.202,3.2398,3.2398,3.2398,3.2398,3.2398,3.2398,3.2398,3.2398,3.2398,3.2398,3.2398,3.2398,3.2398,3.2398,3.2398,3.2398,3.2398,3.2398,3.2398,3.2398,3.2398,3.2398,3.2398,3.2398,3.2465,2.8922,2.8736,2.8438,2.8138,2.8321,2.8573,2.8375,2.8753,2.9131,2.9236,2.9341,0.0,2.8976,0.0,0.0,0.0,0.0,0.0,2.6345,2.6214,2.631,0.0,2.7683,0.0,2.8866,2.9332,2.9611,0.0,2.9611,2.9715,2.9984,2.9994,2.9994,2.9994,2.9994,2.9777,2.9311,2.8587,2.86,2.9397,2.9953,3.0666,3.1625,3.2742,3.3441,3.3713,0.0,3.4105,3.4397,3.4397,3.4214,3.3927,3.3679,3.3195,3.2515,3.1993,3.1602,3.1326,3.1065,3.0986,3.0986,3.0986,3.0986,3.0986,3.0986,3.0986,3.0986,3.0986,3.0986,3.0986,3.0986,3.0986,3.0986,3.0986,3.0986,3.0932,3.0716,3.0797,3.0952,3.1047,3.1189,3.1332,3.1257,3.1633,3.203,3.229,3.2359,3.2398,3.2398,3.2398,3.2398,3.2398,3.2398,3.2398,3.2398,3.2398,3.2398,3.2398,3.2398,3.2398,3.2398,3.2398,3.2398,3.2398,3.2398,3.2398,3.2398,3.2398,3.2398,3.2398,3.2398,3.2398,2.9052,2.8816,2.851,2.851,2.8657,2.8803,2.8764,2.8934,2.9091,2.9091,0.0,2.9341,2.9302,2.8159,2.7364,2.7744,0.0,2.5545,2.6038,2.6811,2.733,2.7382,2.8504,2.9332,2.9394,2.9756,2.9994,2.9994,2.9994,2.9994,2.9994,2.9994,2.9994,2.9994,2.9994,2.9798,2.9404,2.8938,2.8958,2.9495,3.0008,3.0736,3.1625,3.2624,3.3313,3.3713,3.3713,3.3979,3.4397,3.4397,3.4397,3.4345,3.3875,3.3652,3.347,3.2411,3.1993,3.1836,3.13,3.1104,3.1091,3.1013,3.0986,3.0986,3.0986,3.0986,3.0986,3.0986,3.0986,3.0986,3.0986,3.0986,3.1024,3.1024,3.1061,3.1061,3.1061,3.1373,3.1775,3.22,3.2364,3.264,3.327,3.2976,3.2795,3.3336,3.2972,3.2628,3.2552,3.2444,3.2398,3.2398,3.2398,3.2398,3.2398,3.2398,3.2398,3.2398,3.2398,3.2398,3.2398,3.2398,3.2398,3.2398,3.2398,3.2398,3.2398,3.2398,3.2398,3.2398,3.2398,3.2398,2.9091,2.8816,2.851,2.851,2.8657,2.8764,2.8578,2.8828,0.0,0.0,2.9131,2.904,2.8712,2.8263,2.7946,2.7965,0.0,0.0,0.0,0.0,2.7396,0.0,0.0,0.0,0.0,0.0,0.0,0.0,0.0,2.9994,2.9994,2.9994,2.9994,2.9994,2.9994,2.9953,2.988,2.9415,2.9452,2.9997,3.0469,3.1017,3.1625,3.2624,3.3313,3.3713,3.3713,0.0,3.4397,3.4397,3.4397,3.4384,3.4293,3.3979,3.3561,3.3365,3.2973,3.2463,3.185,3.1654,3.1575,3.1143,3.0986,3.0986,3.0986,3.0986,3.0986,3.0986,3.0986,3.0986,3.0986,3.0986,3.1061,3.1198,3.1235,3.1272,3.1447,3.1669,3.192,3.209,3.223,3.2411,3.264,3.3028,3.3366,3.3457,3.3874,3.3935,3.3306,3.2736,3.2398,3.2398,3.2398,3.2398,3.2398,3.2398,3.2398,3.2398,3.2398,3.2398,3.2398,3.2398,3.2398,3.2398,3.2398,3.2398,3.2398,3.2398,3.2398,3.2398,3.2398,3.2398,2.9275,2.8961,2.8697,2.8788,2.8816,2.8803,2.8816,0.0,0.0,0.0,2.9091,2.9091,2.8976,2.8621,0.0,0.0,0.0,0.0,0.0,0.0,0.0,0.0,0.0,0.0,0.0,0.0,0.0,0.0,0.0,2.9994,2.9994,2.9994,2.9994,2.9994,2.9994,2.9994,2.9994,2.9539,2.9568,3.0128,3.0593,3.1053,3.1625,3.2624,3.3313,3.3713,3.3713,0.0,3.4397,3.4397,3.4397,3.4397,3.4397,3.4241,3.3979,3.3692,3.3417,3.3077,3.2489,3.2045,3.1758,3.1522,3.1222,3.0986,3.0986,3.0986,3.0986,3.0986,3.0986,3.0986,3.0986,3.1099,3.1161,3.1272,3.1397,3.1522,3.1706,3.2119,3.2558,3.3123,3.3595,3.4058,3.4517,3.4575,3.4531,3.4531,3.4513,3.4382,3.3998,3.3704,3.3198,3.2475,3.2398,3.2398,3.2398,3.2398,3.2398,3.2398,3.2398,3.2398,3.2398,3.2398,3.2398,3.2398,3.2398,3.2398,3.2398,3.2398,3.2398,3.2398,3.2398,3.2398,2.9419,2.9145,2.8882,2.9052,2.9,2.8961,2.9091,2.9,0.0,2.9118,2.917,2.9236,2.9431,0.0,2.8314,0.0,2.7409,0.0,0.0,0.0,0.0,0.0,0.0,0.0,0.0,0.0,0.0,0.0,0.0,0.0,2.9994,2.9994,2.9994,2.9994,3.0245,3.0339,3.0339,3.0178,3.031,3.0612,3.1082,3.1445,3.1781,3.2674,3.3313,3.3713,3.3713,0.0,0.0,3.4397,3.4397,3.4397,3.4397,3.4397,3.4345,3.3927,3.3757,3.3679,3.3091,3.2594,3.215,3.2019,3.1548,3.0986,3.0986,3.0986,3.0986,3.0986,3.0986,3.0986,3.0986,3.1123,3.1272,3.1347,3.1643,3.1986,3.2155,3.2725,3.3443,3.438,3.4993,3.5625,3.6352,3.6045,3.5691,3.5691,3.5275,3.489,3.4736,3.472,3.4243,3.2967,3.2844,3.2844,3.2844,3.2844,3.2767,3.2613,3.2613,3.2552,3.2398,3.2398,3.2398,3.2398,3.2398,3.2398,3.2398,3.2398,3.2398,3.2398,3.2398,3.2398,2.9419,2.9236,2.9091,2.9091,2.9236,2.9302,2.9131,0.0,2.9341,2.938,2.938,2.947,2.9702,2.9079,2.8195,2.729,0.0,2.6895,0.0,0.0,0.0,0.0,0.0,0.0,0.0,0.0,0.0,0.0,0.0,0.0,2.9994,2.9994,2.9994,2.9994,3.0929,3.1432,3.1432,3.2404,3.2632,3.2265,3.2689,3.2678,3.2331,3.2878,3.3313,3.3713,3.3713,0.0,0.0,3.4397,3.4397,3.4397,3.4397,3.4397,3.4384,3.4345,3.4332,3.4241,3.3705,3.347,3.3339,3.279,3.1875,3.0986,3.0986,3.0986,3.0986,3.0986,3.0986,3.0986,3.0986,3.1024,3.1099,3.1485,3.2345,3.3052,3.3087,3.3665,3.4399,3.5157,3.5367,3.5625,3.6352,3.6445,3.6399,3.6399,3.6353,3.6091,3.5506,3.5429,3.5136,3.4397,3.4305,3.4305,3.4305,3.4305,3.3998,3.3352,3.3306,3.3044,3.2428,3.2398,3.2398,3.2398,3.2398,3.2398,3.2398,3.2398,3.2398,3.2398,3.2398,3.2398,2.965,2.9443,2.9314,2.9495,2.9365,2.9287,2.9468,0.0,2.9314,2.9573,2.9509,2.947,2.974,2.9507,2.9,2.8091,2.8461,0.0,0.0,0.0,0.0,0.0,0.0,0.0,0.0,0.0,0.0,0.0,0.0,0.0,3.094,3.094,3.094,3.094,3.1993,3.2538,3.2538,3.3001,3.3293,3.3397,3.3195,3.3174,3.3303,3.3146,3.3313,3.3713,3.3713,0.0,0.0,3.4397,3.4397,3.4397,3.4397,3.4397,3.4397,3.4397,3.4397,3.4371,3.4162,3.3862,3.3548,3.3313,3.2685,3.1954,3.1601,3.1261,3.0986,3.0986,3.0986,3.0986,3.0986,3.1174,3.1447,3.1706,3.2525,3.3178,3.3178,3.3768,3.4514,3.527,3.54,3.5625,3.6352,3.6492,3.6492,3.6492,3.6492,3.6384,3.6122,3.6091,3.5984,3.5722,3.4998,3.4505,3.4505,3.4505,3.4382,3.406,3.4073,3.3737,3.3029,3.2998,3.2813,3.2398,3.2398,3.2398,3.2398,3.2398,3.2398,3.2398,3.2398,3.2398,2.9792,2.965,2.956,2.974,2.9546,2.9378,0.0,2.9546,2.9378,2.9714,2.965,2.956,2.9753,2.9792,2.9495,2.8621,2.9352,2.9362,2.7448,0.0,0.0,0.0,0.0,0.0,0.0,0.0,0.0,0.0,0.0,0.0,3.1524,3.188,3.1931,3.1626,3.2939,3.3648,3.3648,3.3993,3.4353,3.4698,3.4103,3.39,3.4123,3.3571,3.3477,3.3713,3.3713,0.0,0.0,3.4397,3.4397,3.4397,3.4397,3.4397,3.4397,3.4397,3.4397,3.4397,3.4397,3.4149,3.3835,3.3835,3.343,3.2881,3.2476,3.1836,3.1248,3.1248,3.1117,3.1024,3.1061,3.1495,3.1913,3.189,3.2903,3.3802,3.3561,3.4279,3.5091,3.564,3.5737,3.5879,3.6429,3.6492,3.6492,3.6492,3.6492,3.6492,3.6492,3.6492,3.6492,3.6492,3.5675,3.5106,3.5106,3.5106,3.5013,3.4813,3.4813,3.4489,3.3752,3.3721,3.3398,3.2705,3.269,3.2598,3.2398,3.2398,3.2398,3.2398,3.2398,3.2398,2.9792,2.9792,2.9792,2.9792,2.9792,2.9792,2.9792,2.9792,2.9792,2.9792,2.9792,2.9792,2.9792,2.9792,2.9495,2.8621,2.9352,2.9362,2.7448,0.0,0.0,0.0,0.0,0.0,0.0,0.0,0.0,0.0,0.0,0.0,3.1524,3.26,3.27,3.1626,3.3674,3.4775,3.4775,3.581,3.6358,3.6392,3.5746,3.5207,3.4655,3.4148,3.3832,3.3713,0.0,0.0,0.0,3.4397,3.4397,3.4397,3.4397,3.4397,3.4397,3.4397,3.4397,3.4397,3.4397,3.4397,3.4384,3.4384,3.4018,3.3587,3.3574,3.2751,3.1797,3.1797,3.1418,3.1061,3.1235,3.1982,3.2561,3.2036,3.3679,3.519,3.4447,3.5432,3.6492,3.6492,3.6492,3.6492,3.6492,3.6492,3.6492,3.6492,3.6492,3.6492,3.6492,3.6492,3.6492,3.6492,3.6476,3.6476,3.6476,3.6476,3.6184,3.5522,3.5506,3.5198,3.452,3.4489,3.415,3.3398,3.3398,3.3059,3.2398,3.2398,3.2398,3.2398,3.2398,3.2398,2.9792,2.9792,2.9792,2.9792,2.965,2.956,2.9753,2.965,2.956,2.9753,2.9792,2.9792,2.9792,2.9792,2.9702,2.9417,3.027,3.0276,0.0,0.0,0.0,0.0,0.0,0.0,0.0,0.0,0.0,0.0,0.0,0.0,3.265,3.3685,3.4141,3.3784,3.5174,3.5918,3.5918,3.6216,3.6405,3.6405,3.5805,3.5207,3.4655,3.4148,3.3844,0.0,0.0,0.0,0.0,3.4397,3.4397,3.4397,3.4397,3.4397,3.4397,3.4397,3.4397,3.4397,3.4397,3.4397,3.4397,3.4397,3.428,3.4149,3.4149,3.3339,3.2346,3.1915,3.168,3.1584,3.177,3.2245,3.2761,3.3115,3.4327,3.5335,3.5091,3.58,3.6492,3.6492,3.6492,3.6492,3.6492,3.6492,3.6492,3.6492,3.6492,3.6492,3.6492,3.6492,3.6492,3.6492,3.6492,3.6492,3.6492,3.6492,3.6399,3.6184,3.6168,3.5876,3.5213,3.5198,3.4874,3.4181,3.4166,3.4058,3.3842,3.3842,3.3842,3.3842,3.3842,3.3842,2.9792,2.9792,2.9792,2.9792,2.965,2.9599,2.9753,2.965,2.9599,2.9753,2.9792,2.9792,2.9792,2.9792,2.9792,2.9792,3.0403,3.0455,0.0,0.0,0.0,0.0,0.0,0.0,0.0,0.0,0.0,0.0,0.0,0.0,3.3747,3.4434,3.4981,3.5367,3.6061,3.6405,3.6405,3.6405,3.6405,3.6405,3.6019,3.5454,3.4668,3.4361,3.3959,0.0,0.0,0.0,0.0,3.4356,3.4397,3.4397,3.4397,3.4397,3.4397,3.4397,3.4397,3.4397,3.4397,3.4397,3.4397,3.4397,3.4397,3.4397,3.4397,3.3757,3.2908,3.2333,3.1967,3.1936,3.2485,3.2864,3.3227,3.3851,3.4927,3.5737,3.5464,3.5975,3.6492,3.6492,3.6492,3.6492,3.6492,3.6492,3.6492,3.6492,3.6492,3.6492,3.6492,3.6492,3.6492,3.6492,3.6492,3.6492,3.6492,3.6492,3.6492,3.6492,3.6492,3.6307,3.5876,3.5891,3.5568,3.489,3.489,3.4751,3.4505,3.4505,3.4505,3.4505,3.4505,3.4505,0.0,2.9792,2.9792,2.9792,2.9792,2.9792,2.9792,2.9792,0.0,2.9792,2.9792,2.9792,2.9792,2.9792,2.9804,2.9842,2.9971,0.0,0.0,0.0,0.0,0.0,0.0,0.0,0.0,0.0,0.0,0.0,0.0,0.0,3.4727,3.4884,3.5367,3.6358,3.6405,3.6405,3.6405,3.6405,3.6405,3.6405,3.6405,3.578,3.468,3.468,3.4199,0.0,0.0,0.0,0.0,3.4314,3.4397,3.4397,3.4397,3.4397,3.4397,3.4397,3.4397,3.4397,3.4397,3.4397,3.4397,3.4397,3.4397,3.4397,3.4397,3.4045,3.3522,3.2921,3.2346,3.2144,3.3279,3.3649,3.3842,3.4298,3.5497,3.632,3.564,3.6022,3.6492,3.6492,3.6492,3.6492,3.6492,3.6492,3.6492,3.6492,3.6492,3.6492,3.6492,3.6492,3.6492,3.6492,3.6492,3.6492,3.6492,3.6492,3.6492,3.6492,3.6492,3.6492,3.6492,3.6492,3.6199,3.5568,3.5553,3.5275,3.4643,3.4643,3.4643,3.4643,3.4643,3.4643,2.9792,0.0,2.9792,2.9792,2.9792,2.9792,0.0,2.9792,2.9792,2.9792,0.0,2.9792,2.9792,2.9792,2.993,3.0357,3.0757,0.0,0.0,0.0,0.0,0.0,0.0,0.0,0.0,0.0,0.0,0.0,0.0,3.4532,3.4775,3.5571,3.6168,3.6405,3.6405,3.6405,3.6405,3.6405,3.6405,3.6405,3.6405,3.578,3.468,3.468,3.4199,0.0,0.0,0.0,3.4118,3.4314,3.4397,3.4397,3.4397,3.4397,3.4397,3.4397,3.4397,3.4397,3.4397,3.4397,3.4397,3.4397,3.4397,3.4397,3.4397,3.4306,3.4097,3.3535,3.3066,3.2929,3.3862,3.4036,3.423,3.5449,3.6148,3.646,3.6289,3.6383,3.6492,3.6492,3.6492,3.6492,3.6492,3.6492,3.6492,3.6492,3.6492,3.6492,3.6492,3.6492,3.6492,3.6492,3.6492,3.6492,3.6492,3.6492,3.6492,3.6492,3.6492,3.6492,3.6492,3.6492,3.6415,3.6261,3.6245,3.6184,3.6014,3.6014,3.6014,3.6014,3.6014,3.6014,2.9792,2.9792,2.9792,2.9792,2.9792,2.9792,2.9792,2.9792,2.9792,0.0,0.0,2.9792,2.9792,2.9792,2.998,3.052,3.0682,0.0,0.0,0.0,0.0,0.0,0.0,0.0,0.0,0.0,0.0,0.0,0.0,3.5523,3.5523,3.6061,3.6405,3.6405,3.6405,3.6405,3.6405,3.6405,3.6405,3.6405,3.6405,3.578,3.468,3.468,3.4155,0.0,0.0,0.0,3.3937,3.4272,3.4397,3.4397,3.4397,3.4397,3.4397,3.4397,3.4397,3.4397,3.4397,3.4397,3.4397,3.4397,3.4397,3.4397,3.4397,3.4675,3.4856,3.4155,3.3953,3.4097,3.4702,3.492,3.5215,3.6114,3.6414,3.6492,3.6492,3.6492,3.6492,3.6492,3.6492,3.6492,3.6492,3.6492,3.6492,3.6492,3.6492,3.6492,3.6492,3.6492,3.6492,3.6492,3.6492,3.6492,3.6492,3.6492,3.6492,3.6492,3.6492,3.6492,3.6492,3.6492,3.6492,3.6492,3.6492,3.6492,3.6492,3.6492,3.6492,3.6492,3.6492,3.6492,2.9792,2.9792,2.9792,2.9792,2.9792,2.9792,2.9792,0.0,0.0,0.0,0.0,0.0,0.0,2.9867,0.0,0.0,0.0,0.0,0.0,0.0,0.0,0.0,0.0,0.0,0.0,0.0,0.0,0.0,0.0,3.6405,3.6405,3.6405,3.6405,3.6405,3.6405,3.6405,3.6405,3.6405,3.6405,3.6405,3.6405,3.578,3.468,3.468,3.4123,3.3124,0.0,0.0,3.3755,3.423,3.4397,3.4397,3.4397,3.4397,3.4397,3.4397,3.4397,3.4397,3.4397,3.4397,3.4397,3.4397,3.4397,3.4397,3.4397,3.4991,3.5548,3.4799,3.4942,3.5423,3.5742,3.5983,3.6222,3.6565,3.6569,3.6492,3.6492,3.6492,3.6492,3.6492,3.6492,3.6492,3.6492,3.6492,3.6492,3.6492,3.6492,3.6492,3.6492,3.6492,3.6492,3.6492,3.6492,3.6492,3.6492,3.6492,3.6492,3.6492,3.6492,3.6492,3.6492,3.6492,3.6492,3.6492,3.6492,3.6492,3.6492,3.6492,3.6492,3.6492,3.6492,3.6492,2.9792,2.9792,2.9792,2.9792,2.9792,2.9792,2.9792,2.9792,0.0,0.0,0.0,0.0,0.0,0.0,0.0,0.0,0.0,0.0,0.0,0.0,0.0,0.0,0.0,0.0,0.0,0.0,0.0,0.0,0.0,3.6405,3.6405,3.6405,3.6405,3.6405,3.6405,3.6405,3.6405,3.6405,3.6405,3.6405,3.6405,3.578,3.468,3.468,3.4123,3.3124,0.0,3.3713,3.3755,3.423,3.4397,3.4397,3.4397,3.4397,3.4397,3.4397,3.4397,3.4397,3.4397,3.4397,3.4397,3.4397,3.4397,3.4397,3.4397,3.4991,3.5669,3.5548,3.5917,3.6516,3.7201,3.6857,3.6523,3.7194,3.6907,3.6492,3.6492,3.6492,3.6492,3.6492,3.6492,3.6492,3.6492,3.6492,3.6492,3.6492,3.6492,3.6492,3.6492,3.6492,3.6492,3.6492,3.6492,3.6492,3.6492,3.6492,3.6492,3.6492,3.6492,3.6492,3.6492,3.6492,3.6492,3.6492,3.6492,3.6492,3.6492,3.6492,3.6492,3.6492,3.6492,3.6492,2.9792,2.9792,2.9792,2.9792,2.9792,2.9792,2.9792,2.9792,0.0,0.0,0.0,0.0,0.0,0.0,0.0,0.0,0.0,0.0,0.0,0.0,0.0,0.0,0.0,0.0,0.0,0.0,0.0,0.0,0.0,0.0,3.6405,3.6405,3.6405,3.6405,3.6405,3.6405,3.6405,3.6405,3.6405,3.6405,3.6405,3.578,3.468,3.468,3.4123,3.3124,0.0,3.3713,3.3755,3.423,3.4397,3.4397,3.4397,3.4397,3.4397,3.4397,3.4397,3.4397,3.4397,3.4397,3.4397,3.4397,3.4397,3.4397,3.4397,3.5291,3.6385,3.6478,3.7106,3.7718,3.7709,3.7898,3.7974,3.7597,3.7261,3.6938,3.6569,3.6492,3.6492,3.6492,3.6492,3.6492,3.6492,3.6492,3.6492,3.6492,3.6492,3.6492,3.6492,3.6492,3.6492,3.6492,3.6492,3.6492,3.6492,3.6492,3.6492,3.6492,3.6492,3.6492,3.6492,3.6492,3.6492,3.6492,3.6492,3.6492,3.6492,3.6492,3.6492,3.6492,3.6492,3.6492,2.9792,2.9792,2.9792,2.9792,2.9792,2.9792,2.9792,2.9792,0.0,0.0,0.0,0.0,0.0,0.0,0.0,0.0,0.0,0.0,0.0,0.0,0.0,0.0,0.0,0.0,0.0,0.0,0.0,0.0,0.0,0.0,3.6405,3.6405,3.6405,3.6405,3.6405,3.6405,3.6405,3.6405,3.6405,3.6405,3.6405,3.578,3.468,3.468,3.4167,3.3197,3.3556,3.3755,3.3852,3.423,3.4397,3.4397,3.4397,3.4397,3.4397,3.4397,3.4397,3.4397,3.4397,3.4397,3.4397,3.4397,3.4551,3.4675,3.4481,3.5722,3.7204,3.7204,3.8078,3.889,3.8421,3.8901,3.9216,3.8015,3.7615,3.7323,3.663,3.6492,3.6492,3.6492,3.6492,3.6492,3.6492,3.6492,3.6492,3.6492,3.6492,3.6492,3.6492,3.6492,3.6492,3.6492,3.6492,3.6492,3.6492,3.6492,3.6492,3.6492,3.6492,3.6492,3.6492,3.6492,3.6492,3.6492,3.6492,3.6492,3.6492,3.6492,3.6492,3.6492,3.6492,3.6492,2.9792,2.9792,2.9792,2.9792,2.9792,2.9792,2.9792,2.9792,0.0,3.0457,0.0,0.0,0.0,0.0,0.0,0.0,0.0,0.0,0.0,0.0,0.0,0.0,0.0,0.0,0.0,0.0,0.0,0.0,0.0,0.0,3.6405,3.6405,3.6405,3.6405,3.6405,3.6405,3.6405,3.6405,3.6405,3.6405,3.6405,3.578,3.468,3.468,3.4199,3.3398,3.3598,3.3852,3.4076,3.4314,3.4397,3.4397,3.4397,3.4397,3.4397,3.4397,3.4397,3.4397,3.4397,3.4397,3.4397,3.4397,3.495,3.5467,3.4634,3.6136,3.8,3.7372,3.8517,3.9945,4.006,3.9795,3.9305,3.8616,3.7954,3.7323,3.663,3.6492,3.6492,3.6492,3.6492,3.6492,3.6492,3.6492,3.6492,3.6492,3.6492,3.6492,3.6492,3.6492,3.6492,3.6492,3.6492,3.6492,3.6492,3.6492,3.6492,3.6492,3.6492,3.6492,3.6492,3.6492,3.6492,3.6492,3.6492,3.6492,3.6492,3.6492,3.6492,3.6492,3.6492,3.6492,2.9792,2.9792,2.9792,2.9792,2.9792,0.0,0.0,3.0055,3.0369,3.057,3.0871,0.0,0.0,0.0,0.0,0.0,0.0,0.0,0.0,0.0,0.0,0.0,0.0,0.0,0.0,0.0,0.0,0.0,0.0,0.0,3.6405,3.6405,3.6405,3.6405,3.6405,3.6405,3.6405,3.6405,3.6405,3.6405,3.6405,3.578,3.468,3.468,3.4199,3.3398,3.3598,3.3852,3.4118,3.4314,3.4397,3.4397,3.4397,3.4397,3.4397,3.4397,3.4397,3.4397,3.4397,3.4397,3.4397,3.4397,3.4991,3.5629,3.5305,3.661,3.8188,3.813,3.9023,4.0046,4.0242,4.0217,3.9844,3.8769,3.8323,3.7831,3.6722,3.6492,3.6492,3.6492,3.6492,3.6492,3.6492,3.6492,3.6492,3.6492,3.6492,3.6492,3.6492,3.6492,3.6492,3.6492,3.6492,3.6492,3.6492,3.6492,3.6492,3.6492,3.6492,3.6492,3.6492,3.6492,3.6492,3.6492,3.6492,3.6492,3.6492,3.6492,3.6492,3.6492,3.6492,3.6492,2.9972,2.9972,2.9972,2.9895,0.0,0.0,3.0055,3.0344,3.0708,3.106,3.1549,0.0,0.0,0.0,0.0,0.0,0.0,0.0,0.0,0.0,0.0,0.0,0.0,0.0,0.0,0.0,0.0,0.0,0.0,0.0,0.0,3.6405,3.6405,3.6405,3.6405,3.6405,3.6405,3.6405,3.6405,3.6405,3.6405,3.578,3.468,3.468,3.4243,3.3513,3.3641,3.3894,3.4202,3.4356,3.4397,3.4397,3.4397,3.4397,3.4397,3.4397,3.4397,3.4397,3.4397,3.4397,3.4439,3.4716,3.5386,3.6082,3.6082,3.7232,3.8612,3.8664,3.9328,4.0066,4.0296,4.0436,4.0213,3.9059,3.8662,3.82,3.7061,3.6645,3.6492,3.6492,3.6492,3.6492,3.6492,3.6492,3.6492,3.6492,3.6492,3.6492,3.6492,3.6492,3.6492,3.6492,3.6492,3.6492,3.6492,3.6492,3.6492,3.6492,3.6492,3.6492,3.6492,3.6492,3.6492,3.6492,3.6492,3.6492,3.6492,3.6492,3.6492,3.6492,3.6492,3.6492,3.0406,3.0406,3.0368,0.0,0.0,0.0,3.066,3.062,3.0934,3.2001,0.0,3.3124,3.3124,0.0,0.0,0.0,0.0,0.0,0.0,0.0,0.0,0.0,0.0,0.0,0.0,0.0,0.0,0.0,0.0,0.0,0.0,3.6405,3.6405,3.6405,3.6405,3.6405,3.6405,3.6405,3.6405,3.6405,3.6405,3.578,3.468,3.468,3.4319,3.3713,3.3713,3.3979,3.4397,3.4397,3.4397,3.4397,3.4397,3.4397,3.4397,3.4397,3.4397,3.4397,3.4397,3.4397,3.4551,3.5426,3.6241,3.688,3.688,3.8069,3.9301,3.8826,3.9328,4.0066,4.042,4.0489,4.032,3.9644,3.9,3.8323,3.7646,3.6969,3.6492,3.6492,3.6492,3.6492,3.6492,3.6492,3.6492,3.6492,3.6492,3.6492,3.6492,3.6492,3.6492,3.6492,3.6492,3.6492,3.6492,3.6492,3.6492,3.6492,3.6492,3.6492,3.6492,3.6492,3.6492,3.6492,3.6492,3.6492,3.6492,3.6492,3.6492,3.6492,3.6492,3.6492,3.0406,3.0406,0.0,3.033,0.0,0.0,0.0,3.1556,0.0,0.0,3.2998,3.3124,3.3124,0.0,0.0,0.0,0.0,0.0,0.0,0.0,0.0,0.0,0.0,0.0,0.0,0.0,0.0,0.0,0.0,0.0,0.0,3.6405,3.6405,3.6405,3.6405,3.6405,3.6405,3.6534,3.6534,3.6405,3.6142,3.5587,3.468,3.468,3.4319,3.3713,3.3713,3.3979,3.4397,3.4397,3.4397,3.4397,3.4397,3.4397,3.4397,3.4397,3.4397,3.4397,3.4397,3.4397,3.4439,3.4716,3.5722,3.688,3.688,3.8167,3.961,3.961,3.991,4.0277,4.0455,4.0489,4.032,3.9644,3.9,3.8323,3.7646,3.6969,3.6492,3.6492,3.6492,3.6492,3.6492,3.6492,3.6492,3.6492,3.6492,3.6492,3.6492,3.6492,3.6492,3.6492,3.6492,3.6492,3.6492,3.6492,3.6492,3.6492,3.6492,3.6492,3.6492,3.6492,3.6492,3.6492,3.6492,3.6492,3.6492,3.6492,3.6492,3.6492,3.6492,3.6492,3.0634,3.0634,0.0,3.0791,3.128,3.1792,3.226,0.0,0.0,0.0,0.0,0.0,0.0,0.0,0.0,0.0,0.0,0.0,0.0,0.0,0.0,0.0,0.0,0.0,0.0,0.0,0.0,0.0,0.0,0.0,0.0,3.6405,3.6405,3.6405,3.6499,3.6499,3.6405,3.6581,3.6467,3.6031,3.5831,3.531,3.452,3.452,3.4204,3.3713,3.3882,3.4147,3.4397,3.4397,3.4397,3.4397,3.4397,3.4397,3.4397,3.4397,3.4397,3.4397,3.4397,3.4397,3.4522,3.5182,3.6068,3.7035,3.7776,3.8789,3.9768,4.0031,4.0207,4.0331,4.047,4.0489,4.0397,3.9982,3.9167,3.84,3.7984,3.7153,3.6492,3.6492,3.6492,3.6492,3.6492,3.6492,3.6492,3.6492,3.6492,3.6492,3.6492,3.6492,3.6492,3.6492,3.6492,3.6492,3.6492,3.6492,3.6492,3.6492,3.6492,3.6492,3.6492,3.6492,3.6492,3.6492,3.6492,3.6492,3.6492,3.6492,3.6492,3.6492,3.6492,3.6492,3.0986,0.0,0.0,3.1435,3.1979,0.0,0.0,0.0,0.0,0.0,0.0,0.0,0.0,0.0,0.0,0.0,0.0,0.0,0.0,0.0,0.0,0.0,0.0,0.0,0.0,0.0,0.0,0.0,0.0,0.0,0.0,3.6452,3.6452,3.6452,3.6628,3.6628,3.6452,3.6675,3.6349,3.5588,3.5537,3.5082,3.4235,3.4223,3.4048,3.3755,3.423,3.4397,3.4397,3.4397,3.4397,3.4397,3.4397,3.4397,3.4397,3.4397,3.4397,3.4397,3.4397,3.4439,3.4786,3.6306,3.6894,3.7357,3.906,3.9646,3.9803,4.0191,4.0312,4.0347,4.047,4.0489,4.0489,4.0489,3.9459,3.8508,3.8508,3.7446,3.6492,3.6492,3.6492,3.6492,3.6492,3.6492,3.6492,3.6492,3.6492,3.6492,3.6492,3.6492,3.6492,3.6492,3.6492,3.6492,3.6492,3.6492,3.6492,3.6492,3.6492,3.6492,3.6492,3.6492,3.6492,3.6492,3.6492,3.6492,3.6492,3.6492,3.6492,3.6492,3.6492,3.6523,3.0986,3.0986,0.0,0.0,3.2369,0.0,0.0,0.0,0.0,0.0,0.0,0.0,0.0,0.0,0.0,0.0,0.0,0.0,0.0,0.0,0.0,0.0,0.0,0.0,0.0,0.0,0.0,0.0,0.0,0.0,3.6405,3.6734,3.6875,3.6628,3.6862,3.6968,3.6968,3.7214,3.6932,0.0,3.5859,3.5294,3.451,3.4279,3.4134,3.4034,3.4272,3.4397,3.4397,3.4397,3.4397,3.4397,3.4397,3.4397,3.4397,3.4397,3.4397,3.4397,3.4397,3.4827,3.5467,3.5856,3.6844,3.8023,3.8517,3.9292,3.9996,4.0242,4.0366,4.0455,4.0489,4.0489,4.0489,4.0489,3.9459,3.8508,3.8508,3.7446,3.6492,3.6492,3.6492,3.6492,3.6492,3.6492,3.6492,3.6492,3.6492,3.6492,3.6492,3.6492,3.6492,3.6492,3.6492,3.6492,3.6492,3.6492,3.6492,3.6492,3.6492,3.6492,3.6492,3.6492,3.6492,3.6492,3.6492,3.6492,3.6492,3.6492,3.6492,3.6492,3.6492,3.6754,3.1542,0.0,0.0,3.2032,0.0,0.0,0.0,0.0,0.0,0.0,0.0,0.0,0.0,0.0,0.0,0.0,0.0,0.0,0.0,0.0,0.0,0.0,0.0,0.0,0.0,0.0,0.0,0.0,0.0,3.6875,3.6734,3.6968,3.7062,3.6909,3.7155,3.7214,3.7108,3.707,3.6657,3.5865,3.5421,3.4899,3.4358,3.423,3.4191,3.4243,3.4356,3.4397,3.4397,3.4397,3.4397,3.4397,3.4397,3.4397,3.4397,3.4397,3.4397,3.4481,3.4868,3.5305,3.583,3.6663,3.7491,3.83,3.895,3.9559,4.0066,4.0331,4.047,4.0489,4.0489,4.0489,4.0489,4.0489,3.9459,3.8508,3.8508,3.7446,3.6492,3.6492,3.6492,3.6492,3.6492,3.6492,3.6492,3.6492,3.6492,3.6492,3.6492,3.6492,3.6492,3.6492,3.6492,3.6492,3.6492,3.6492,3.6492,3.6492,3.6492,3.6492,3.6492,3.6492,3.6492,3.6492,3.6492,3.6492,3.6492,3.6492,3.6492,3.6492,3.6492,3.6662,3.211,0.0,3.1509,3.245,3.3548,0.0,0.0,0.0,0.0,0.0,0.0,0.0,0.0,0.0,0.0,0.0,0.0,0.0,0.0,0.0,0.0,0.0,0.0,0.0,0.0,0.0,0.0,0.0,0.0,3.7155,3.7108,3.7201,3.7214,3.7168,3.7413,3.7407,3.7106,3.6813,3.6244,3.5377,3.4843,3.4414,3.416,3.416,3.4243,3.4397,3.4397,3.4397,3.4397,3.4397,3.4397,3.4397,3.4397,3.4397,3.4397,3.4397,3.4397,3.4522,3.5386,3.5776,3.6175,3.7682,3.8277,3.8612,3.9676,4.0011,4.0066,4.0401,4.0489,4.0489,4.0489,4.0489,4.0489,4.0489,3.9551,3.8646,3.8539,3.7538,3.663,3.6507,3.6492,3.6492,3.6492,3.6492,3.6492,3.6492,3.6492,3.6492,3.6492,3.6492,3.6492,3.6492,3.6492,3.6492,3.6492,3.6492,3.6492,3.6492,3.6492,3.6492,3.6492,3.6492,3.6492,3.6492,3.6492,3.6492,3.6492,3.6492,3.6492,3.6492,3.6492,3.6554,0.0,0.0,3.2502,0.0,3.3548,0.0,0.0,0.0,0.0,0.0,0.0,0.0,0.0,0.0,0.0,0.0,0.0,0.0,0.0,0.0,0.0,0.0,0.0,0.0,0.0,0.0,0.0,0.0,3.7459,3.7366,3.7108,3.7551,3.7703,3.7459,3.7703,3.7606,3.7026,3.6948,3.6374,3.5318,3.4718,3.4392,3.4356,3.4356,3.4356,3.4397,3.4397,3.4397,3.4397,3.4397,3.4397,3.4397,3.4397,3.4397,3.4397,3.4397,3.4397,3.4522,3.5386,3.6162,3.6894,3.7872,3.8664,3.9337,3.9854,4.0011,4.0066,4.0401,4.0489,4.0489,4.0489,4.0489,4.0489,4.0489,3.9905,3.9198,3.8646,3.7908,3.7184,3.6599,3.6492,3.6492,3.6492,3.6492,3.6492,3.6492,3.6492,3.6492,3.6492,3.6492,3.6492,3.6492,3.6492,3.6492,3.6492,3.6492,3.6492,3.6492,3.6492,3.6492,3.6492,3.6492,3.6492,3.6492,3.6492,3.6492,3.6492,3.6492,3.6492,3.6492,3.6492,3.6785,3.2398,3.2142,3.2293,0.0,3.3326,0.0,0.0,0.0,0.0,0.0,0.0,0.0,0.0,0.0,0.0,0.0,0.0,0.0,0.0,0.0,0.0,0.0,0.0,0.0,0.0,0.0,0.0,0.0,3.7703,3.7657,3.7551,3.7762,3.7697,3.7209,3.7345,3.7116,3.6502,3.6201,3.5626,3.4789,3.4528,3.4397,3.4397,3.4397,3.4397,3.4397,3.4397,3.4397,3.4397,3.4397,3.4397,3.4397,3.4397,3.4397,3.4397,3.4397,3.4397,3.4592,3.5923,3.6621,3.7127,3.8449,3.9119,3.9496,3.9889,4.0011,4.0066,4.0401,4.0489,4.0489,4.0489,4.0489,4.0489,4.0489,4.0259,3.9859,3.9216,3.8539,3.7984,3.7677,3.7323,3.7061,3.7061,3.6738,3.6492,3.6492,3.6492,3.6492,3.6492,3.6492,3.6492,3.6492,3.6492,3.6492,3.6492,3.6492,3.6492,3.6492,3.6492,3.6492,3.6492,3.6492,3.6492,3.6492,3.6492,3.6492,3.6492,3.6492,3.6492,3.6492,3.6492,3.6631,0.0,0.0,3.2478,3.2882,0.0,0.0,0.0,0.0,0.0,0.0,0.0,0.0,0.0,0.0,0.0,0.0,0.0,0.0,0.0,0.0,0.0,0.0,0.0,0.0,0.0,0.0,0.0,0.0,3.7808,3.7835,3.7678,3.7678,3.7403,3.6789,3.6776,3.6488,3.59,3.5351,3.4842,3.4397,3.4397,3.4397,3.4397,3.4397,3.4397,3.4397,3.4397,3.4397,3.4397,3.4397,3.4397,3.4397,3.4397,3.4397,3.4397,3.4397,3.4397,3.4634,3.6346,3.688,3.7204,3.887,3.9388,3.946,3.9818,3.996,4.0066,4.0366,4.0455,4.0489,4.0489,4.0489,4.0489,4.0489,4.0489,4.0305,3.9628,3.8985,3.8508,3.8508,3.8108,3.7754,3.7754,3.72,3.6738,3.6738,3.6599,3.6492,3.6492,3.6492,3.6492,3.6492,3.6492,3.6492,3.6492,3.6492,3.6492,3.6492,3.6492,3.6492,3.6492,3.6492,3.6492,3.6492,3.6492,3.6492,3.6492,3.6492,3.6492,3.6492,3.6662,3.6723,0.0,3.4085,0.0,3.3781,0.0,0.0,0.0,0.0,0.0,0.0,0.0,0.0,0.0,0.0,0.0,0.0,0.0,0.0,0.0,0.0,0.0,0.0,0.0,0.0,0.0,0.0,0.0,0.0,3.7586,3.7652,3.709,3.705,3.6776,3.6175,3.6149,3.5887,3.5338,3.475,3.4424,3.4397,3.4397,3.4397,3.4397,3.4397,3.4397,3.4397,3.4397,3.4397,3.4397,3.4397,3.4397,3.4397,3.4397,3.4397,3.4397,3.4397,3.4397,3.4634,3.6346,3.688,3.7204,3.887,3.9388,3.946,3.9661,3.9839,4.0031,4.0242,4.0401,4.0489,4.0489,4.0489,4.0489,4.0489,4.0489,4.0305,3.9628,3.8985,3.8508,3.8508,3.8477,3.8462,3.8462,3.7892,3.7446,3.7446,3.6907,3.6492,3.6492,3.6492,3.6492,3.6492,3.6492,3.6492,3.6492,3.6492,3.6492,3.6492,3.6492,3.6492,3.6492,3.6492,3.6492,3.6492,3.6492,3.6492,3.6492,3.6492,3.6492,3.6523,3.7104,3.7358,0.0,0.0,0.0,3.3923,0.0,0.0,0.0,0.0,0.0,0.0,0.0,0.0,0.0,0.0,0.0,0.0,0.0,0.0,0.0,0.0,0.0,0.0,0.0,0.0,0.0,0.0,0.0,0.0,0.0,3.6658,3.6436,3.6423,3.6175,3.56,3.5587,3.5312,3.4724,3.4502,3.4397,3.4397,3.4397,3.4397,3.4397,3.4397,3.4397,3.4397,3.4397,3.4397,3.4397,3.4397,3.4397,3.4397,3.4397,3.4397,3.4397,3.4397,3.4397,3.4634,3.6346,3.688,3.7204,3.887,3.9388,3.946,3.9783,3.9925,4.0066,4.0331,4.047,4.0489,4.0489,4.0489,4.0489,4.0489,4.0489,4.0428,4.0182,3.9936,3.9767,3.9767,3.9428,3.9154,3.9154,3.86,3.8138,3.8138,3.7569,3.7138,3.7138,3.6769,3.6492,3.6492,3.6492,3.6492,3.6492,3.6492,3.6492,3.6492,3.6492,3.6492,3.6492,3.6492,3.6492,3.6492,3.6492,3.6492,3.6492,3.6892,3.7074,3.7088,3.7709,3.7982,3.471,0.0,0.0,0.0,0.0,0.0,0.0,0.0,0.0,0.0,0.0,0.0,0.0,0.0,0.0,0.0,0.0,0.0,0.0,0.0,0.0,0.0,0.0,0.0,0.0,0.0,0.0,0.0,0.0,0.0,3.5848,3.5835,3.5574,3.5012,3.4999,3.4803,3.4397,3.4397,3.4397,3.4397,3.4397,3.4397,3.4397,3.4397,3.4397,3.4397,3.4397,3.4397,3.4397,3.4397,3.4397,3.4439,3.4716,3.484,3.4868,3.5142,3.5251,3.5454,3.6869,3.7333,3.7577,3.8943,3.9388,3.946,3.9818,3.996,4.0066,4.0366,4.047,4.0489,4.0489,4.0489,4.0489,4.0489,4.0489,4.0489,4.0489,4.0489,4.0489,4.0489,4.0136,3.9828,3.9828,3.9293,3.8846,3.8846,3.8277,3.7754,3.7523,3.7107,3.6738,3.6507,3.6492,3.6492,3.6492,3.6492,3.6492,3.6492,3.6492,3.6492,3.6492,3.6492,3.6492,3.6492,3.6492,3.6492,3.6492,3.6892,3.7104,3.7134,3.7924,3.8502,0.0,0.0,0.0,0.0,0.0,0.0,3.4019,0.0,0.0,0.0,0.0,0.0,0.0,0.0,0.0,0.0,0.0,0.0,0.0,0.0,0.0,0.0,0.0,0.0,0.0,0.0,0.0,0.0,3.5757,3.5822,3.5299,3.5273,3.4999,3.441,3.4397,3.4397,3.4397,3.4397,3.4397,3.4397,3.4397,3.4397,3.4397,3.4397,3.4397,3.4397,3.4397,3.4397,3.4397,3.4397,3.4397,3.4481,3.5345,3.5669,3.5776,3.6582,3.688,3.6996,3.791,3.8202,3.8315,3.9156,3.9388,3.946,3.9661,3.9839,4.0031,4.0242,4.0401,4.0489,4.0489,4.0489,4.0489,4.0489,4.0489,4.0489,4.0489,4.0489,4.0489,4.0489,4.0489,4.0489,4.0489,3.9951,3.9521,3.9521,3.897,3.8308,3.7646,3.7523,3.7246,3.6599,3.6507,3.6492,3.6492,3.6492,3.6492,3.6492,3.6492,3.6492,3.6492,3.6492,3.6492,3.6492,3.6492,3.6492,3.6492,3.6523,3.6523,3.6554,3.7751,3.893,3.5504,0.0,0.0,0.0,0.0,0.0,3.4768,3.4108,3.3819,0.0,0.0,0.0,0.0,0.0,0.0,0.0,0.0,0.0,0.0,0.0,0.0,0.0,0.0,0.0,0.0,0.0,0.0,0.0,3.4789,3.4803,3.4659,3.4646,3.4567,3.441,3.4397,3.4397,3.4397,3.4397,3.4397,3.4397,3.4397,3.4397,3.4397,3.4397,3.4397,3.4397,3.4397,3.4397,3.4397,3.4397,3.4397,3.4439,3.4675,3.5155,3.5749,3.5936,3.6385,3.6996,3.791,3.8202,3.8315,3.9156,3.9388,3.9445,3.9818,3.996,4.0066,4.0366,4.0455,4.0489,4.0489,4.0489,4.0489,4.0489,4.0489,4.0489,4.0489,4.0489,4.0489,4.0489,4.0489,4.0489,4.0489,4.0336,4.0213,4.0213,3.9644,3.9136,3.8985,3.8108,3.743,3.723,3.6784,3.6492,3.6492,3.6492,3.6492,3.6492,3.6492,3.6492,3.6492,3.6492,3.6492,3.6492,3.6492,3.6492,3.6492,3.6922,3.7148,3.7178,3.7953,3.8474,3.5504,0.0,0.0,0.0,0.0,0.0,3.4806,3.4349,3.4133,0.0,0.0,0.0,0.0,0.0,0.0,0.0,0.0,0.0,0.0,0.0,0.0,0.0,0.0,0.0,0.0,3.4397,3.4397,3.4397,3.4397,3.4397,3.4397,3.4397,3.4397,3.4397,3.4397,3.4397,3.4397,3.4397,3.4397,3.4397,3.4397,3.4397,3.4397,3.4397,3.4397,3.4397,3.4397,3.4397,3.4397,3.4397,3.4397,3.4439,3.4799,3.5237,3.579,3.6492,3.7039,3.7577,3.8412,3.8701,3.8775,3.9228,3.9388,3.946,3.9783,3.9925,4.0066,4.0331,4.047,4.0489,4.0489,4.0489,4.0489,4.0489,4.0489,4.0489,4.0489,4.0489,4.0489,4.0489,4.0489,4.0489,4.0489,4.0489,4.0489,4.0489,4.0151,3.9797,3.9521,3.8831,3.8123,3.7569,3.7153,3.6799,3.6507,3.6492,3.6492,3.6492,3.6492,3.6492,3.6492,3.6492,3.6492,3.6492,3.6492,3.6492,3.6492,3.6831,3.7148,3.7417,3.7767,3.8067,0.0,0.0,0.0,0.0,3.5504,0.0,3.461,3.4777,3.4969,3.4484,0.0,0.0,0.0,0.0,0.0,0.0,0.0,0.0,0.0,0.0,0.0,0.0,0.0,0.0,3.4397,3.4397,3.4397,3.4397,3.4397,3.4397,3.4397,3.4397,3.4397,3.4397,3.4397,3.4397,3.4397,3.4397,3.4397,3.4397,3.4397,3.4397,3.4397,3.4397,3.4397,3.4397,3.4397,3.4439,3.4551,3.4551,3.4481,3.4481,3.5237,3.5669,3.6016,3.7529,3.8165,3.8427,3.9156,3.9388,3.9388,3.9388,3.9388,3.946,3.9661,3.9839,4.0046,4.0277,4.0401,4.0489,4.0489,4.0489,4.0489,4.0489,4.0489,4.0489,4.0489,4.0489,4.0489,4.0489,4.0489,4.0489,4.0489,4.0489,4.0489,4.0489,4.0489,4.0274,3.9674,3.9536,3.9046,3.7861,3.7661,3.7338,3.6661,3.6599,3.6569,3.6492,3.6492,3.6492,3.6492,3.6492,3.6492,3.6492,3.6492,3.6492,3.6492,3.6492,3.6785,3.7298,3.7298,3.7608,0.0,0.0,0.0,0.0,0.0,0.0,3.5311,3.4861,3.4763,0.0,0.0,0.0,0.0,0.0,0.0,0.0,0.0,0.0,0.0,0.0,0.0,0.0,0.0,0.0,3.4397,3.4397,3.4397,3.4397,3.4397,3.4397,3.4397,3.4397,3.4397,3.4397,3.4397,3.4397,3.4397,3.4397,3.4397,3.4397,3.4397,3.4397,3.4397,3.4397,3.4397,3.4397,3.4397,3.4799,3.5467,3.5467,3.5032,3.4439,3.4592,3.5494,3.6699,3.7011,3.8008,3.9192,3.9352,3.9388,3.9388,3.9388,3.9388,3.946,3.9661,3.9839,4.0066,4.0366,4.0489,4.0489,4.0489,4.0489,4.0489,4.0489,4.0489,4.0489,4.0489,4.0489,4.0489,4.0489,4.0489,4.0489,4.0489,4.0489,4.0489,4.0489,4.0489,4.0443,4.032,3.9828,3.9382,3.9154,3.8646,3.8046,3.7353,3.7292,3.7076,3.6522,3.6492,3.6492,3.6492,3.6492,3.6492,3.6492,3.6492,3.6492,3.6492,3.6492,3.6554,3.6662,3.6662,3.6754,0.0,0.0,0.0,3.6073,0.0,0.0,0.0,3.518,3.5197,0.0,0.0,0.0,0.0,0.0,0.0,0.0,0.0,0.0,0.0,0.0,0.0,0.0,0.0,0.0,3.4397,3.4397,3.4397,3.4397,3.4397,3.4397,3.4397,3.4397,3.4397,3.4397,3.4397,3.4397,3.4397,3.4397,3.4397,3.4397,3.4397,3.4397,3.4397,3.4397,3.4397,3.4397,3.4397,3.4634,3.5073,3.5507,3.5426,3.5073,3.5494,3.6148,3.6958,3.7372,3.8098,3.8848,3.9265,3.9388,3.9388,3.9388,3.9388,3.9409,3.9517,3.9696,3.991,4.0296,4.0401,4.0401,4.0489,4.0489,4.0489,4.0489,4.0489,4.0489,4.0489,4.0489,4.0489,4.0489,4.0489,4.0489,4.0489,4.0489,4.0489,4.0489,4.0489,4.0489,4.0489,4.0197,3.9859,3.9521,3.9216,3.8739,3.8061,3.8,3.7861,3.7523,3.7184,3.6999,3.6999,3.6676,3.6492,3.6492,3.6492,3.6492,3.6492,3.6492,3.6492,3.6492,3.6492,3.6492,0.0,0.0,0.0,0.0,0.0,3.6522,0.0,0.0,0.0,0.0,0.0,0.0,0.0,0.0,0.0,0.0,0.0,0.0,0.0,0.0,0.0,0.0,0.0,0.0,3.4397,3.4397,3.4397,3.4397,3.4397,3.4397,3.4397,3.4397,3.4397,3.4397,3.4397,3.4397,3.4397,3.4397,3.4397,3.4397,3.4397,3.4397,3.4397,3.4397,3.4397,3.4397,3.4397,3.4522,3.4716,3.5588,3.6016,3.6215,3.6699,3.7011,3.7256,3.7947,3.8315,3.8501,3.9192,3.9388,3.9388,3.9388,3.9388,3.9424,3.946,3.9589,3.9788,4.0191,4.0312,4.0331,4.047,4.0489,4.0489,4.0489,4.0489,4.0489,4.0489,4.0489,4.0489,4.0489,4.0489,4.0489,4.0489,4.0489,4.0489,4.0489,4.0489,4.0489,4.0489,4.0489,4.0274,3.9736,3.9674,3.9413,3.8769,3.8708,3.8646,3.8523,3.8,3.7692,3.7692,3.7169,3.6815,3.6692,3.6676,3.6615,3.6492,3.6492,3.6492,3.6492,3.6492,3.6492,0.0,0.0,0.0,0.0,3.73,0.0,0.0,0.0,3.7225,3.7285,0.0,0.0,0.0,0.0,0.0,0.0,0.0,0.0,0.0,0.0,0.0,0.0,0.0,0.0,0.0,3.4397,3.4397,3.4397,3.4397,3.4397,3.4397,3.4397,3.4397,3.4397,3.4397,3.4397,3.4397,3.4397,3.4397,3.4397,3.4397,3.4397,3.4397,3.4397,3.4397,3.4397,3.4397,3.484,3.5629,3.6425,3.7218,3.7834,3.7179,3.7372,3.8075,3.8165,3.8664,3.9265,3.9373,3.9388,3.9388,3.9388,3.9388,3.9424,3.9625,3.9681,3.9788,4.0191,4.0312,4.0331,4.047,4.0489,4.0489,4.0489,4.0489,4.0489,4.0489,4.0489,4.0489,4.0489,4.0489,4.0489,4.0489,4.0489,4.0489,4.0489,4.0489,4.0489,4.0489,4.0489,4.0459,4.0382,4.0382,4.0105,3.9428,3.9367,3.9121,3.8554,3.8431,3.84,3.84,3.8323,3.8,3.74,3.7384,3.7092,3.6492,3.6492,3.6492,3.6492,3.6492,3.6492,0.0,0.0,0.0,0.0,0.0,0.0,3.7494,0.0,3.7524,0.0,0.0,0.0,0.0,0.0,0.0,0.0,3.8516,0.0,0.0,0.0,0.0,0.0,0.0,0.0,0.0,0.0,0.0,0.0,3.4397,3.4397,3.4397,3.4397,3.4397,3.4397,3.4397,3.4397,3.4397,3.4397,3.4397,3.4397,3.4397,3.4397,3.4397,3.4397,3.4397,3.4397,3.4397,3.4868,3.5736,3.6582,3.7424,3.8202,3.8323,3.8546,3.8885,3.8885,3.9119,3.9388,3.9388,3.9388,3.9388,3.9388,3.9388,3.9424,3.9481,3.9517,3.9589,3.9874,3.9945,4.0016,4.0296,4.0366,4.0401,4.0489,4.0489,4.0489,4.0489,4.0489,4.0489,4.0489,4.0489,4.0489,4.0489,4.0489,4.0489,4.0489,4.0489,4.0489,4.0489,4.0489,4.0489,4.0489,4.0489,4.0382,4.009,4.0074,3.9951,3.9659,3.929,3.8923,3.8523,3.8508,3.8369,3.8092,3.8077,3.7938,3.7661,3.7277,3.7076,3.7061,3.7048,3.6831,3.8819,0.0,0.0,0.0,0.0,0.0,0.0,0.0,0.0,0.0,0.0,0.0,0.0,0.0,0.0,0.0,0.0,3.9058,0.0,0.0,0.0,0.0,0.0,0.0,0.0,0.0,0.0,0.0,0.0,3.4522,3.4758,3.4758,3.4634,3.4397,3.4634,3.4634,3.4397,3.4397,3.4522,3.4758,3.4758,3.4868,3.5101,3.5101,3.5101,3.5101,3.5101,3.5454,3.6082,3.6908,3.763,3.8277,3.9083,3.9388,3.9388,3.9388,3.9388,3.9388,3.9388,3.9388,3.9388,3.9388,3.9388,3.9388,3.9388,3.9388,3.9445,3.9661,3.9681,3.9788,4.0207,4.0312,4.0331,4.047,4.0489,4.0489,4.0489,4.0489,4.0489,4.0489,4.0489,4.0489,4.0489,4.0489,4.0489,4.0489,4.0489,4.0489,4.0489,4.0489,4.0489,4.0489,4.0489,4.0489,4.0489,4.0489,4.0489,4.0489,4.0028,3.957,3.9077,3.9062,3.897,3.8785,3.8785,3.8692,3.8508,3.8015,3.7769,3.7754,3.7358,3.6922,0.0,0.0,0.0,3.8789,0.0,0.0,0.0,0.0,3.9045,0.0,0.0,0.0,0.0,0.0,3.899,3.7689,0.0,0.0,0.0,0.0,0.0,0.0,0.0,0.0,0.0,0.0,0.0,0.0,3.5332,3.4758,3.5629,3.5669,3.5264,3.4439,3.5237,3.5237,3.4397,3.4397,3.484,3.5669,3.5669,3.6082,3.6802,3.6802,3.6802,3.6802,3.6802,3.6841,3.6933,3.7796,3.8165,3.8277,3.9083,3.9388,3.9388,3.9388,3.9388,3.9388,3.9388,3.9388,3.9388,3.9388,3.9388,3.9388,3.9388,3.9388,3.9445,3.9661,3.9681,3.9788,4.0207,4.0312,4.0331,4.047,4.0489,4.0489,4.0489,4.0489,4.0489,4.0489,4.0489,4.0489,4.0489,4.0489,4.0489,4.0489,4.0489,4.0489,4.0489,4.0489,4.0489,4.0489,4.0489,4.0489,4.0489,4.0489,4.0489,4.0489,4.0474,4.0459,4.0428,4.0428,4.012,3.9459,3.9493,3.917,3.8508,3.8492,3.8477,3.8446,3.7139,3.6523,0.0,0.0,3.8745,3.8612,0.0,0.0,0.0,0.0,0.0,0.0,0.0,0.0,0.0,0.0,3.9116,3.8775,3.9089,0.0,0.0,0.0,0.0,0.0,0.0,0.0,0.0,0.0,0.0,0.0,3.6385,0.0,3.5696,3.6201,3.6122,3.5264,3.5548,3.5548,3.5264,3.5264,3.5426,3.5709,3.6241,3.6621,3.688,3.688,3.688,3.688,3.688,3.7218,3.7782,3.8075,3.8501,3.9031,3.9301,3.9388,3.9388,3.9388,3.9388,3.9388,3.9388,3.9388,3.9388,3.9388,3.9388,3.9388,3.9388,3.9388,3.9409,3.9481,3.9517,3.9589,3.9996,4.0101,4.0172,4.0436,4.0489,4.0489,4.0489,4.0489,4.0489,4.0489,4.0489,4.0489,4.0489,4.0489,4.0489,4.0489,4.0489,4.0489,4.0489,4.0489,4.0489,4.0489,4.0489,4.0489,4.0489,4.0489,4.0489,4.0489,4.0489,4.0489,4.0489,4.0489,4.0382,4.0151,4.0151,4.0043,3.9813,3.94,3.9136,3.9154,3.8246,3.7831,3.8763,3.8739,0.0,3.85,3.8501,0.0,3.8612,0.0,0.0,0.0,0.0,0.0,0.0,0.0,3.9141,3.9265,3.9337,3.9388,0.0,3.9388,0.0,0.0,0.0,0.0,0.0,0.0,0.0,3.7753,3.7242,3.6816,0.0,3.7078,3.6986,3.6162,3.6122,3.6122,3.6122,3.5856,3.5976,3.661,3.7102,3.7525,3.7791,3.7791,3.7791,3.7791,3.7791,3.8121,3.8627,3.8627,3.8922,3.9388,3.9388,3.9388,3.9388,3.9388,3.9388,3.9388,3.9388,3.9388,3.9388,3.9388,3.9388,3.9388,3.9388,3.9388,3.9388,3.9388,3.9388,3.9496,3.9889,4.0011,4.0066,4.0436,4.0489,4.0489,4.0489,4.0489,4.0489,4.0489,4.0489,4.0489,4.0489,4.0489,4.0489,4.0489,4.0489,4.0489,4.0489,4.0489,4.0489,4.0489,4.0489,4.0489,4.0489,4.0489,4.0489,4.0489,4.0489,4.0489,4.0489,4.0489,4.0489,4.0489,4.0489,4.0489,4.0489,4.0059,3.9844,3.9844,3.9398,3.9349]}]]